<?xml version="1.0" encoding="UTF-8" standalone="no" ?>
<gpx xmlns="http://www.topografix.com/GPX/1/1" xmlns:xsi="http://www.w3.org/2001/XMLSchema-instance" xsi:schemaLocation="http://www.topografix.com/GPX/1/1 http://www.topografix.com/GPX/1/1/gpx.xsd" version="1.1" creator="VisuGPX - https://www.visugpx.com">
  <metadata>
    <name>SAINT PIERRE DE BOEUF 31 KM</name>
    <desc><![CDATA[ST PIERRE DE BOEUF ST SABIN MALLEVAL 31 KM]]></desc>
  </metadata>
  <trk>
    <name><![CDATA[S PIERRE DE BOEUF]]></name>
    <trkseg>
      <trkpt lat="45.38753" lon="4.74531">
        <ele>151.54</ele>
        <time>2016-03-26T07:58:44Z</time>
      </trkpt>
      <trkpt lat="45.38754" lon="4.74531">
        <ele>151.06</ele>
        <time>2016-03-26T07:58:57Z</time>
      </trkpt>
      <trkpt lat="45.38753" lon="4.74532">
        <ele>151.06</ele>
        <time>2016-03-26T07:59:11Z</time>
      </trkpt>
      <trkpt lat="45.38754" lon="4.74532">
        <ele>152.03</ele>
        <time>2016-03-26T07:59:23Z</time>
      </trkpt>
      <trkpt lat="45.38753" lon="4.74534">
        <ele>152.03</ele>
        <time>2016-03-26T07:59:42Z</time>
      </trkpt>
      <trkpt lat="45.38752" lon="4.74533">
        <ele>152.51</ele>
        <time>2016-03-26T07:59:59Z</time>
      </trkpt>
      <trkpt lat="45.38754" lon="4.74535">
        <ele>151.54</ele>
        <time>2016-03-26T08:00:11Z</time>
      </trkpt>
      <trkpt lat="45.38756" lon="4.74534">
        <ele>151.54</ele>
        <time>2016-03-26T08:00:24Z</time>
      </trkpt>
      <trkpt lat="45.38756" lon="4.74535">
        <ele>151.06</ele>
        <time>2016-03-26T08:00:36Z</time>
      </trkpt>
      <trkpt lat="45.38755" lon="4.74534">
        <ele>151.54</ele>
        <time>2016-03-26T08:00:48Z</time>
      </trkpt>
      <trkpt lat="45.38753" lon="4.74536">
        <ele>151.06</ele>
        <time>2016-03-26T08:00:59Z</time>
      </trkpt>
      <trkpt lat="45.38753" lon="4.74535">
        <ele>151.54</ele>
        <time>2016-03-26T08:01:10Z</time>
      </trkpt>
      <trkpt lat="45.38754" lon="4.74534">
        <ele>152.03</ele>
        <time>2016-03-26T08:01:23Z</time>
      </trkpt>
      <trkpt lat="45.38756" lon="4.74533">
        <ele>151.54</ele>
        <time>2016-03-26T08:01:35Z</time>
      </trkpt>
      <trkpt lat="45.38755" lon="4.74533">
        <ele>151.54</ele>
        <time>2016-03-26T08:01:49Z</time>
      </trkpt>
      <trkpt lat="45.38755" lon="4.74531">
        <ele>151.54</ele>
        <time>2016-03-26T08:02:07Z</time>
      </trkpt>
      <trkpt lat="45.38757" lon="4.74531">
        <ele>150.58</ele>
        <time>2016-03-26T08:02:23Z</time>
      </trkpt>
      <trkpt lat="45.38757" lon="4.74533">
        <ele>152.03</ele>
        <time>2016-03-26T08:02:35Z</time>
      </trkpt>
      <trkpt lat="45.38758" lon="4.74531">
        <ele>152.99</ele>
        <time>2016-03-26T08:02:48Z</time>
      </trkpt>
      <trkpt lat="45.38757" lon="4.7453">
        <ele>152.51</ele>
        <time>2016-03-26T08:03:01Z</time>
      </trkpt>
      <trkpt lat="45.38756" lon="4.7453">
        <ele>151.54</ele>
        <time>2016-03-26T08:03:23Z</time>
      </trkpt>
      <trkpt lat="45.38757" lon="4.74531">
        <ele>152.51</ele>
        <time>2016-03-26T08:03:38Z</time>
      </trkpt>
      <trkpt lat="45.38759" lon="4.74534">
        <ele>152.51</ele>
        <time>2016-03-26T08:03:48Z</time>
      </trkpt>
      <trkpt lat="45.38758" lon="4.74538">
        <ele>150.58</ele>
        <time>2016-03-26T08:04:01Z</time>
      </trkpt>
      <trkpt lat="45.3876" lon="4.74544">
        <ele>152.99</ele>
        <time>2016-03-26T08:04:07Z</time>
      </trkpt>
      <trkpt lat="45.38763" lon="4.74549">
        <ele>155.39</ele>
        <time>2016-03-26T08:04:11Z</time>
      </trkpt>
      <trkpt lat="45.38769" lon="4.74557">
        <ele>161.16</ele>
        <time>2016-03-26T08:04:20Z</time>
      </trkpt>
      <trkpt lat="45.38777" lon="4.74558">
        <ele>163.56</ele>
        <time>2016-03-26T08:04:26Z</time>
      </trkpt>
      <trkpt lat="45.38781" lon="4.74562">
        <ele>165.48</ele>
        <time>2016-03-26T08:04:30Z</time>
      </trkpt>
      <trkpt lat="45.38799" lon="4.74588">
        <ele>166.45</ele>
        <time>2016-03-26T08:04:50Z</time>
      </trkpt>
      <trkpt lat="45.38808" lon="4.746">
        <ele>165.96</ele>
        <time>2016-03-26T08:05:01Z</time>
      </trkpt>
      <trkpt lat="45.38811" lon="4.74608">
        <ele>166.93</ele>
        <time>2016-03-26T08:05:05Z</time>
      </trkpt>
      <trkpt lat="45.3881" lon="4.74623">
        <ele>168.37</ele>
        <time>2016-03-26T08:05:11Z</time>
      </trkpt>
      <trkpt lat="45.3879" lon="4.74654">
        <ele>161.64</ele>
        <time>2016-03-26T08:05:31Z</time>
      </trkpt>
      <trkpt lat="45.3877" lon="4.74666">
        <ele>159.24</ele>
        <time>2016-03-26T08:05:49Z</time>
      </trkpt>
      <trkpt lat="45.38752" lon="4.74672">
        <ele>159.72</ele>
        <time>2016-03-26T08:06:02Z</time>
      </trkpt>
      <trkpt lat="45.3873" lon="4.74681">
        <ele>161.64</ele>
        <time>2016-03-26T08:06:17Z</time>
      </trkpt>
      <trkpt lat="45.38707" lon="4.74688">
        <ele>163.56</ele>
        <time>2016-03-26T08:06:33Z</time>
      </trkpt>
      <trkpt lat="45.38681" lon="4.74695">
        <ele>163.08</ele>
        <time>2016-03-26T08:06:53Z</time>
      </trkpt>
      <trkpt lat="45.38676" lon="4.74696">
        <ele>163.56</ele>
        <time>2016-03-26T08:06:57Z</time>
      </trkpt>
      <trkpt lat="45.3867" lon="4.74685">
        <ele>163.08</ele>
        <time>2016-03-26T08:07:05Z</time>
      </trkpt>
      <trkpt lat="45.38668" lon="4.74679">
        <ele>163.08</ele>
        <time>2016-03-26T08:07:09Z</time>
      </trkpt>
      <trkpt lat="45.38654" lon="4.74649">
        <ele>162.6</ele>
        <time>2016-03-26T08:07:27Z</time>
      </trkpt>
      <trkpt lat="45.38629" lon="4.74657">
        <ele>165</ele>
        <time>2016-03-26T08:07:44Z</time>
      </trkpt>
      <trkpt lat="45.38604" lon="4.74676">
        <ele>165.48</ele>
        <time>2016-03-26T08:08:03Z</time>
      </trkpt>
      <trkpt lat="45.38577" lon="4.74698">
        <ele>164.04</ele>
        <time>2016-03-26T08:08:25Z</time>
      </trkpt>
      <trkpt lat="45.38554" lon="4.74717">
        <ele>165.96</ele>
        <time>2016-03-26T08:08:43Z</time>
      </trkpt>
      <trkpt lat="45.38529" lon="4.74727">
        <ele>165</ele>
        <time>2016-03-26T08:09:01Z</time>
      </trkpt>
      <trkpt lat="45.3851" lon="4.74751">
        <ele>165</ele>
        <time>2016-03-26T08:09:19Z</time>
      </trkpt>
      <trkpt lat="45.38503" lon="4.74765">
        <ele>164.04</ele>
        <time>2016-03-26T08:09:28Z</time>
      </trkpt>
      <trkpt lat="45.38489" lon="4.74759">
        <ele>169.33</ele>
        <time>2016-03-26T08:09:42Z</time>
      </trkpt>
      <trkpt lat="45.38489" lon="4.74758">
        <ele>169.81</ele>
        <time>2016-03-26T08:09:43Z</time>
      </trkpt>
      <trkpt lat="45.38475" lon="4.74743">
        <ele>172.69</ele>
        <time>2016-03-26T08:10:00Z</time>
      </trkpt>
      <trkpt lat="45.38472" lon="4.74738">
        <ele>172.21</ele>
        <time>2016-03-26T08:10:04Z</time>
      </trkpt>
      <trkpt lat="45.3845" lon="4.74732">
        <ele>177.02</ele>
        <time>2016-03-26T08:10:21Z</time>
      </trkpt>
      <trkpt lat="45.38428" lon="4.74729">
        <ele>177.02</ele>
        <time>2016-03-26T08:10:39Z</time>
      </trkpt>
      <trkpt lat="45.38414" lon="4.74717">
        <ele>177.98</ele>
        <time>2016-03-26T08:10:52Z</time>
      </trkpt>
      <trkpt lat="45.38398" lon="4.74698">
        <ele>181.35</ele>
        <time>2016-03-26T08:11:09Z</time>
      </trkpt>
      <trkpt lat="45.38394" lon="4.74693">
        <ele>181.35</ele>
        <time>2016-03-26T08:11:13Z</time>
      </trkpt>
      <trkpt lat="45.38389" lon="4.74687">
        <ele>181.83</ele>
        <time>2016-03-26T08:11:19Z</time>
      </trkpt>
      <trkpt lat="45.38381" lon="4.74673">
        <ele>183.27</ele>
        <time>2016-03-26T08:11:30Z</time>
      </trkpt>
      <trkpt lat="45.38375" lon="4.74669">
        <ele>183.27</ele>
        <time>2016-03-26T08:11:36Z</time>
      </trkpt>
      <trkpt lat="45.38372" lon="4.74668">
        <ele>183.27</ele>
        <time>2016-03-26T08:11:39Z</time>
      </trkpt>
      <trkpt lat="45.38368" lon="4.74662">
        <ele>184.23</ele>
        <time>2016-03-26T08:11:44Z</time>
      </trkpt>
      <trkpt lat="45.38353" lon="4.74646">
        <ele>187.11</ele>
        <time>2016-03-26T08:11:58Z</time>
      </trkpt>
      <trkpt lat="45.3835" lon="4.74646">
        <ele>188.56</ele>
        <time>2016-03-26T08:12:01Z</time>
      </trkpt>
      <trkpt lat="45.38335" lon="4.74636">
        <ele>190.96</ele>
        <time>2016-03-26T08:12:15Z</time>
      </trkpt>
      <trkpt lat="45.38334" lon="4.74636">
        <ele>190.96</ele>
        <time>2016-03-26T08:12:16Z</time>
      </trkpt>
      <trkpt lat="45.38316" lon="4.74621">
        <ele>193.36</ele>
        <time>2016-03-26T08:12:33Z</time>
      </trkpt>
      <trkpt lat="45.38296" lon="4.74604">
        <ele>192.4</ele>
        <time>2016-03-26T08:12:50Z</time>
      </trkpt>
      <trkpt lat="45.38299" lon="4.74588">
        <ele>192.4</ele>
        <time>2016-03-26T08:13:03Z</time>
      </trkpt>
      <trkpt lat="45.38301" lon="4.74575">
        <ele>196.25</ele>
        <time>2016-03-26T08:13:15Z</time>
      </trkpt>
      <trkpt lat="45.383" lon="4.74568">
        <ele>197.69</ele>
        <time>2016-03-26T08:13:20Z</time>
      </trkpt>
      <trkpt lat="45.38298" lon="4.7455">
        <ele>201.05</ele>
        <time>2016-03-26T08:13:33Z</time>
      </trkpt>
      <trkpt lat="45.38297" lon="4.74533">
        <ele>203.46</ele>
        <time>2016-03-26T08:13:44Z</time>
      </trkpt>
      <trkpt lat="45.38298" lon="4.74517">
        <ele>205.86</ele>
        <time>2016-03-26T08:13:55Z</time>
      </trkpt>
      <trkpt lat="45.38301" lon="4.74503">
        <ele>212.11</ele>
        <time>2016-03-26T08:14:07Z</time>
      </trkpt>
      <trkpt lat="45.38301" lon="4.74502">
        <ele>212.59</ele>
        <time>2016-03-26T08:14:08Z</time>
      </trkpt>
      <trkpt lat="45.38315" lon="4.74486">
        <ele>215.47</ele>
        <time>2016-03-26T08:14:23Z</time>
      </trkpt>
      <trkpt lat="45.38328" lon="4.74475">
        <ele>215.47</ele>
        <time>2016-03-26T08:14:38Z</time>
      </trkpt>
      <trkpt lat="45.38339" lon="4.74468">
        <ele>216.91</ele>
        <time>2016-03-26T08:14:51Z</time>
      </trkpt>
      <trkpt lat="45.38354" lon="4.74455">
        <ele>218.36</ele>
        <time>2016-03-26T08:15:04Z</time>
      </trkpt>
      <trkpt lat="45.38366" lon="4.74446">
        <ele>220.28</ele>
        <time>2016-03-26T08:15:16Z</time>
      </trkpt>
      <trkpt lat="45.38379" lon="4.74431">
        <ele>222.2</ele>
        <time>2016-03-26T08:15:30Z</time>
      </trkpt>
      <trkpt lat="45.38383" lon="4.74422">
        <ele>224.61</ele>
        <time>2016-03-26T08:15:37Z</time>
      </trkpt>
      <trkpt lat="45.38387" lon="4.74409">
        <ele>227.97</ele>
        <time>2016-03-26T08:15:47Z</time>
      </trkpt>
      <trkpt lat="45.384" lon="4.74398">
        <ele>229.41</ele>
        <time>2016-03-26T08:16:01Z</time>
      </trkpt>
      <trkpt lat="45.38405" lon="4.74394">
        <ele>230.37</ele>
        <time>2016-03-26T08:16:07Z</time>
      </trkpt>
      <trkpt lat="45.38407" lon="4.74392">
        <ele>231.33</ele>
        <time>2016-03-26T08:16:09Z</time>
      </trkpt>
      <trkpt lat="45.38409" lon="4.74371">
        <ele>233.74</ele>
        <time>2016-03-26T08:16:23Z</time>
      </trkpt>
      <trkpt lat="45.38411" lon="4.74364">
        <ele>234.22</ele>
        <time>2016-03-26T08:16:37Z</time>
      </trkpt>
      <trkpt lat="45.38412" lon="4.74363">
        <ele>233.74</ele>
        <time>2016-03-26T08:16:42Z</time>
      </trkpt>
      <trkpt lat="45.38412" lon="4.74361">
        <ele>232.78</ele>
        <time>2016-03-26T08:16:53Z</time>
      </trkpt>
      <trkpt lat="45.38411" lon="4.74361">
        <ele>231.81</ele>
        <time>2016-03-26T08:17:10Z</time>
      </trkpt>
      <trkpt lat="45.38411" lon="4.74361">
        <ele>231.81</ele>
        <time>2016-03-26T08:17:38Z</time>
      </trkpt>
      <trkpt lat="45.38412" lon="4.74362">
        <ele>231.81</ele>
        <time>2016-03-26T08:17:46Z</time>
      </trkpt>
      <trkpt lat="45.38412" lon="4.74362">
        <ele>231.81</ele>
        <time>2016-03-26T08:18:05Z</time>
      </trkpt>
      <trkpt lat="45.38411" lon="4.74361">
        <ele>232.3</ele>
        <time>2016-03-26T08:18:16Z</time>
      </trkpt>
      <trkpt lat="45.38411" lon="4.74361">
        <ele>231.81</ele>
        <time>2016-03-26T08:18:33Z</time>
      </trkpt>
      <trkpt lat="45.3841" lon="4.74361">
        <ele>231.33</ele>
        <time>2016-03-26T08:18:55Z</time>
      </trkpt>
      <trkpt lat="45.38411" lon="4.7436">
        <ele>230.85</ele>
        <time>2016-03-26T08:19:09Z</time>
      </trkpt>
      <trkpt lat="45.3841" lon="4.7436">
        <ele>230.85</ele>
        <time>2016-03-26T08:19:30Z</time>
      </trkpt>
      <trkpt lat="45.3841" lon="4.7436">
        <ele>231.81</ele>
        <time>2016-03-26T08:19:42Z</time>
      </trkpt>
      <trkpt lat="45.3841" lon="4.74354">
        <ele>232.3</ele>
        <time>2016-03-26T08:19:55Z</time>
      </trkpt>
      <trkpt lat="45.38409" lon="4.74348">
        <ele>232.78</ele>
        <time>2016-03-26T08:20:00Z</time>
      </trkpt>
      <trkpt lat="45.38409" lon="4.74328">
        <ele>232.3</ele>
        <time>2016-03-26T08:20:15Z</time>
      </trkpt>
      <trkpt lat="45.38411" lon="4.74305">
        <ele>230.37</ele>
        <time>2016-03-26T08:20:32Z</time>
      </trkpt>
      <trkpt lat="45.38413" lon="4.74283">
        <ele>227.49</ele>
        <time>2016-03-26T08:20:47Z</time>
      </trkpt>
      <trkpt lat="45.38413" lon="4.7428">
        <ele>227.01</ele>
        <time>2016-03-26T08:20:49Z</time>
      </trkpt>
      <trkpt lat="45.38414" lon="4.74255">
        <ele>222.2</ele>
        <time>2016-03-26T08:21:06Z</time>
      </trkpt>
      <trkpt lat="45.38407" lon="4.74248">
        <ele>221.72</ele>
        <time>2016-03-26T08:21:12Z</time>
      </trkpt>
      <trkpt lat="45.38384" lon="4.74239">
        <ele>220.28</ele>
        <time>2016-03-26T08:21:29Z</time>
      </trkpt>
      <trkpt lat="45.38384" lon="4.74238">
        <ele>219.8</ele>
        <time>2016-03-26T08:21:30Z</time>
      </trkpt>
      <trkpt lat="45.38383" lon="4.74211">
        <ele>219.32</ele>
        <time>2016-03-26T08:21:46Z</time>
      </trkpt>
      <trkpt lat="45.38376" lon="4.74172">
        <ele>220.76</ele>
        <time>2016-03-26T08:22:06Z</time>
      </trkpt>
      <trkpt lat="45.3837" lon="4.74138">
        <ele>221.72</ele>
        <time>2016-03-26T08:22:24Z</time>
      </trkpt>
      <trkpt lat="45.38362" lon="4.74107">
        <ele>225.57</ele>
        <time>2016-03-26T08:22:43Z</time>
      </trkpt>
      <trkpt lat="45.38353" lon="4.74088">
        <ele>230.37</ele>
        <time>2016-03-26T08:22:57Z</time>
      </trkpt>
      <trkpt lat="45.38337" lon="4.74071">
        <ele>233.26</ele>
        <time>2016-03-26T08:23:15Z</time>
      </trkpt>
      <trkpt lat="45.38317" lon="4.74063">
        <ele>235.66</ele>
        <time>2016-03-26T08:23:32Z</time>
      </trkpt>
      <trkpt lat="45.383" lon="4.74051">
        <ele>237.58</ele>
        <time>2016-03-26T08:23:49Z</time>
      </trkpt>
      <trkpt lat="45.38285" lon="4.7403">
        <ele>239.51</ele>
        <time>2016-03-26T08:24:07Z</time>
      </trkpt>
      <trkpt lat="45.38275" lon="4.74001">
        <ele>240.47</ele>
        <time>2016-03-26T08:24:25Z</time>
      </trkpt>
      <trkpt lat="45.38263" lon="4.73973">
        <ele>240.47</ele>
        <time>2016-03-26T08:24:42Z</time>
      </trkpt>
      <trkpt lat="45.38248" lon="4.73948">
        <ele>243.83</ele>
        <time>2016-03-26T08:25:00Z</time>
      </trkpt>
      <trkpt lat="45.38229" lon="4.7393">
        <ele>247.2</ele>
        <time>2016-03-26T08:25:18Z</time>
      </trkpt>
      <trkpt lat="45.38207" lon="4.73923">
        <ele>249.6</ele>
        <time>2016-03-26T08:25:34Z</time>
      </trkpt>
      <trkpt lat="45.38184" lon="4.73904">
        <ele>249.6</ele>
        <time>2016-03-26T08:25:53Z</time>
      </trkpt>
      <trkpt lat="45.38175" lon="4.73882">
        <ele>249.6</ele>
        <time>2016-03-26T08:26:08Z</time>
      </trkpt>
      <trkpt lat="45.3817" lon="4.73857">
        <ele>251.52</ele>
        <time>2016-03-26T08:26:24Z</time>
      </trkpt>
      <trkpt lat="45.3817" lon="4.73832">
        <ele>251.04</ele>
        <time>2016-03-26T08:26:40Z</time>
      </trkpt>
      <trkpt lat="45.38181" lon="4.73809">
        <ele>252.48</ele>
        <time>2016-03-26T08:26:57Z</time>
      </trkpt>
      <trkpt lat="45.38184" lon="4.73803">
        <ele>252.96</ele>
        <time>2016-03-26T08:27:02Z</time>
      </trkpt>
      <trkpt lat="45.3819" lon="4.73796">
        <ele>256.33</ele>
        <time>2016-03-26T08:27:13Z</time>
      </trkpt>
      <trkpt lat="45.382" lon="4.73795">
        <ele>262.1</ele>
        <time>2016-03-26T08:27:26Z</time>
      </trkpt>
      <trkpt lat="45.38214" lon="4.73787">
        <ele>260.17</ele>
        <time>2016-03-26T08:27:37Z</time>
      </trkpt>
      <trkpt lat="45.38215" lon="4.7378">
        <ele>262.1</ele>
        <time>2016-03-26T08:27:43Z</time>
      </trkpt>
      <trkpt lat="45.38225" lon="4.73762">
        <ele>263.54</ele>
        <time>2016-03-26T08:27:54Z</time>
      </trkpt>
      <trkpt lat="45.38229" lon="4.73733">
        <ele>263.54</ele>
        <time>2016-03-26T08:28:08Z</time>
      </trkpt>
      <trkpt lat="45.38229" lon="4.73702">
        <ele>264.02</ele>
        <time>2016-03-26T08:28:21Z</time>
      </trkpt>
      <trkpt lat="45.38222" lon="4.73675">
        <ele>265.94</ele>
        <time>2016-03-26T08:28:36Z</time>
      </trkpt>
      <trkpt lat="45.38218" lon="4.73667">
        <ele>264.5</ele>
        <time>2016-03-26T08:28:41Z</time>
      </trkpt>
      <trkpt lat="45.38217" lon="4.73663">
        <ele>264.02</ele>
        <time>2016-03-26T08:28:45Z</time>
      </trkpt>
      <trkpt lat="45.3822" lon="4.73657">
        <ele>262.58</ele>
        <time>2016-03-26T08:28:54Z</time>
      </trkpt>
      <trkpt lat="45.38238" lon="4.7363">
        <ele>261.14</ele>
        <time>2016-03-26T08:29:12Z</time>
      </trkpt>
      <trkpt lat="45.38242" lon="4.73595">
        <ele>262.58</ele>
        <time>2016-03-26T08:29:28Z</time>
      </trkpt>
      <trkpt lat="45.38236" lon="4.73564">
        <ele>263.54</ele>
        <time>2016-03-26T08:29:43Z</time>
      </trkpt>
      <trkpt lat="45.38235" lon="4.73539">
        <ele>263.54</ele>
        <time>2016-03-26T08:29:59Z</time>
      </trkpt>
      <trkpt lat="45.38241" lon="4.73523">
        <ele>267.38</ele>
        <time>2016-03-26T08:30:13Z</time>
      </trkpt>
      <trkpt lat="45.38244" lon="4.73513">
        <ele>266.9</ele>
        <time>2016-03-26T08:30:19Z</time>
      </trkpt>
      <trkpt lat="45.38244" lon="4.73489">
        <ele>266.9</ele>
        <time>2016-03-26T08:30:32Z</time>
      </trkpt>
      <trkpt lat="45.38246" lon="4.73467">
        <ele>267.38</ele>
        <time>2016-03-26T08:30:45Z</time>
      </trkpt>
      <trkpt lat="45.38248" lon="4.73449">
        <ele>267.86</ele>
        <time>2016-03-26T08:30:58Z</time>
      </trkpt>
      <trkpt lat="45.38249" lon="4.73441">
        <ele>267.86</ele>
        <time>2016-03-26T08:31:04Z</time>
      </trkpt>
      <trkpt lat="45.38251" lon="4.73421">
        <ele>268.35</ele>
        <time>2016-03-26T08:31:17Z</time>
      </trkpt>
      <trkpt lat="45.38253" lon="4.73406">
        <ele>268.83</ele>
        <time>2016-03-26T08:31:24Z</time>
      </trkpt>
      <trkpt lat="45.38249" lon="4.73378">
        <ele>270.75</ele>
        <time>2016-03-26T08:31:38Z</time>
      </trkpt>
      <trkpt lat="45.38248" lon="4.73366">
        <ele>272.19</ele>
        <time>2016-03-26T08:31:47Z</time>
      </trkpt>
      <trkpt lat="45.38252" lon="4.73348">
        <ele>270.27</ele>
        <time>2016-03-26T08:32:02Z</time>
      </trkpt>
      <trkpt lat="45.38253" lon="4.73348">
        <ele>269.79</ele>
        <time>2016-03-26T08:32:04Z</time>
      </trkpt>
      <trkpt lat="45.38262" lon="4.73339">
        <ele>268.83</ele>
        <time>2016-03-26T08:32:15Z</time>
      </trkpt>
      <trkpt lat="45.38263" lon="4.73337">
        <ele>268.83</ele>
        <time>2016-03-26T08:32:16Z</time>
      </trkpt>
      <trkpt lat="45.38266" lon="4.73325">
        <ele>266.9</ele>
        <time>2016-03-26T08:32:23Z</time>
      </trkpt>
      <trkpt lat="45.38268" lon="4.73302">
        <ele>265.46</ele>
        <time>2016-03-26T08:32:31Z</time>
      </trkpt>
      <trkpt lat="45.38268" lon="4.73294">
        <ele>265.46</ele>
        <time>2016-03-26T08:32:35Z</time>
      </trkpt>
      <trkpt lat="45.38265" lon="4.73284">
        <ele>264.98</ele>
        <time>2016-03-26T08:32:40Z</time>
      </trkpt>
      <trkpt lat="45.3826" lon="4.73254">
        <ele>270.27</ele>
        <time>2016-03-26T08:32:57Z</time>
      </trkpt>
      <trkpt lat="45.38259" lon="4.73252">
        <ele>270.75</ele>
        <time>2016-03-26T08:32:59Z</time>
      </trkpt>
      <trkpt lat="45.38259" lon="4.7324">
        <ele>274.11</ele>
        <time>2016-03-26T08:33:05Z</time>
      </trkpt>
      <trkpt lat="45.38259" lon="4.73229">
        <ele>276.52</ele>
        <time>2016-03-26T08:33:11Z</time>
      </trkpt>
      <trkpt lat="45.38258" lon="4.7322">
        <ele>278.44</ele>
        <time>2016-03-26T08:33:17Z</time>
      </trkpt>
      <trkpt lat="45.38256" lon="4.73212">
        <ele>279.4</ele>
        <time>2016-03-26T08:33:21Z</time>
      </trkpt>
      <trkpt lat="45.3825" lon="4.73189">
        <ele>283.73</ele>
        <time>2016-03-26T08:33:37Z</time>
      </trkpt>
      <trkpt lat="45.38238" lon="4.73184">
        <ele>277.96</ele>
        <time>2016-03-26T08:33:50Z</time>
      </trkpt>
      <trkpt lat="45.38233" lon="4.73183">
        <ele>273.63</ele>
        <time>2016-03-26T08:34:13Z</time>
      </trkpt>
      <trkpt lat="45.38232" lon="4.73183">
        <ele>273.15</ele>
        <time>2016-03-26T08:34:40Z</time>
      </trkpt>
      <trkpt lat="45.38231" lon="4.73182">
        <ele>271.71</ele>
        <time>2016-03-26T08:34:52Z</time>
      </trkpt>
      <trkpt lat="45.38233" lon="4.73182">
        <ele>269.31</ele>
        <time>2016-03-26T08:35:07Z</time>
      </trkpt>
      <trkpt lat="45.38231" lon="4.73178">
        <ele>268.83</ele>
        <time>2016-03-26T08:35:15Z</time>
      </trkpt>
      <trkpt lat="45.38221" lon="4.73169">
        <ele>268.83</ele>
        <time>2016-03-26T08:35:29Z</time>
      </trkpt>
      <trkpt lat="45.38218" lon="4.73176">
        <ele>270.75</ele>
        <time>2016-03-26T08:35:37Z</time>
      </trkpt>
      <trkpt lat="45.38215" lon="4.73194">
        <ele>270.75</ele>
        <time>2016-03-26T08:35:51Z</time>
      </trkpt>
      <trkpt lat="45.38217" lon="4.73207">
        <ele>271.71</ele>
        <time>2016-03-26T08:36:04Z</time>
      </trkpt>
      <trkpt lat="45.3822" lon="4.73224">
        <ele>278.92</ele>
        <time>2016-03-26T08:36:18Z</time>
      </trkpt>
      <trkpt lat="45.38221" lon="4.73229">
        <ele>279.4</ele>
        <time>2016-03-26T08:36:21Z</time>
      </trkpt>
      <trkpt lat="45.38223" lon="4.73245">
        <ele>280.36</ele>
        <time>2016-03-26T08:36:30Z</time>
      </trkpt>
      <trkpt lat="45.3822" lon="4.73269">
        <ele>282.77</ele>
        <time>2016-03-26T08:36:45Z</time>
      </trkpt>
      <trkpt lat="45.38215" lon="4.73284">
        <ele>288.05</ele>
        <time>2016-03-26T08:36:58Z</time>
      </trkpt>
      <trkpt lat="45.38214" lon="4.73285">
        <ele>288.53</ele>
        <time>2016-03-26T08:36:59Z</time>
      </trkpt>
      <trkpt lat="45.38206" lon="4.73288">
        <ele>293.82</ele>
        <time>2016-03-26T08:37:11Z</time>
      </trkpt>
      <trkpt lat="45.38197" lon="4.73295">
        <ele>300.55</ele>
        <time>2016-03-26T08:37:26Z</time>
      </trkpt>
      <trkpt lat="45.38182" lon="4.733">
        <ele>304.39</ele>
        <time>2016-03-26T08:37:42Z</time>
      </trkpt>
      <trkpt lat="45.38178" lon="4.73302">
        <ele>303.91</ele>
        <time>2016-03-26T08:37:46Z</time>
      </trkpt>
      <trkpt lat="45.38164" lon="4.73314">
        <ele>311.12</ele>
        <time>2016-03-26T08:38:01Z</time>
      </trkpt>
      <trkpt lat="45.38161" lon="4.7333">
        <ele>324.1</ele>
        <time>2016-03-26T08:38:13Z</time>
      </trkpt>
      <trkpt lat="45.38155" lon="4.73355">
        <ele>333.71</ele>
        <time>2016-03-26T08:38:31Z</time>
      </trkpt>
      <trkpt lat="45.38153" lon="4.73372">
        <ele>326.99</ele>
        <time>2016-03-26T08:38:45Z</time>
      </trkpt>
      <trkpt lat="45.38152" lon="4.73376">
        <ele>325.54</ele>
        <time>2016-03-26T08:38:49Z</time>
      </trkpt>
      <trkpt lat="45.38147" lon="4.73382">
        <ele>323.62</ele>
        <time>2016-03-26T08:38:55Z</time>
      </trkpt>
      <trkpt lat="45.38144" lon="4.73389">
        <ele>321.22</ele>
        <time>2016-03-26T08:39:00Z</time>
      </trkpt>
      <trkpt lat="45.38129" lon="4.73409">
        <ele>317.85</ele>
        <time>2016-03-26T08:39:17Z</time>
      </trkpt>
      <trkpt lat="45.38119" lon="4.73422">
        <ele>317.37</ele>
        <time>2016-03-26T08:39:29Z</time>
      </trkpt>
      <trkpt lat="45.38105" lon="4.73426">
        <ele>318.33</ele>
        <time>2016-03-26T08:39:44Z</time>
      </trkpt>
      <trkpt lat="45.38087" lon="4.73428">
        <ele>320.74</ele>
        <time>2016-03-26T08:40:00Z</time>
      </trkpt>
      <trkpt lat="45.38072" lon="4.73441">
        <ele>331.79</ele>
        <time>2016-03-26T08:40:16Z</time>
      </trkpt>
      <trkpt lat="45.38067" lon="4.73451">
        <ele>339</ele>
        <time>2016-03-26T08:40:24Z</time>
      </trkpt>
      <trkpt lat="45.38057" lon="4.73473">
        <ele>334.2</ele>
        <time>2016-03-26T08:40:38Z</time>
      </trkpt>
      <trkpt lat="45.38044" lon="4.73493">
        <ele>334.68</ele>
        <time>2016-03-26T08:40:54Z</time>
      </trkpt>
      <trkpt lat="45.38028" lon="4.73504">
        <ele>340.44</ele>
        <time>2016-03-26T08:41:09Z</time>
      </trkpt>
      <trkpt lat="45.38012" lon="4.73521">
        <ele>345.25</ele>
        <time>2016-03-26T08:41:25Z</time>
      </trkpt>
      <trkpt lat="45.38007" lon="4.73531">
        <ele>344.77</ele>
        <time>2016-03-26T08:41:32Z</time>
      </trkpt>
      <trkpt lat="45.38005" lon="4.73532">
        <ele>344.29</ele>
        <time>2016-03-26T08:41:34Z</time>
      </trkpt>
      <trkpt lat="45.37994" lon="4.7354">
        <ele>336.12</ele>
        <time>2016-03-26T08:41:48Z</time>
      </trkpt>
      <trkpt lat="45.37971" lon="4.73541">
        <ele>335.64</ele>
        <time>2016-03-26T08:42:06Z</time>
      </trkpt>
      <trkpt lat="45.37956" lon="4.7355">
        <ele>337.08</ele>
        <time>2016-03-26T08:42:20Z</time>
      </trkpt>
      <trkpt lat="45.37935" lon="4.73562">
        <ele>338.52</ele>
        <time>2016-03-26T08:42:38Z</time>
      </trkpt>
      <trkpt lat="45.37916" lon="4.73573">
        <ele>339</ele>
        <time>2016-03-26T08:42:55Z</time>
      </trkpt>
      <trkpt lat="45.37894" lon="4.73584">
        <ele>342.37</ele>
        <time>2016-03-26T08:43:14Z</time>
      </trkpt>
      <trkpt lat="45.37873" lon="4.73594">
        <ele>344.77</ele>
        <time>2016-03-26T08:43:32Z</time>
      </trkpt>
      <trkpt lat="45.37864" lon="4.73599">
        <ele>345.73</ele>
        <time>2016-03-26T08:43:47Z</time>
      </trkpt>
      <trkpt lat="45.37863" lon="4.736">
        <ele>344.77</ele>
        <time>2016-03-26T08:44:03Z</time>
      </trkpt>
      <trkpt lat="45.37862" lon="4.736">
        <ele>343.33</ele>
        <time>2016-03-26T08:44:22Z</time>
      </trkpt>
      <trkpt lat="45.37862" lon="4.73601">
        <ele>343.33</ele>
        <time>2016-03-26T08:44:40Z</time>
      </trkpt>
      <trkpt lat="45.37859" lon="4.73603">
        <ele>342.85</ele>
        <time>2016-03-26T08:44:51Z</time>
      </trkpt>
      <trkpt lat="45.37859" lon="4.73604">
        <ele>342.37</ele>
        <time>2016-03-26T08:45:11Z</time>
      </trkpt>
      <trkpt lat="45.37856" lon="4.73608">
        <ele>343.81</ele>
        <time>2016-03-26T08:45:23Z</time>
      </trkpt>
      <trkpt lat="45.37849" lon="4.73616">
        <ele>345.25</ele>
        <time>2016-03-26T08:45:36Z</time>
      </trkpt>
      <trkpt lat="45.37848" lon="4.73626">
        <ele>344.77</ele>
        <time>2016-03-26T08:45:50Z</time>
      </trkpt>
      <trkpt lat="45.37844" lon="4.73632">
        <ele>346.21</ele>
        <time>2016-03-26T08:45:56Z</time>
      </trkpt>
      <trkpt lat="45.37839" lon="4.73641">
        <ele>348.62</ele>
        <time>2016-03-26T08:46:04Z</time>
      </trkpt>
      <trkpt lat="45.37838" lon="4.73646">
        <ele>349.58</ele>
        <time>2016-03-26T08:46:07Z</time>
      </trkpt>
      <trkpt lat="45.37827" lon="4.73669">
        <ele>351.5</ele>
        <time>2016-03-26T08:46:23Z</time>
      </trkpt>
      <trkpt lat="45.37816" lon="4.73682">
        <ele>354.86</ele>
        <time>2016-03-26T08:46:34Z</time>
      </trkpt>
      <trkpt lat="45.37796" lon="4.73703">
        <ele>356.31</ele>
        <time>2016-03-26T08:46:52Z</time>
      </trkpt>
      <trkpt lat="45.37774" lon="4.73723">
        <ele>351.98</ele>
        <time>2016-03-26T08:47:10Z</time>
      </trkpt>
      <trkpt lat="45.37756" lon="4.73751">
        <ele>348.62</ele>
        <time>2016-03-26T08:47:28Z</time>
      </trkpt>
      <trkpt lat="45.37734" lon="4.73762">
        <ele>346.21</ele>
        <time>2016-03-26T08:47:46Z</time>
      </trkpt>
      <trkpt lat="45.37724" lon="4.73768">
        <ele>344.77</ele>
        <time>2016-03-26T08:48:01Z</time>
      </trkpt>
      <trkpt lat="45.37722" lon="4.73769">
        <ele>344.29</ele>
        <time>2016-03-26T08:48:11Z</time>
      </trkpt>
      <trkpt lat="45.37723" lon="4.73769">
        <ele>343.81</ele>
        <time>2016-03-26T08:48:24Z</time>
      </trkpt>
      <trkpt lat="45.37723" lon="4.73769">
        <ele>343.33</ele>
        <time>2016-03-26T08:48:39Z</time>
      </trkpt>
      <trkpt lat="45.37723" lon="4.73769">
        <ele>342.85</ele>
        <time>2016-03-26T08:48:50Z</time>
      </trkpt>
      <trkpt lat="45.37724" lon="4.73768">
        <ele>342.85</ele>
        <time>2016-03-26T08:49:08Z</time>
      </trkpt>
      <trkpt lat="45.37723" lon="4.73769">
        <ele>343.33</ele>
        <time>2016-03-26T08:49:25Z</time>
      </trkpt>
      <trkpt lat="45.37721" lon="4.73767">
        <ele>343.81</ele>
        <time>2016-03-26T08:49:47Z</time>
      </trkpt>
      <trkpt lat="45.37719" lon="4.73763">
        <ele>343.33</ele>
        <time>2016-03-26T08:50:02Z</time>
      </trkpt>
      <trkpt lat="45.3772" lon="4.73761">
        <ele>343.33</ele>
        <time>2016-03-26T08:50:03Z</time>
      </trkpt>
      <trkpt lat="45.37709" lon="4.73733">
        <ele>345.73</ele>
        <time>2016-03-26T08:50:22Z</time>
      </trkpt>
      <trkpt lat="45.37699" lon="4.73718">
        <ele>345.73</ele>
        <time>2016-03-26T08:50:36Z</time>
      </trkpt>
      <trkpt lat="45.37691" lon="4.73686">
        <ele>347.65</ele>
        <time>2016-03-26T08:50:55Z</time>
      </trkpt>
      <trkpt lat="45.37694" lon="4.73653">
        <ele>349.58</ele>
        <time>2016-03-26T08:51:13Z</time>
      </trkpt>
      <trkpt lat="45.37702" lon="4.73627">
        <ele>350.54</ele>
        <time>2016-03-26T08:51:30Z</time>
      </trkpt>
      <trkpt lat="45.37703" lon="4.73622">
        <ele>351.02</ele>
        <time>2016-03-26T08:51:33Z</time>
      </trkpt>
      <trkpt lat="45.37699" lon="4.73594">
        <ele>351.98</ele>
        <time>2016-03-26T08:51:49Z</time>
      </trkpt>
      <trkpt lat="45.37677" lon="4.73577">
        <ele>352.94</ele>
        <time>2016-03-26T08:52:08Z</time>
      </trkpt>
      <trkpt lat="45.37668" lon="4.73547">
        <ele>354.38</ele>
        <time>2016-03-26T08:52:26Z</time>
      </trkpt>
      <trkpt lat="45.37664" lon="4.73511">
        <ele>355.34</ele>
        <time>2016-03-26T08:52:45Z</time>
      </trkpt>
      <trkpt lat="45.37652" lon="4.73479">
        <ele>355.34</ele>
        <time>2016-03-26T08:53:03Z</time>
      </trkpt>
      <trkpt lat="45.37643" lon="4.73449">
        <ele>355.34</ele>
        <time>2016-03-26T08:53:20Z</time>
      </trkpt>
      <trkpt lat="45.37639" lon="4.73423">
        <ele>356.31</ele>
        <time>2016-03-26T08:53:33Z</time>
      </trkpt>
      <trkpt lat="45.37634" lon="4.73404">
        <ele>356.31</ele>
        <time>2016-03-26T08:53:43Z</time>
      </trkpt>
      <trkpt lat="45.37625" lon="4.73372">
        <ele>357.75</ele>
        <time>2016-03-26T08:54:00Z</time>
      </trkpt>
      <trkpt lat="45.37612" lon="4.73339">
        <ele>357.75</ele>
        <time>2016-03-26T08:54:19Z</time>
      </trkpt>
      <trkpt lat="45.37603" lon="4.7332">
        <ele>358.71</ele>
        <time>2016-03-26T08:54:32Z</time>
      </trkpt>
      <trkpt lat="45.37583" lon="4.7329">
        <ele>359.19</ele>
        <time>2016-03-26T08:54:52Z</time>
      </trkpt>
      <trkpt lat="45.37565" lon="4.73261">
        <ele>358.23</ele>
        <time>2016-03-26T08:55:11Z</time>
      </trkpt>
      <trkpt lat="45.37548" lon="4.73224">
        <ele>358.71</ele>
        <time>2016-03-26T08:55:33Z</time>
      </trkpt>
      <trkpt lat="45.37537" lon="4.73198">
        <ele>359.67</ele>
        <time>2016-03-26T08:55:49Z</time>
      </trkpt>
      <trkpt lat="45.37524" lon="4.73168">
        <ele>360.63</ele>
        <time>2016-03-26T08:56:07Z</time>
      </trkpt>
      <trkpt lat="45.37508" lon="4.73132">
        <ele>362.07</ele>
        <time>2016-03-26T08:56:27Z</time>
      </trkpt>
      <trkpt lat="45.37502" lon="4.73093">
        <ele>363.04</ele>
        <time>2016-03-26T08:56:47Z</time>
      </trkpt>
      <trkpt lat="45.37498" lon="4.73057">
        <ele>365.92</ele>
        <time>2016-03-26T08:57:05Z</time>
      </trkpt>
      <trkpt lat="45.37494" lon="4.73024">
        <ele>367.84</ele>
        <time>2016-03-26T08:57:21Z</time>
      </trkpt>
      <trkpt lat="45.37493" lon="4.73016">
        <ele>368.32</ele>
        <time>2016-03-26T08:57:25Z</time>
      </trkpt>
      <trkpt lat="45.37476" lon="4.73">
        <ele>368.8</ele>
        <time>2016-03-26T08:57:41Z</time>
      </trkpt>
      <trkpt lat="45.37461" lon="4.72995">
        <ele>369.28</ele>
        <time>2016-03-26T08:57:52Z</time>
      </trkpt>
      <trkpt lat="45.37442" lon="4.72965">
        <ele>370.24</ele>
        <time>2016-03-26T08:58:13Z</time>
      </trkpt>
      <trkpt lat="45.37426" lon="4.72942">
        <ele>372.65</ele>
        <time>2016-03-26T08:58:30Z</time>
      </trkpt>
      <trkpt lat="45.37412" lon="4.72924">
        <ele>375.53</ele>
        <time>2016-03-26T08:58:46Z</time>
      </trkpt>
      <trkpt lat="45.37398" lon="4.72905">
        <ele>377.94</ele>
        <time>2016-03-26T08:59:03Z</time>
      </trkpt>
      <trkpt lat="45.37377" lon="4.72883">
        <ele>379.38</ele>
        <time>2016-03-26T08:59:22Z</time>
      </trkpt>
      <trkpt lat="45.37352" lon="4.72856">
        <ele>379.38</ele>
        <time>2016-03-26T08:59:44Z</time>
      </trkpt>
      <trkpt lat="45.37331" lon="4.72828">
        <ele>379.38</ele>
        <time>2016-03-26T09:00:06Z</time>
      </trkpt>
      <trkpt lat="45.37322" lon="4.72797">
        <ele>382.26</ele>
        <time>2016-03-26T09:00:24Z</time>
      </trkpt>
      <trkpt lat="45.37319" lon="4.72785">
        <ele>383.22</ele>
        <time>2016-03-26T09:00:30Z</time>
      </trkpt>
      <trkpt lat="45.37317" lon="4.72776">
        <ele>384.18</ele>
        <time>2016-03-26T09:00:35Z</time>
      </trkpt>
      <trkpt lat="45.37312" lon="4.72744">
        <ele>387.55</ele>
        <time>2016-03-26T09:00:53Z</time>
      </trkpt>
      <trkpt lat="45.37304" lon="4.72718">
        <ele>389.95</ele>
        <time>2016-03-26T09:01:08Z</time>
      </trkpt>
      <trkpt lat="45.37303" lon="4.72716">
        <ele>389.95</ele>
        <time>2016-03-26T09:01:09Z</time>
      </trkpt>
      <trkpt lat="45.37298" lon="4.72697">
        <ele>391.87</ele>
        <time>2016-03-26T09:01:20Z</time>
      </trkpt>
      <trkpt lat="45.3729" lon="4.72665">
        <ele>396.68</ele>
        <time>2016-03-26T09:01:38Z</time>
      </trkpt>
      <trkpt lat="45.37287" lon="4.72657">
        <ele>397.16</ele>
        <time>2016-03-26T09:01:43Z</time>
      </trkpt>
      <trkpt lat="45.37276" lon="4.72621">
        <ele>400.05</ele>
        <time>2016-03-26T09:02:02Z</time>
      </trkpt>
      <trkpt lat="45.37271" lon="4.72604">
        <ele>400.05</ele>
        <time>2016-03-26T09:02:17Z</time>
      </trkpt>
      <trkpt lat="45.37269" lon="4.72603">
        <ele>399.08</ele>
        <time>2016-03-26T09:02:24Z</time>
      </trkpt>
      <trkpt lat="45.37263" lon="4.72577">
        <ele>400.05</ele>
        <time>2016-03-26T09:02:39Z</time>
      </trkpt>
      <trkpt lat="45.37249" lon="4.7254">
        <ele>401.97</ele>
        <time>2016-03-26T09:02:59Z</time>
      </trkpt>
      <trkpt lat="45.37236" lon="4.72505">
        <ele>403.89</ele>
        <time>2016-03-26T09:03:18Z</time>
      </trkpt>
      <trkpt lat="45.37221" lon="4.72466">
        <ele>406.29</ele>
        <time>2016-03-26T09:03:39Z</time>
      </trkpt>
      <trkpt lat="45.37205" lon="4.72429">
        <ele>407.26</ele>
        <time>2016-03-26T09:04:00Z</time>
      </trkpt>
      <trkpt lat="45.37191" lon="4.72401">
        <ele>411.1</ele>
        <time>2016-03-26T09:04:18Z</time>
      </trkpt>
      <trkpt lat="45.37181" lon="4.72378">
        <ele>415.91</ele>
        <time>2016-03-26T09:04:33Z</time>
      </trkpt>
      <trkpt lat="45.37178" lon="4.7237">
        <ele>416.87</ele>
        <time>2016-03-26T09:04:38Z</time>
      </trkpt>
      <trkpt lat="45.37177" lon="4.72364">
        <ele>418.31</ele>
        <time>2016-03-26T09:04:43Z</time>
      </trkpt>
      <trkpt lat="45.37165" lon="4.72339">
        <ele>420.71</ele>
        <time>2016-03-26T09:04:58Z</time>
      </trkpt>
      <trkpt lat="45.37156" lon="4.72312">
        <ele>420.71</ele>
        <time>2016-03-26T09:05:13Z</time>
      </trkpt>
      <trkpt lat="45.37147" lon="4.72283">
        <ele>423.6</ele>
        <time>2016-03-26T09:05:28Z</time>
      </trkpt>
      <trkpt lat="45.37142" lon="4.72262">
        <ele>424.08</ele>
        <time>2016-03-26T09:05:39Z</time>
      </trkpt>
      <trkpt lat="45.3713" lon="4.72234">
        <ele>425.52</ele>
        <time>2016-03-26T09:05:54Z</time>
      </trkpt>
      <trkpt lat="45.37114" lon="4.72213">
        <ele>424.56</ele>
        <time>2016-03-26T09:06:08Z</time>
      </trkpt>
      <trkpt lat="45.37099" lon="4.72196">
        <ele>425.04</ele>
        <time>2016-03-26T09:06:21Z</time>
      </trkpt>
      <trkpt lat="45.3707" lon="4.72172">
        <ele>416.87</ele>
        <time>2016-03-26T09:06:40Z</time>
      </trkpt>
      <trkpt lat="45.37046" lon="4.72158">
        <ele>411.58</ele>
        <time>2016-03-26T09:06:57Z</time>
      </trkpt>
      <trkpt lat="45.3702" lon="4.72154">
        <ele>408.22</ele>
        <time>2016-03-26T09:07:14Z</time>
      </trkpt>
      <trkpt lat="45.36996" lon="4.72146">
        <ele>406.29</ele>
        <time>2016-03-26T09:07:31Z</time>
      </trkpt>
      <trkpt lat="45.3698" lon="4.72132">
        <ele>406.77</ele>
        <time>2016-03-26T09:07:46Z</time>
      </trkpt>
      <trkpt lat="45.36969" lon="4.7212">
        <ele>408.22</ele>
        <time>2016-03-26T09:07:58Z</time>
      </trkpt>
      <trkpt lat="45.36956" lon="4.72106">
        <ele>410.14</ele>
        <time>2016-03-26T09:08:11Z</time>
      </trkpt>
      <trkpt lat="45.36946" lon="4.72094">
        <ele>410.62</ele>
        <time>2016-03-26T09:08:21Z</time>
      </trkpt>
      <trkpt lat="45.36932" lon="4.72078">
        <ele>412.06</ele>
        <time>2016-03-26T09:08:33Z</time>
      </trkpt>
      <trkpt lat="45.36931" lon="4.72076">
        <ele>412.54</ele>
        <time>2016-03-26T09:08:34Z</time>
      </trkpt>
      <trkpt lat="45.36915" lon="4.72052">
        <ele>415.43</ele>
        <time>2016-03-26T09:08:49Z</time>
      </trkpt>
      <trkpt lat="45.369" lon="4.7203">
        <ele>416.87</ele>
        <time>2016-03-26T09:09:02Z</time>
      </trkpt>
      <trkpt lat="45.36877" lon="4.72001">
        <ele>415.43</ele>
        <time>2016-03-26T09:09:20Z</time>
      </trkpt>
      <trkpt lat="45.36851" lon="4.71972">
        <ele>414.95</ele>
        <time>2016-03-26T09:09:41Z</time>
      </trkpt>
      <trkpt lat="45.3684" lon="4.71958">
        <ele>414.47</ele>
        <time>2016-03-26T09:09:51Z</time>
      </trkpt>
      <trkpt lat="45.36817" lon="4.7193">
        <ele>415.91</ele>
        <time>2016-03-26T09:10:11Z</time>
      </trkpt>
      <trkpt lat="45.36792" lon="4.71906">
        <ele>415.91</ele>
        <time>2016-03-26T09:10:31Z</time>
      </trkpt>
      <trkpt lat="45.36767" lon="4.71883">
        <ele>415.43</ele>
        <time>2016-03-26T09:10:51Z</time>
      </trkpt>
      <trkpt lat="45.36745" lon="4.71854">
        <ele>413.02</ele>
        <time>2016-03-26T09:11:12Z</time>
      </trkpt>
      <trkpt lat="45.36726" lon="4.71822">
        <ele>409.18</ele>
        <time>2016-03-26T09:11:32Z</time>
      </trkpt>
      <trkpt lat="45.36705" lon="4.7179">
        <ele>407.26</ele>
        <time>2016-03-26T09:11:53Z</time>
      </trkpt>
      <trkpt lat="45.36684" lon="4.71758">
        <ele>406.29</ele>
        <time>2016-03-26T09:12:14Z</time>
      </trkpt>
      <trkpt lat="45.36661" lon="4.71723">
        <ele>404.85</ele>
        <time>2016-03-26T09:12:36Z</time>
      </trkpt>
      <trkpt lat="45.36641" lon="4.71692">
        <ele>404.37</ele>
        <time>2016-03-26T09:12:56Z</time>
      </trkpt>
      <trkpt lat="45.36619" lon="4.71659">
        <ele>403.89</ele>
        <time>2016-03-26T09:13:18Z</time>
      </trkpt>
      <trkpt lat="45.36603" lon="4.71635">
        <ele>405.81</ele>
        <time>2016-03-26T09:13:34Z</time>
      </trkpt>
      <trkpt lat="45.36584" lon="4.71611">
        <ele>405.81</ele>
        <time>2016-03-26T09:13:52Z</time>
      </trkpt>
      <trkpt lat="45.36564" lon="4.71583">
        <ele>405.81</ele>
        <time>2016-03-26T09:14:11Z</time>
      </trkpt>
      <trkpt lat="45.36553" lon="4.7157">
        <ele>405.81</ele>
        <time>2016-03-26T09:14:24Z</time>
      </trkpt>
      <trkpt lat="45.36562" lon="4.71586">
        <ele>404.85</ele>
        <time>2016-03-26T09:14:35Z</time>
      </trkpt>
      <trkpt lat="45.36557" lon="4.71593">
        <ele>405.33</ele>
        <time>2016-03-26T09:14:41Z</time>
      </trkpt>
      <trkpt lat="45.36542" lon="4.71586">
        <ele>406.29</ele>
        <time>2016-03-26T09:14:54Z</time>
      </trkpt>
      <trkpt lat="45.3653" lon="4.71581">
        <ele>405.81</ele>
        <time>2016-03-26T09:15:10Z</time>
      </trkpt>
      <trkpt lat="45.3652" lon="4.71572">
        <ele>404.85</ele>
        <time>2016-03-26T09:15:22Z</time>
      </trkpt>
      <trkpt lat="45.36495" lon="4.7155">
        <ele>403.89</ele>
        <time>2016-03-26T09:15:43Z</time>
      </trkpt>
      <trkpt lat="45.36473" lon="4.71532">
        <ele>402.45</ele>
        <time>2016-03-26T09:16:01Z</time>
      </trkpt>
      <trkpt lat="45.36447" lon="4.7151">
        <ele>401.97</ele>
        <time>2016-03-26T09:16:22Z</time>
      </trkpt>
      <trkpt lat="45.36425" lon="4.71491">
        <ele>401.49</ele>
        <time>2016-03-26T09:16:39Z</time>
      </trkpt>
      <trkpt lat="45.36399" lon="4.71466">
        <ele>400.05</ele>
        <time>2016-03-26T09:17:00Z</time>
      </trkpt>
      <trkpt lat="45.36383" lon="4.71442">
        <ele>400.05</ele>
        <time>2016-03-26T09:17:16Z</time>
      </trkpt>
      <trkpt lat="45.36366" lon="4.71417">
        <ele>399.57</ele>
        <time>2016-03-26T09:17:33Z</time>
      </trkpt>
      <trkpt lat="45.36341" lon="4.71391">
        <ele>399.08</ele>
        <time>2016-03-26T09:17:53Z</time>
      </trkpt>
      <trkpt lat="45.36316" lon="4.71366">
        <ele>400.05</ele>
        <time>2016-03-26T09:18:14Z</time>
      </trkpt>
      <trkpt lat="45.36294" lon="4.71341">
        <ele>400.53</ele>
        <time>2016-03-26T09:18:33Z</time>
      </trkpt>
      <trkpt lat="45.36267" lon="4.71314">
        <ele>399.57</ele>
        <time>2016-03-26T09:18:54Z</time>
      </trkpt>
      <trkpt lat="45.36247" lon="4.71291">
        <ele>399.08</ele>
        <time>2016-03-26T09:19:12Z</time>
      </trkpt>
      <trkpt lat="45.36225" lon="4.7127">
        <ele>397.16</ele>
        <time>2016-03-26T09:19:29Z</time>
      </trkpt>
      <trkpt lat="45.36197" lon="4.71244">
        <ele>397.16</ele>
        <time>2016-03-26T09:19:51Z</time>
      </trkpt>
      <trkpt lat="45.36176" lon="4.71224">
        <ele>398.12</ele>
        <time>2016-03-26T09:20:08Z</time>
      </trkpt>
      <trkpt lat="45.36147" lon="4.71202">
        <ele>397.16</ele>
        <time>2016-03-26T09:20:29Z</time>
      </trkpt>
      <trkpt lat="45.36127" lon="4.71189">
        <ele>396.68</ele>
        <time>2016-03-26T09:20:45Z</time>
      </trkpt>
      <trkpt lat="45.36123" lon="4.71189">
        <ele>396.68</ele>
        <time>2016-03-26T09:20:49Z</time>
      </trkpt>
      <trkpt lat="45.36116" lon="4.71184">
        <ele>395.72</ele>
        <time>2016-03-26T09:21:03Z</time>
      </trkpt>
      <trkpt lat="45.36114" lon="4.71182">
        <ele>395.72</ele>
        <time>2016-03-26T09:21:06Z</time>
      </trkpt>
      <trkpt lat="45.361" lon="4.71171">
        <ele>397.16</ele>
        <time>2016-03-26T09:21:20Z</time>
      </trkpt>
      <trkpt lat="45.36079" lon="4.71154">
        <ele>398.12</ele>
        <time>2016-03-26T09:21:37Z</time>
      </trkpt>
      <trkpt lat="45.36056" lon="4.71135">
        <ele>399.08</ele>
        <time>2016-03-26T09:21:55Z</time>
      </trkpt>
      <trkpt lat="45.36032" lon="4.71114">
        <ele>401.97</ele>
        <time>2016-03-26T09:22:15Z</time>
      </trkpt>
      <trkpt lat="45.36012" lon="4.71095">
        <ele>402.93</ele>
        <time>2016-03-26T09:22:32Z</time>
      </trkpt>
      <trkpt lat="45.35988" lon="4.71074">
        <ele>405.81</ele>
        <time>2016-03-26T09:22:52Z</time>
      </trkpt>
      <trkpt lat="45.35968" lon="4.71055">
        <ele>406.77</ele>
        <time>2016-03-26T09:23:09Z</time>
      </trkpt>
      <trkpt lat="45.35948" lon="4.71031">
        <ele>407.26</ele>
        <time>2016-03-26T09:23:29Z</time>
      </trkpt>
      <trkpt lat="45.3593" lon="4.71011">
        <ele>407.26</ele>
        <time>2016-03-26T09:23:44Z</time>
      </trkpt>
      <trkpt lat="45.3591" lon="4.70983">
        <ele>406.77</ele>
        <time>2016-03-26T09:24:04Z</time>
      </trkpt>
      <trkpt lat="45.35895" lon="4.70953">
        <ele>405.81</ele>
        <time>2016-03-26T09:24:22Z</time>
      </trkpt>
      <trkpt lat="45.3587" lon="4.70929">
        <ele>403.89</ele>
        <time>2016-03-26T09:24:41Z</time>
      </trkpt>
      <trkpt lat="45.35843" lon="4.70903">
        <ele>402.93</ele>
        <time>2016-03-26T09:25:02Z</time>
      </trkpt>
      <trkpt lat="45.35828" lon="4.70892">
        <ele>402.93</ele>
        <time>2016-03-26T09:25:14Z</time>
      </trkpt>
      <trkpt lat="45.3582" lon="4.70888">
        <ele>401.97</ele>
        <time>2016-03-26T09:25:20Z</time>
      </trkpt>
      <trkpt lat="45.35817" lon="4.70883">
        <ele>402.45</ele>
        <time>2016-03-26T09:25:24Z</time>
      </trkpt>
      <trkpt lat="45.35795" lon="4.70861">
        <ele>402.45</ele>
        <time>2016-03-26T09:25:42Z</time>
      </trkpt>
      <trkpt lat="45.35778" lon="4.7084">
        <ele>400.05</ele>
        <time>2016-03-26T09:25:57Z</time>
      </trkpt>
      <trkpt lat="45.35758" lon="4.70815">
        <ele>400.05</ele>
        <time>2016-03-26T09:26:14Z</time>
      </trkpt>
      <trkpt lat="45.35734" lon="4.70789">
        <ele>397.64</ele>
        <time>2016-03-26T09:26:33Z</time>
      </trkpt>
      <trkpt lat="45.35714" lon="4.70764">
        <ele>395.72</ele>
        <time>2016-03-26T09:26:51Z</time>
      </trkpt>
      <trkpt lat="45.35692" lon="4.70739">
        <ele>394.76</ele>
        <time>2016-03-26T09:27:09Z</time>
      </trkpt>
      <trkpt lat="45.35673" lon="4.70713">
        <ele>393.8</ele>
        <time>2016-03-26T09:27:26Z</time>
      </trkpt>
      <trkpt lat="45.35653" lon="4.70676">
        <ele>391.87</ele>
        <time>2016-03-26T09:27:48Z</time>
      </trkpt>
      <trkpt lat="45.35652" lon="4.70665">
        <ele>391.87</ele>
        <time>2016-03-26T09:27:57Z</time>
      </trkpt>
      <trkpt lat="45.35651" lon="4.70655">
        <ele>392.84</ele>
        <time>2016-03-26T09:28:03Z</time>
      </trkpt>
      <trkpt lat="45.3564" lon="4.7062">
        <ele>394.28</ele>
        <time>2016-03-26T09:28:22Z</time>
      </trkpt>
      <trkpt lat="45.35626" lon="4.70588">
        <ele>395.24</ele>
        <time>2016-03-26T09:28:39Z</time>
      </trkpt>
      <trkpt lat="45.35605" lon="4.70556">
        <ele>397.64</ele>
        <time>2016-03-26T09:28:59Z</time>
      </trkpt>
      <trkpt lat="45.35589" lon="4.7052">
        <ele>396.68</ele>
        <time>2016-03-26T09:29:19Z</time>
      </trkpt>
      <trkpt lat="45.35569" lon="4.70491">
        <ele>397.64</ele>
        <time>2016-03-26T09:29:38Z</time>
      </trkpt>
      <trkpt lat="45.35547" lon="4.70466">
        <ele>398.12</ele>
        <time>2016-03-26T09:29:56Z</time>
      </trkpt>
      <trkpt lat="45.35531" lon="4.70444">
        <ele>396.68</ele>
        <time>2016-03-26T09:30:11Z</time>
      </trkpt>
      <trkpt lat="45.35514" lon="4.70416">
        <ele>397.16</ele>
        <time>2016-03-26T09:30:28Z</time>
      </trkpt>
      <trkpt lat="45.355" lon="4.70392">
        <ele>396.2</ele>
        <time>2016-03-26T09:30:43Z</time>
      </trkpt>
      <trkpt lat="45.35484" lon="4.70358">
        <ele>395.24</ele>
        <time>2016-03-26T09:31:02Z</time>
      </trkpt>
      <trkpt lat="45.35478" lon="4.70344">
        <ele>393.8</ele>
        <time>2016-03-26T09:31:10Z</time>
      </trkpt>
      <trkpt lat="45.35476" lon="4.70319">
        <ele>394.76</ele>
        <time>2016-03-26T09:31:23Z</time>
      </trkpt>
      <trkpt lat="45.35478" lon="4.70298">
        <ele>395.24</ele>
        <time>2016-03-26T09:31:37Z</time>
      </trkpt>
      <trkpt lat="45.35476" lon="4.70294">
        <ele>395.72</ele>
        <time>2016-03-26T09:31:48Z</time>
      </trkpt>
      <trkpt lat="45.35476" lon="4.70292">
        <ele>395.72</ele>
        <time>2016-03-26T09:32:00Z</time>
      </trkpt>
      <trkpt lat="45.35472" lon="4.70289">
        <ele>395.24</ele>
        <time>2016-03-26T09:32:14Z</time>
      </trkpt>
      <trkpt lat="45.35473" lon="4.70286">
        <ele>395.24</ele>
        <time>2016-03-26T09:32:31Z</time>
      </trkpt>
      <trkpt lat="45.35472" lon="4.70286">
        <ele>395.72</ele>
        <time>2016-03-26T09:32:45Z</time>
      </trkpt>
      <trkpt lat="45.35473" lon="4.70283">
        <ele>395.72</ele>
        <time>2016-03-26T09:33:05Z</time>
      </trkpt>
      <trkpt lat="45.35473" lon="4.70283">
        <ele>396.2</ele>
        <time>2016-03-26T09:33:21Z</time>
      </trkpt>
      <trkpt lat="45.35473" lon="4.70283">
        <ele>395.24</ele>
        <time>2016-03-26T09:33:37Z</time>
      </trkpt>
      <trkpt lat="45.35472" lon="4.70281">
        <ele>395.72</ele>
        <time>2016-03-26T09:33:48Z</time>
      </trkpt>
      <trkpt lat="45.35471" lon="4.70279">
        <ele>395.24</ele>
        <time>2016-03-26T09:33:56Z</time>
      </trkpt>
      <trkpt lat="45.35462" lon="4.70253">
        <ele>395.72</ele>
        <time>2016-03-26T09:34:15Z</time>
      </trkpt>
      <trkpt lat="45.35447" lon="4.70221">
        <ele>398.12</ele>
        <time>2016-03-26T09:34:35Z</time>
      </trkpt>
      <trkpt lat="45.35431" lon="4.70189">
        <ele>401.97</ele>
        <time>2016-03-26T09:34:56Z</time>
      </trkpt>
      <trkpt lat="45.35414" lon="4.70157">
        <ele>402.93</ele>
        <time>2016-03-26T09:35:17Z</time>
      </trkpt>
      <trkpt lat="45.35404" lon="4.70127">
        <ele>403.41</ele>
        <time>2016-03-26T09:35:35Z</time>
      </trkpt>
      <trkpt lat="45.35394" lon="4.70094">
        <ele>403.89</ele>
        <time>2016-03-26T09:35:53Z</time>
      </trkpt>
      <trkpt lat="45.35386" lon="4.70063">
        <ele>405.33</ele>
        <time>2016-03-26T09:36:10Z</time>
      </trkpt>
      <trkpt lat="45.35386" lon="4.70023">
        <ele>406.77</ele>
        <time>2016-03-26T09:36:30Z</time>
      </trkpt>
      <trkpt lat="45.35389" lon="4.69982">
        <ele>409.66</ele>
        <time>2016-03-26T09:36:51Z</time>
      </trkpt>
      <trkpt lat="45.35391" lon="4.69944">
        <ele>409.66</ele>
        <time>2016-03-26T09:37:10Z</time>
      </trkpt>
      <trkpt lat="45.35387" lon="4.69913">
        <ele>408.7</ele>
        <time>2016-03-26T09:37:26Z</time>
      </trkpt>
      <trkpt lat="45.35382" lon="4.69877">
        <ele>407.26</ele>
        <time>2016-03-26T09:37:44Z</time>
      </trkpt>
      <trkpt lat="45.35374" lon="4.69838">
        <ele>405.81</ele>
        <time>2016-03-26T09:38:03Z</time>
      </trkpt>
      <trkpt lat="45.35371" lon="4.69798">
        <ele>405.81</ele>
        <time>2016-03-26T09:38:22Z</time>
      </trkpt>
      <trkpt lat="45.3537" lon="4.69752">
        <ele>401.97</ele>
        <time>2016-03-26T09:38:43Z</time>
      </trkpt>
      <trkpt lat="45.35367" lon="4.69703">
        <ele>400.05</ele>
        <time>2016-03-26T09:39:06Z</time>
      </trkpt>
      <trkpt lat="45.35375" lon="4.69666">
        <ele>401.01</ele>
        <time>2016-03-26T09:39:25Z</time>
      </trkpt>
      <trkpt lat="45.35386" lon="4.69636">
        <ele>403.41</ele>
        <time>2016-03-26T09:39:42Z</time>
      </trkpt>
      <trkpt lat="45.35397" lon="4.69604">
        <ele>403.89</ele>
        <time>2016-03-26T09:39:59Z</time>
      </trkpt>
      <trkpt lat="45.35408" lon="4.69569">
        <ele>406.29</ele>
        <time>2016-03-26T09:40:18Z</time>
      </trkpt>
      <trkpt lat="45.35417" lon="4.69527">
        <ele>409.18</ele>
        <time>2016-03-26T09:40:40Z</time>
      </trkpt>
      <trkpt lat="45.35426" lon="4.69484">
        <ele>413.5</ele>
        <time>2016-03-26T09:41:02Z</time>
      </trkpt>
      <trkpt lat="45.35435" lon="4.69441">
        <ele>414.47</ele>
        <time>2016-03-26T09:41:23Z</time>
      </trkpt>
      <trkpt lat="45.3545" lon="4.69387">
        <ele>403.89</ele>
        <time>2016-03-26T09:41:44Z</time>
      </trkpt>
      <trkpt lat="45.3545" lon="4.69382">
        <ele>403.41</ele>
        <time>2016-03-26T09:41:46Z</time>
      </trkpt>
      <trkpt lat="45.3545" lon="4.69372">
        <ele>401.49</ele>
        <time>2016-03-26T09:41:51Z</time>
      </trkpt>
      <trkpt lat="45.3546" lon="4.69338">
        <ele>401.49</ele>
        <time>2016-03-26T09:42:09Z</time>
      </trkpt>
      <trkpt lat="45.35461" lon="4.69332">
        <ele>401.01</ele>
        <time>2016-03-26T09:42:15Z</time>
      </trkpt>
      <trkpt lat="45.35479" lon="4.69312">
        <ele>400.05</ele>
        <time>2016-03-26T09:42:32Z</time>
      </trkpt>
      <trkpt lat="45.35506" lon="4.69292">
        <ele>396.68</ele>
        <time>2016-03-26T09:42:53Z</time>
      </trkpt>
      <trkpt lat="45.35525" lon="4.69272">
        <ele>394.28</ele>
        <time>2016-03-26T09:43:10Z</time>
      </trkpt>
      <trkpt lat="45.35532" lon="4.6926">
        <ele>394.76</ele>
        <time>2016-03-26T09:43:18Z</time>
      </trkpt>
      <trkpt lat="45.3553" lon="4.69249">
        <ele>393.8</ele>
        <time>2016-03-26T09:43:25Z</time>
      </trkpt>
      <trkpt lat="45.35531" lon="4.69244">
        <ele>394.28</ele>
        <time>2016-03-26T09:43:29Z</time>
      </trkpt>
      <trkpt lat="45.35531" lon="4.69212">
        <ele>394.28</ele>
        <time>2016-03-26T09:43:46Z</time>
      </trkpt>
      <trkpt lat="45.35529" lon="4.6918">
        <ele>394.28</ele>
        <time>2016-03-26T09:44:02Z</time>
      </trkpt>
      <trkpt lat="45.35524" lon="4.69148">
        <ele>394.76</ele>
        <time>2016-03-26T09:44:19Z</time>
      </trkpt>
      <trkpt lat="45.35516" lon="4.6911">
        <ele>396.2</ele>
        <time>2016-03-26T09:44:39Z</time>
      </trkpt>
      <trkpt lat="45.3551" lon="4.69067">
        <ele>397.64</ele>
        <time>2016-03-26T09:45:00Z</time>
      </trkpt>
      <trkpt lat="45.35507" lon="4.69029">
        <ele>398.12</ele>
        <time>2016-03-26T09:45:18Z</time>
      </trkpt>
      <trkpt lat="45.35503" lon="4.6898">
        <ele>397.64</ele>
        <time>2016-03-26T09:45:42Z</time>
      </trkpt>
      <trkpt lat="45.35499" lon="4.68938">
        <ele>399.08</ele>
        <time>2016-03-26T09:46:02Z</time>
      </trkpt>
      <trkpt lat="45.35495" lon="4.68895">
        <ele>399.57</ele>
        <time>2016-03-26T09:46:23Z</time>
      </trkpt>
      <trkpt lat="45.35499" lon="4.68871">
        <ele>400.05</ele>
        <time>2016-03-26T09:46:36Z</time>
      </trkpt>
      <trkpt lat="45.35498" lon="4.68867">
        <ele>400.53</ele>
        <time>2016-03-26T09:46:39Z</time>
      </trkpt>
      <trkpt lat="45.35505" lon="4.68829">
        <ele>402.93</ele>
        <time>2016-03-26T09:46:59Z</time>
      </trkpt>
      <trkpt lat="45.35514" lon="4.68777">
        <ele>401.49</ele>
        <time>2016-03-26T09:47:24Z</time>
      </trkpt>
      <trkpt lat="45.3552" lon="4.68738">
        <ele>402.45</ele>
        <time>2016-03-26T09:47:44Z</time>
      </trkpt>
      <trkpt lat="45.35529" lon="4.68701">
        <ele>404.37</ele>
        <time>2016-03-26T09:48:03Z</time>
      </trkpt>
      <trkpt lat="45.35543" lon="4.68666">
        <ele>406.77</ele>
        <time>2016-03-26T09:48:23Z</time>
      </trkpt>
      <trkpt lat="45.35556" lon="4.68628">
        <ele>406.29</ele>
        <time>2016-03-26T09:48:43Z</time>
      </trkpt>
      <trkpt lat="45.35565" lon="4.68585">
        <ele>402.93</ele>
        <time>2016-03-26T09:49:03Z</time>
      </trkpt>
      <trkpt lat="45.35567" lon="4.68548">
        <ele>404.85</ele>
        <time>2016-03-26T09:49:23Z</time>
      </trkpt>
      <trkpt lat="45.35566" lon="4.68518">
        <ele>409.18</ele>
        <time>2016-03-26T09:49:40Z</time>
      </trkpt>
      <trkpt lat="45.35563" lon="4.68478">
        <ele>408.22</ele>
        <time>2016-03-26T09:49:58Z</time>
      </trkpt>
      <trkpt lat="45.35566" lon="4.68433">
        <ele>406.77</ele>
        <time>2016-03-26T09:50:19Z</time>
      </trkpt>
      <trkpt lat="45.35573" lon="4.68397">
        <ele>407.74</ele>
        <time>2016-03-26T09:50:37Z</time>
      </trkpt>
      <trkpt lat="45.35583" lon="4.68355">
        <ele>408.22</ele>
        <time>2016-03-26T09:50:58Z</time>
      </trkpt>
      <trkpt lat="45.35592" lon="4.68318">
        <ele>408.7</ele>
        <time>2016-03-26T09:51:17Z</time>
      </trkpt>
      <trkpt lat="45.35594" lon="4.68278">
        <ele>408.7</ele>
        <time>2016-03-26T09:51:40Z</time>
      </trkpt>
      <trkpt lat="45.35594" lon="4.68276">
        <ele>408.22</ele>
        <time>2016-03-26T09:51:52Z</time>
      </trkpt>
      <trkpt lat="45.35598" lon="4.68255">
        <ele>409.18</ele>
        <time>2016-03-26T09:52:06Z</time>
      </trkpt>
      <trkpt lat="45.3561" lon="4.68219">
        <ele>412.54</ele>
        <time>2016-03-26T09:52:26Z</time>
      </trkpt>
      <trkpt lat="45.35622" lon="4.68183">
        <ele>412.06</ele>
        <time>2016-03-26T09:52:44Z</time>
      </trkpt>
      <trkpt lat="45.35635" lon="4.68146">
        <ele>414.95</ele>
        <time>2016-03-26T09:53:05Z</time>
      </trkpt>
      <trkpt lat="45.35646" lon="4.68117">
        <ele>415.91</ele>
        <time>2016-03-26T09:53:21Z</time>
      </trkpt>
      <trkpt lat="45.35658" lon="4.68078">
        <ele>417.35</ele>
        <time>2016-03-26T09:53:42Z</time>
      </trkpt>
      <trkpt lat="45.35669" lon="4.68041">
        <ele>419.75</ele>
        <time>2016-03-26T09:54:02Z</time>
      </trkpt>
      <trkpt lat="45.35677" lon="4.68009">
        <ele>421.68</ele>
        <time>2016-03-26T09:54:20Z</time>
      </trkpt>
      <trkpt lat="45.35687" lon="4.6797">
        <ele>423.12</ele>
        <time>2016-03-26T09:54:40Z</time>
      </trkpt>
      <trkpt lat="45.35696" lon="4.67932">
        <ele>425.52</ele>
        <time>2016-03-26T09:55:00Z</time>
      </trkpt>
      <trkpt lat="45.35709" lon="4.679">
        <ele>429.37</ele>
        <time>2016-03-26T09:55:20Z</time>
      </trkpt>
      <trkpt lat="45.35725" lon="4.67867">
        <ele>432.25</ele>
        <time>2016-03-26T09:55:41Z</time>
      </trkpt>
      <trkpt lat="45.35738" lon="4.67834">
        <ele>435.13</ele>
        <time>2016-03-26T09:56:01Z</time>
      </trkpt>
      <trkpt lat="45.3575" lon="4.67798">
        <ele>432.73</ele>
        <time>2016-03-26T09:56:19Z</time>
      </trkpt>
      <trkpt lat="45.35761" lon="4.67765">
        <ele>434.17</ele>
        <time>2016-03-26T09:56:38Z</time>
      </trkpt>
      <trkpt lat="45.35773" lon="4.67728">
        <ele>436.1</ele>
        <time>2016-03-26T09:56:58Z</time>
      </trkpt>
      <trkpt lat="45.35779" lon="4.67706">
        <ele>436.1</ele>
        <time>2016-03-26T09:57:10Z</time>
      </trkpt>
      <trkpt lat="45.35779" lon="4.67702">
        <ele>434.65</ele>
        <time>2016-03-26T09:57:24Z</time>
      </trkpt>
      <trkpt lat="45.35779" lon="4.677">
        <ele>433.69</ele>
        <time>2016-03-26T09:57:39Z</time>
      </trkpt>
      <trkpt lat="45.35779" lon="4.67698">
        <ele>431.29</ele>
        <time>2016-03-26T09:58:02Z</time>
      </trkpt>
      <trkpt lat="45.3578" lon="4.67696">
        <ele>431.29</ele>
        <time>2016-03-26T09:58:16Z</time>
      </trkpt>
      <trkpt lat="45.3578" lon="4.67694">
        <ele>431.29</ele>
        <time>2016-03-26T09:58:37Z</time>
      </trkpt>
      <trkpt lat="45.3578" lon="4.67692">
        <ele>431.29</ele>
        <time>2016-03-26T09:58:57Z</time>
      </trkpt>
      <trkpt lat="45.35779" lon="4.67693">
        <ele>431.29</ele>
        <time>2016-03-26T09:59:18Z</time>
      </trkpt>
      <trkpt lat="45.35778" lon="4.67693">
        <ele>431.77</ele>
        <time>2016-03-26T09:59:32Z</time>
      </trkpt>
      <trkpt lat="45.35778" lon="4.67692">
        <ele>431.29</ele>
        <time>2016-03-26T09:59:47Z</time>
      </trkpt>
      <trkpt lat="45.35777" lon="4.67692">
        <ele>430.33</ele>
        <time>2016-03-26T10:00:11Z</time>
      </trkpt>
      <trkpt lat="45.35777" lon="4.67693">
        <ele>430.33</ele>
        <time>2016-03-26T10:00:27Z</time>
      </trkpt>
      <trkpt lat="45.35776" lon="4.67693">
        <ele>430.33</ele>
        <time>2016-03-26T10:00:44Z</time>
      </trkpt>
      <trkpt lat="45.35778" lon="4.6769">
        <ele>430.33</ele>
        <time>2016-03-26T10:00:55Z</time>
      </trkpt>
      <trkpt lat="45.35789" lon="4.67661">
        <ele>433.69</ele>
        <time>2016-03-26T10:01:15Z</time>
      </trkpt>
      <trkpt lat="45.35795" lon="4.67641">
        <ele>434.65</ele>
        <time>2016-03-26T10:01:27Z</time>
      </trkpt>
      <trkpt lat="45.35807" lon="4.67601">
        <ele>438.98</ele>
        <time>2016-03-26T10:01:51Z</time>
      </trkpt>
      <trkpt lat="45.35818" lon="4.67573">
        <ele>440.42</ele>
        <time>2016-03-26T10:02:08Z</time>
      </trkpt>
      <trkpt lat="45.35824" lon="4.67546">
        <ele>443.31</ele>
        <time>2016-03-26T10:02:24Z</time>
      </trkpt>
      <trkpt lat="45.35827" lon="4.67516">
        <ele>446.67</ele>
        <time>2016-03-26T10:02:41Z</time>
      </trkpt>
      <trkpt lat="45.35835" lon="4.67479">
        <ele>450.03</ele>
        <time>2016-03-26T10:03:02Z</time>
      </trkpt>
      <trkpt lat="45.35846" lon="4.67441">
        <ele>450.03</ele>
        <time>2016-03-26T10:03:23Z</time>
      </trkpt>
      <trkpt lat="45.35864" lon="4.67413">
        <ele>451.48</ele>
        <time>2016-03-26T10:03:43Z</time>
      </trkpt>
      <trkpt lat="45.35886" lon="4.67386">
        <ele>453.88</ele>
        <time>2016-03-26T10:04:06Z</time>
      </trkpt>
      <trkpt lat="45.3591" lon="4.67362">
        <ele>453.88</ele>
        <time>2016-03-26T10:04:28Z</time>
      </trkpt>
      <trkpt lat="45.35928" lon="4.6734">
        <ele>456.28</ele>
        <time>2016-03-26T10:04:47Z</time>
      </trkpt>
      <trkpt lat="45.35945" lon="4.67317">
        <ele>459.17</ele>
        <time>2016-03-26T10:05:05Z</time>
      </trkpt>
      <trkpt lat="45.35961" lon="4.67289">
        <ele>460.61</ele>
        <time>2016-03-26T10:05:23Z</time>
      </trkpt>
      <trkpt lat="45.35974" lon="4.67257">
        <ele>463.97</ele>
        <time>2016-03-26T10:05:43Z</time>
      </trkpt>
      <trkpt lat="45.35989" lon="4.67229">
        <ele>467.34</ele>
        <time>2016-03-26T10:06:02Z</time>
      </trkpt>
      <trkpt lat="45.36011" lon="4.67202">
        <ele>469.26</ele>
        <time>2016-03-26T10:06:22Z</time>
      </trkpt>
      <trkpt lat="45.36028" lon="4.67174">
        <ele>468.3</ele>
        <time>2016-03-26T10:06:41Z</time>
      </trkpt>
      <trkpt lat="45.36037" lon="4.67149">
        <ele>470.7</ele>
        <time>2016-03-26T10:06:58Z</time>
      </trkpt>
      <trkpt lat="45.36037" lon="4.67146">
        <ele>470.22</ele>
        <time>2016-03-26T10:07:00Z</time>
      </trkpt>
      <trkpt lat="45.36034" lon="4.67135">
        <ele>471.18</ele>
        <time>2016-03-26T10:07:09Z</time>
      </trkpt>
      <trkpt lat="45.36034" lon="4.6712">
        <ele>472.63</ele>
        <time>2016-03-26T10:07:18Z</time>
      </trkpt>
      <trkpt lat="45.36029" lon="4.67083">
        <ele>474.07</ele>
        <time>2016-03-26T10:07:38Z</time>
      </trkpt>
      <trkpt lat="45.36023" lon="4.67044">
        <ele>473.59</ele>
        <time>2016-03-26T10:07:59Z</time>
      </trkpt>
      <trkpt lat="45.36025" lon="4.67003">
        <ele>471.66</ele>
        <time>2016-03-26T10:08:19Z</time>
      </trkpt>
      <trkpt lat="45.36026" lon="4.66957">
        <ele>468.78</ele>
        <time>2016-03-26T10:08:43Z</time>
      </trkpt>
      <trkpt lat="45.36012" lon="4.66937">
        <ele>465.42</ele>
        <time>2016-03-26T10:08:59Z</time>
      </trkpt>
      <trkpt lat="45.3599" lon="4.66932">
        <ele>467.82</ele>
        <time>2016-03-26T10:09:17Z</time>
      </trkpt>
      <trkpt lat="45.3597" lon="4.66938">
        <ele>469.74</ele>
        <time>2016-03-26T10:09:33Z</time>
      </trkpt>
      <trkpt lat="45.35957" lon="4.66935">
        <ele>471.66</ele>
        <time>2016-03-26T10:09:43Z</time>
      </trkpt>
      <trkpt lat="45.35952" lon="4.66912">
        <ele>474.55</ele>
        <time>2016-03-26T10:09:58Z</time>
      </trkpt>
      <trkpt lat="45.35955" lon="4.66907">
        <ele>474.55</ele>
        <time>2016-03-26T10:10:02Z</time>
      </trkpt>
      <trkpt lat="45.35969" lon="4.66873">
        <ele>477.91</ele>
        <time>2016-03-26T10:10:23Z</time>
      </trkpt>
      <trkpt lat="45.35987" lon="4.66835">
        <ele>481.28</ele>
        <time>2016-03-26T10:10:45Z</time>
      </trkpt>
      <trkpt lat="45.35998" lon="4.66796">
        <ele>487.05</ele>
        <time>2016-03-26T10:11:07Z</time>
      </trkpt>
      <trkpt lat="45.36002" lon="4.66757">
        <ele>491.37</ele>
        <time>2016-03-26T10:11:28Z</time>
      </trkpt>
      <trkpt lat="45.36021" lon="4.66737">
        <ele>497.14</ele>
        <time>2016-03-26T10:11:46Z</time>
      </trkpt>
      <trkpt lat="45.36035" lon="4.66701">
        <ele>498.1</ele>
        <time>2016-03-26T10:12:07Z</time>
      </trkpt>
      <trkpt lat="45.36047" lon="4.66656">
        <ele>497.62</ele>
        <time>2016-03-26T10:12:30Z</time>
      </trkpt>
      <trkpt lat="45.36057" lon="4.66616">
        <ele>495.7</ele>
        <time>2016-03-26T10:12:50Z</time>
      </trkpt>
      <trkpt lat="45.3607" lon="4.66569">
        <ele>496.18</ele>
        <time>2016-03-26T10:13:14Z</time>
      </trkpt>
      <trkpt lat="45.36079" lon="4.66528">
        <ele>500.98</ele>
        <time>2016-03-26T10:13:36Z</time>
      </trkpt>
      <trkpt lat="45.36087" lon="4.66486">
        <ele>506.75</ele>
        <time>2016-03-26T10:13:58Z</time>
      </trkpt>
      <trkpt lat="45.36087" lon="4.66481">
        <ele>507.23</ele>
        <time>2016-03-26T10:14:01Z</time>
      </trkpt>
      <trkpt lat="45.36085" lon="4.66458">
        <ele>509.64</ele>
        <time>2016-03-26T10:14:19Z</time>
      </trkpt>
      <trkpt lat="45.36086" lon="4.66456">
        <ele>509.16</ele>
        <time>2016-03-26T10:14:35Z</time>
      </trkpt>
      <trkpt lat="45.36082" lon="4.66455">
        <ele>508.19</ele>
        <time>2016-03-26T10:14:52Z</time>
      </trkpt>
      <trkpt lat="45.36081" lon="4.66454">
        <ele>507.71</ele>
        <time>2016-03-26T10:15:08Z</time>
      </trkpt>
      <trkpt lat="45.36068" lon="4.66452">
        <ele>508.19</ele>
        <time>2016-03-26T10:15:19Z</time>
      </trkpt>
      <trkpt lat="45.36042" lon="4.66433">
        <ele>508.67</ele>
        <time>2016-03-26T10:15:39Z</time>
      </trkpt>
      <trkpt lat="45.36031" lon="4.66418">
        <ele>509.64</ele>
        <time>2016-03-26T10:15:53Z</time>
      </trkpt>
      <trkpt lat="45.36028" lon="4.6641">
        <ele>510.12</ele>
        <time>2016-03-26T10:15:59Z</time>
      </trkpt>
      <trkpt lat="45.36016" lon="4.66379">
        <ele>513</ele>
        <time>2016-03-26T10:16:18Z</time>
      </trkpt>
      <trkpt lat="45.36003" lon="4.66349">
        <ele>514.92</ele>
        <time>2016-03-26T10:16:36Z</time>
      </trkpt>
      <trkpt lat="45.35986" lon="4.66319">
        <ele>516.37</ele>
        <time>2016-03-26T10:16:55Z</time>
      </trkpt>
      <trkpt lat="45.35967" lon="4.66296">
        <ele>516.85</ele>
        <time>2016-03-26T10:17:13Z</time>
      </trkpt>
      <trkpt lat="45.35958" lon="4.66282">
        <ele>517.81</ele>
        <time>2016-03-26T10:17:24Z</time>
      </trkpt>
      <trkpt lat="45.3596" lon="4.66278">
        <ele>518.29</ele>
        <time>2016-03-26T10:17:27Z</time>
      </trkpt>
      <trkpt lat="45.35975" lon="4.66259">
        <ele>518.29</ele>
        <time>2016-03-26T10:17:43Z</time>
      </trkpt>
      <trkpt lat="45.35991" lon="4.66237">
        <ele>521.17</ele>
        <time>2016-03-26T10:18:01Z</time>
      </trkpt>
      <trkpt lat="45.35999" lon="4.66205">
        <ele>522.61</ele>
        <time>2016-03-26T10:18:20Z</time>
      </trkpt>
      <trkpt lat="45.36002" lon="4.66197">
        <ele>522.61</ele>
        <time>2016-03-26T10:18:24Z</time>
      </trkpt>
      <trkpt lat="45.36005" lon="4.66191">
        <ele>523.58</ele>
        <time>2016-03-26T10:18:28Z</time>
      </trkpt>
      <trkpt lat="45.36022" lon="4.66165">
        <ele>526.94</ele>
        <time>2016-03-26T10:18:48Z</time>
      </trkpt>
      <trkpt lat="45.36035" lon="4.66137">
        <ele>530.79</ele>
        <time>2016-03-26T10:19:08Z</time>
      </trkpt>
      <trkpt lat="45.36035" lon="4.66134">
        <ele>531.27</ele>
        <time>2016-03-26T10:19:10Z</time>
      </trkpt>
      <trkpt lat="45.36036" lon="4.66109">
        <ele>534.15</ele>
        <time>2016-03-26T10:19:27Z</time>
      </trkpt>
      <trkpt lat="45.3604" lon="4.66086">
        <ele>537.03</ele>
        <time>2016-03-26T10:19:40Z</time>
      </trkpt>
      <trkpt lat="45.36036" lon="4.66054">
        <ele>538.48</ele>
        <time>2016-03-26T10:19:58Z</time>
      </trkpt>
      <trkpt lat="45.36038" lon="4.66027">
        <ele>542.32</ele>
        <time>2016-03-26T10:20:15Z</time>
      </trkpt>
      <trkpt lat="45.36043" lon="4.66018">
        <ele>545.69</ele>
        <time>2016-03-26T10:20:23Z</time>
      </trkpt>
      <trkpt lat="45.36057" lon="4.65997">
        <ele>550.97</ele>
        <time>2016-03-26T10:20:41Z</time>
      </trkpt>
      <trkpt lat="45.36058" lon="4.6598">
        <ele>551.93</ele>
        <time>2016-03-26T10:20:50Z</time>
      </trkpt>
      <trkpt lat="45.36048" lon="4.65958">
        <ele>554.82</ele>
        <time>2016-03-26T10:21:07Z</time>
      </trkpt>
      <trkpt lat="45.36048" lon="4.65944">
        <ele>555.78</ele>
        <time>2016-03-26T10:21:21Z</time>
      </trkpt>
      <trkpt lat="45.36061" lon="4.65928">
        <ele>560.11</ele>
        <time>2016-03-26T10:21:36Z</time>
      </trkpt>
      <trkpt lat="45.36074" lon="4.65902">
        <ele>563.47</ele>
        <time>2016-03-26T10:21:54Z</time>
      </trkpt>
      <trkpt lat="45.36085" lon="4.65882">
        <ele>568.28</ele>
        <time>2016-03-26T10:22:11Z</time>
      </trkpt>
      <trkpt lat="45.36094" lon="4.6586">
        <ele>572.12</ele>
        <time>2016-03-26T10:22:29Z</time>
      </trkpt>
      <trkpt lat="45.3608" lon="4.65851">
        <ele>575.49</ele>
        <time>2016-03-26T10:22:44Z</time>
      </trkpt>
      <trkpt lat="45.36078" lon="4.65851">
        <ele>575.97</ele>
        <time>2016-03-26T10:22:46Z</time>
      </trkpt>
      <trkpt lat="45.36059" lon="4.65847">
        <ele>579.81</ele>
        <time>2016-03-26T10:23:02Z</time>
      </trkpt>
      <trkpt lat="45.36039" lon="4.65833">
        <ele>581.73</ele>
        <time>2016-03-26T10:23:19Z</time>
      </trkpt>
      <trkpt lat="45.36025" lon="4.65816">
        <ele>580.29</ele>
        <time>2016-03-26T10:23:34Z</time>
      </trkpt>
      <trkpt lat="45.36012" lon="4.65796">
        <ele>580.77</ele>
        <time>2016-03-26T10:23:50Z</time>
      </trkpt>
      <trkpt lat="45.36008" lon="4.65785">
        <ele>579.33</ele>
        <time>2016-03-26T10:23:57Z</time>
      </trkpt>
      <trkpt lat="45.35998" lon="4.65757">
        <ele>580.29</ele>
        <time>2016-03-26T10:24:13Z</time>
      </trkpt>
      <trkpt lat="45.35985" lon="4.65727">
        <ele>578.37</ele>
        <time>2016-03-26T10:24:29Z</time>
      </trkpt>
      <trkpt lat="45.35971" lon="4.65695">
        <ele>579.81</ele>
        <time>2016-03-26T10:24:47Z</time>
      </trkpt>
      <trkpt lat="45.3596" lon="4.65663">
        <ele>580.29</ele>
        <time>2016-03-26T10:25:04Z</time>
      </trkpt>
      <trkpt lat="45.35949" lon="4.65634">
        <ele>580.77</ele>
        <time>2016-03-26T10:25:21Z</time>
      </trkpt>
      <trkpt lat="45.35938" lon="4.65609">
        <ele>584.62</ele>
        <time>2016-03-26T10:25:37Z</time>
      </trkpt>
      <trkpt lat="45.35933" lon="4.6559">
        <ele>584.62</ele>
        <time>2016-03-26T10:25:51Z</time>
      </trkpt>
      <trkpt lat="45.35929" lon="4.65586">
        <ele>586.06</ele>
        <time>2016-03-26T10:26:07Z</time>
      </trkpt>
      <trkpt lat="45.3593" lon="4.65582">
        <ele>587.5</ele>
        <time>2016-03-26T10:26:25Z</time>
      </trkpt>
      <trkpt lat="45.3593" lon="4.65581">
        <ele>587.5</ele>
        <time>2016-03-26T10:26:46Z</time>
      </trkpt>
      <trkpt lat="45.3593" lon="4.6558">
        <ele>587.98</ele>
        <time>2016-03-26T10:27:14Z</time>
      </trkpt>
      <trkpt lat="45.3593" lon="4.6558">
        <ele>588.46</ele>
        <time>2016-03-26T10:27:41Z</time>
      </trkpt>
      <trkpt lat="45.3593" lon="4.65579">
        <ele>588.46</ele>
        <time>2016-03-26T10:28:05Z</time>
      </trkpt>
      <trkpt lat="45.35929" lon="4.65579">
        <ele>588.95</ele>
        <time>2016-03-26T10:28:37Z</time>
      </trkpt>
      <trkpt lat="45.35927" lon="4.65573">
        <ele>589.43</ele>
        <time>2016-03-26T10:28:56Z</time>
      </trkpt>
      <trkpt lat="45.35926" lon="4.6557">
        <ele>589.43</ele>
        <time>2016-03-26T10:28:58Z</time>
      </trkpt>
      <trkpt lat="45.35915" lon="4.65541">
        <ele>592.79</ele>
        <time>2016-03-26T10:29:16Z</time>
      </trkpt>
      <trkpt lat="45.35904" lon="4.65521">
        <ele>595.19</ele>
        <time>2016-03-26T10:29:31Z</time>
      </trkpt>
      <trkpt lat="45.35899" lon="4.65512">
        <ele>595.19</ele>
        <time>2016-03-26T10:29:37Z</time>
      </trkpt>
      <trkpt lat="45.35886" lon="4.65475">
        <ele>600</ele>
        <time>2016-03-26T10:29:57Z</time>
      </trkpt>
      <trkpt lat="45.35874" lon="4.65444">
        <ele>604.33</ele>
        <time>2016-03-26T10:30:15Z</time>
      </trkpt>
      <trkpt lat="45.3586" lon="4.65413">
        <ele>609.13</ele>
        <time>2016-03-26T10:30:32Z</time>
      </trkpt>
      <trkpt lat="45.35848" lon="4.65386">
        <ele>611.06</ele>
        <time>2016-03-26T10:30:47Z</time>
      </trkpt>
      <trkpt lat="45.35832" lon="4.65342">
        <ele>611.54</ele>
        <time>2016-03-26T10:31:07Z</time>
      </trkpt>
      <trkpt lat="45.35821" lon="4.65305">
        <ele>613.46</ele>
        <time>2016-03-26T10:31:25Z</time>
      </trkpt>
      <trkpt lat="45.35807" lon="4.65267">
        <ele>614.9</ele>
        <time>2016-03-26T10:31:44Z</time>
      </trkpt>
      <trkpt lat="45.35804" lon="4.65243">
        <ele>616.82</ele>
        <time>2016-03-26T10:31:57Z</time>
      </trkpt>
      <trkpt lat="45.35816" lon="4.65226">
        <ele>622.59</ele>
        <time>2016-03-26T10:32:15Z</time>
      </trkpt>
      <trkpt lat="45.35816" lon="4.65222">
        <ele>622.11</ele>
        <time>2016-03-26T10:32:29Z</time>
      </trkpt>
      <trkpt lat="45.35813" lon="4.65216">
        <ele>621.63</ele>
        <time>2016-03-26T10:32:35Z</time>
      </trkpt>
      <trkpt lat="45.35811" lon="4.65208">
        <ele>622.11</ele>
        <time>2016-03-26T10:32:40Z</time>
      </trkpt>
      <trkpt lat="45.35801" lon="4.65184">
        <ele>624.03</ele>
        <time>2016-03-26T10:32:56Z</time>
      </trkpt>
      <trkpt lat="45.35797" lon="4.65177">
        <ele>624.51</ele>
        <time>2016-03-26T10:33:02Z</time>
      </trkpt>
      <trkpt lat="45.35779" lon="4.65152">
        <ele>629.32</ele>
        <time>2016-03-26T10:33:20Z</time>
      </trkpt>
      <trkpt lat="45.35766" lon="4.65122">
        <ele>631.72</ele>
        <time>2016-03-26T10:33:38Z</time>
      </trkpt>
      <trkpt lat="45.35762" lon="4.65084">
        <ele>637.01</ele>
        <time>2016-03-26T10:33:59Z</time>
      </trkpt>
      <trkpt lat="45.35755" lon="4.65052">
        <ele>641.34</ele>
        <time>2016-03-26T10:34:17Z</time>
      </trkpt>
      <trkpt lat="45.35748" lon="4.65023">
        <ele>644.7</ele>
        <time>2016-03-26T10:34:34Z</time>
      </trkpt>
      <trkpt lat="45.3575" lon="4.64981">
        <ele>649.99</ele>
        <time>2016-03-26T10:34:56Z</time>
      </trkpt>
      <trkpt lat="45.35753" lon="4.6493">
        <ele>656.24</ele>
        <time>2016-03-26T10:35:21Z</time>
      </trkpt>
      <trkpt lat="45.35756" lon="4.6488">
        <ele>660.56</ele>
        <time>2016-03-26T10:35:45Z</time>
      </trkpt>
      <trkpt lat="45.35746" lon="4.64838">
        <ele>661.04</ele>
        <time>2016-03-26T10:36:05Z</time>
      </trkpt>
      <trkpt lat="45.35734" lon="4.6481">
        <ele>660.56</ele>
        <time>2016-03-26T10:36:21Z</time>
      </trkpt>
      <trkpt lat="45.35725" lon="4.64799">
        <ele>660.08</ele>
        <time>2016-03-26T10:36:37Z</time>
      </trkpt>
      <trkpt lat="45.35724" lon="4.64797">
        <ele>660.56</ele>
        <time>2016-03-26T10:36:55Z</time>
      </trkpt>
      <trkpt lat="45.35723" lon="4.64796">
        <ele>661.04</ele>
        <time>2016-03-26T10:37:13Z</time>
      </trkpt>
      <trkpt lat="45.35723" lon="4.64796">
        <ele>661.04</ele>
        <time>2016-03-26T10:37:40Z</time>
      </trkpt>
      <trkpt lat="45.35722" lon="4.64796">
        <ele>660.56</ele>
        <time>2016-03-26T10:38:11Z</time>
      </trkpt>
      <trkpt lat="45.35722" lon="4.64796">
        <ele>660.08</ele>
        <time>2016-03-26T10:38:38Z</time>
      </trkpt>
      <trkpt lat="45.35722" lon="4.64796">
        <ele>659.6</ele>
        <time>2016-03-26T10:39:07Z</time>
      </trkpt>
      <trkpt lat="45.35718" lon="4.64785">
        <ele>658.64</ele>
        <time>2016-03-26T10:39:32Z</time>
      </trkpt>
      <trkpt lat="45.35695" lon="4.64737">
        <ele>656.72</ele>
        <time>2016-03-26T10:39:58Z</time>
      </trkpt>
      <trkpt lat="45.3567" lon="4.64706">
        <ele>656.72</ele>
        <time>2016-03-26T10:40:19Z</time>
      </trkpt>
      <trkpt lat="45.35651" lon="4.64673">
        <ele>657.2</ele>
        <time>2016-03-26T10:40:38Z</time>
      </trkpt>
      <trkpt lat="45.35637" lon="4.64641">
        <ele>658.64</ele>
        <time>2016-03-26T10:40:56Z</time>
      </trkpt>
      <trkpt lat="45.35629" lon="4.64602">
        <ele>662.01</ele>
        <time>2016-03-26T10:41:16Z</time>
      </trkpt>
      <trkpt lat="45.35615" lon="4.64562">
        <ele>663.45</ele>
        <time>2016-03-26T10:41:37Z</time>
      </trkpt>
      <trkpt lat="45.356" lon="4.64517">
        <ele>664.41</ele>
        <time>2016-03-26T10:41:59Z</time>
      </trkpt>
      <trkpt lat="45.35591" lon="4.64466">
        <ele>664.89</ele>
        <time>2016-03-26T10:42:23Z</time>
      </trkpt>
      <trkpt lat="45.3559" lon="4.64415">
        <ele>665.37</ele>
        <time>2016-03-26T10:42:47Z</time>
      </trkpt>
      <trkpt lat="45.3559" lon="4.6437">
        <ele>665.37</ele>
        <time>2016-03-26T10:43:08Z</time>
      </trkpt>
      <trkpt lat="45.35593" lon="4.64319">
        <ele>665.85</ele>
        <time>2016-03-26T10:43:30Z</time>
      </trkpt>
      <trkpt lat="45.35594" lon="4.64263">
        <ele>665.37</ele>
        <time>2016-03-26T10:43:55Z</time>
      </trkpt>
      <trkpt lat="45.356" lon="4.64214">
        <ele>665.37</ele>
        <time>2016-03-26T10:44:18Z</time>
      </trkpt>
      <trkpt lat="45.35603" lon="4.64172">
        <ele>667.77</ele>
        <time>2016-03-26T10:44:37Z</time>
      </trkpt>
      <trkpt lat="45.35616" lon="4.64131">
        <ele>670.66</ele>
        <time>2016-03-26T10:44:56Z</time>
      </trkpt>
      <trkpt lat="45.35622" lon="4.64099">
        <ele>672.58</ele>
        <time>2016-03-26T10:45:13Z</time>
      </trkpt>
      <trkpt lat="45.35623" lon="4.64098">
        <ele>673.06</ele>
        <time>2016-03-26T10:45:14Z</time>
      </trkpt>
      <trkpt lat="45.35642" lon="4.6407">
        <ele>684.12</ele>
        <time>2016-03-26T10:45:36Z</time>
      </trkpt>
      <trkpt lat="45.35642" lon="4.64066">
        <ele>684.6</ele>
        <time>2016-03-26T10:45:51Z</time>
      </trkpt>
      <trkpt lat="45.35642" lon="4.64066">
        <ele>685.08</ele>
        <time>2016-03-26T10:46:18Z</time>
      </trkpt>
      <trkpt lat="45.35637" lon="4.64063">
        <ele>685.56</ele>
        <time>2016-03-26T10:46:41Z</time>
      </trkpt>
      <trkpt lat="45.35637" lon="4.64062">
        <ele>683.15</ele>
        <time>2016-03-26T10:46:57Z</time>
      </trkpt>
      <trkpt lat="45.35634" lon="4.64059">
        <ele>680.27</ele>
        <time>2016-03-26T10:47:13Z</time>
      </trkpt>
      <trkpt lat="45.3563" lon="4.64056">
        <ele>676.91</ele>
        <time>2016-03-26T10:47:27Z</time>
      </trkpt>
      <trkpt lat="45.35625" lon="4.64052">
        <ele>676.91</ele>
        <time>2016-03-26T10:47:35Z</time>
      </trkpt>
      <trkpt lat="45.35624" lon="4.6405">
        <ele>676.42</ele>
        <time>2016-03-26T10:47:37Z</time>
      </trkpt>
      <trkpt lat="45.35613" lon="4.64017">
        <ele>675.46</ele>
        <time>2016-03-26T10:47:56Z</time>
      </trkpt>
      <trkpt lat="45.35608" lon="4.63987">
        <ele>673.54</ele>
        <time>2016-03-26T10:48:12Z</time>
      </trkpt>
      <trkpt lat="45.35598" lon="4.63959">
        <ele>672.58</ele>
        <time>2016-03-26T10:48:30Z</time>
      </trkpt>
      <trkpt lat="45.35597" lon="4.63953">
        <ele>673.06</ele>
        <time>2016-03-26T10:48:33Z</time>
      </trkpt>
      <trkpt lat="45.35586" lon="4.63927">
        <ele>674.5</ele>
        <time>2016-03-26T10:48:50Z</time>
      </trkpt>
      <trkpt lat="45.35582" lon="4.63908">
        <ele>678.83</ele>
        <time>2016-03-26T10:49:08Z</time>
      </trkpt>
      <trkpt lat="45.35574" lon="4.63897">
        <ele>681.71</ele>
        <time>2016-03-26T10:49:19Z</time>
      </trkpt>
      <trkpt lat="45.35562" lon="4.63886">
        <ele>685.56</ele>
        <time>2016-03-26T10:49:34Z</time>
      </trkpt>
      <trkpt lat="45.35549" lon="4.6387">
        <ele>691.81</ele>
        <time>2016-03-26T10:49:50Z</time>
      </trkpt>
      <trkpt lat="45.35537" lon="4.63849">
        <ele>696.61</ele>
        <time>2016-03-26T10:50:08Z</time>
      </trkpt>
      <trkpt lat="45.35521" lon="4.63827">
        <ele>699.5</ele>
        <time>2016-03-26T10:50:24Z</time>
      </trkpt>
      <trkpt lat="45.35506" lon="4.63813">
        <ele>702.38</ele>
        <time>2016-03-26T10:50:38Z</time>
      </trkpt>
      <trkpt lat="45.3549" lon="4.63795">
        <ele>709.11</ele>
        <time>2016-03-26T10:50:53Z</time>
      </trkpt>
      <trkpt lat="45.35476" lon="4.63792">
        <ele>714.4</ele>
        <time>2016-03-26T10:51:05Z</time>
      </trkpt>
      <trkpt lat="45.35458" lon="4.63788">
        <ele>719.2</ele>
        <time>2016-03-26T10:51:19Z</time>
      </trkpt>
      <trkpt lat="45.35437" lon="4.63777">
        <ele>720.65</ele>
        <time>2016-03-26T10:51:36Z</time>
      </trkpt>
      <trkpt lat="45.35426" lon="4.63769">
        <ele>719.68</ele>
        <time>2016-03-26T10:51:51Z</time>
      </trkpt>
      <trkpt lat="45.35419" lon="4.63763">
        <ele>718.72</ele>
        <time>2016-03-26T10:52:07Z</time>
      </trkpt>
      <trkpt lat="45.35402" lon="4.63753">
        <ele>717.76</ele>
        <time>2016-03-26T10:52:24Z</time>
      </trkpt>
      <trkpt lat="45.35381" lon="4.63745">
        <ele>718.72</ele>
        <time>2016-03-26T10:52:42Z</time>
      </trkpt>
      <trkpt lat="45.35359" lon="4.63742">
        <ele>723.05</ele>
        <time>2016-03-26T10:53:00Z</time>
      </trkpt>
      <trkpt lat="45.35336" lon="4.63731">
        <ele>725.93</ele>
        <time>2016-03-26T10:53:19Z</time>
      </trkpt>
      <trkpt lat="45.35313" lon="4.63734">
        <ele>731.22</ele>
        <time>2016-03-26T10:53:36Z</time>
      </trkpt>
      <trkpt lat="45.35294" lon="4.63733">
        <ele>735.55</ele>
        <time>2016-03-26T10:53:52Z</time>
      </trkpt>
      <trkpt lat="45.35275" lon="4.63737">
        <ele>740.35</ele>
        <time>2016-03-26T10:54:07Z</time>
      </trkpt>
      <trkpt lat="45.35255" lon="4.63736">
        <ele>741.79</ele>
        <time>2016-03-26T10:54:22Z</time>
      </trkpt>
      <trkpt lat="45.35237" lon="4.63733">
        <ele>745.16</ele>
        <time>2016-03-26T10:54:35Z</time>
      </trkpt>
      <trkpt lat="45.35209" lon="4.63718">
        <ele>745.64</ele>
        <time>2016-03-26T10:54:54Z</time>
      </trkpt>
      <trkpt lat="45.35197" lon="4.63703">
        <ele>746.6</ele>
        <time>2016-03-26T10:55:07Z</time>
      </trkpt>
      <trkpt lat="45.35188" lon="4.63689">
        <ele>747.56</ele>
        <time>2016-03-26T10:55:17Z</time>
      </trkpt>
      <trkpt lat="45.35181" lon="4.63672">
        <ele>749.49</ele>
        <time>2016-03-26T10:55:30Z</time>
      </trkpt>
      <trkpt lat="45.35175" lon="4.63646">
        <ele>752.37</ele>
        <time>2016-03-26T10:55:47Z</time>
      </trkpt>
      <trkpt lat="45.35171" lon="4.63618">
        <ele>753.81</ele>
        <time>2016-03-26T10:56:04Z</time>
      </trkpt>
      <trkpt lat="45.3517" lon="4.63603">
        <ele>756.69</ele>
        <time>2016-03-26T10:56:20Z</time>
      </trkpt>
      <trkpt lat="45.35168" lon="4.63601">
        <ele>759.1</ele>
        <time>2016-03-26T10:56:36Z</time>
      </trkpt>
      <trkpt lat="45.35163" lon="4.63578">
        <ele>761.02</ele>
        <time>2016-03-26T10:56:51Z</time>
      </trkpt>
      <trkpt lat="45.35163" lon="4.63543">
        <ele>762.94</ele>
        <time>2016-03-26T10:57:09Z</time>
      </trkpt>
      <trkpt lat="45.35162" lon="4.63528">
        <ele>763.42</ele>
        <time>2016-03-26T10:57:19Z</time>
      </trkpt>
      <trkpt lat="45.3516" lon="4.63517">
        <ele>766.31</ele>
        <time>2016-03-26T10:57:34Z</time>
      </trkpt>
      <trkpt lat="45.35152" lon="4.63496">
        <ele>763.9</ele>
        <time>2016-03-26T10:57:50Z</time>
      </trkpt>
      <trkpt lat="45.35135" lon="4.6347">
        <ele>761.98</ele>
        <time>2016-03-26T10:58:10Z</time>
      </trkpt>
      <trkpt lat="45.35126" lon="4.63451">
        <ele>761.02</ele>
        <time>2016-03-26T10:58:27Z</time>
      </trkpt>
      <trkpt lat="45.35119" lon="4.63426">
        <ele>764.87</ele>
        <time>2016-03-26T10:58:48Z</time>
      </trkpt>
      <trkpt lat="45.35112" lon="4.63398">
        <ele>767.75</ele>
        <time>2016-03-26T10:59:06Z</time>
      </trkpt>
      <trkpt lat="45.35098" lon="4.63373">
        <ele>769.19</ele>
        <time>2016-03-26T10:59:25Z</time>
      </trkpt>
      <trkpt lat="45.35095" lon="4.63346">
        <ele>776.4</ele>
        <time>2016-03-26T10:59:42Z</time>
      </trkpt>
      <trkpt lat="45.35083" lon="4.63322">
        <ele>782.17</ele>
        <time>2016-03-26T11:00:01Z</time>
      </trkpt>
      <trkpt lat="45.35072" lon="4.63295">
        <ele>789.38</ele>
        <time>2016-03-26T11:00:19Z</time>
      </trkpt>
      <trkpt lat="45.35059" lon="4.6327">
        <ele>791.78</ele>
        <time>2016-03-26T11:00:36Z</time>
      </trkpt>
      <trkpt lat="45.35049" lon="4.63259">
        <ele>795.15</ele>
        <time>2016-03-26T11:00:50Z</time>
      </trkpt>
      <trkpt lat="45.3504" lon="4.63232">
        <ele>799.95</ele>
        <time>2016-03-26T11:01:08Z</time>
      </trkpt>
      <trkpt lat="45.35026" lon="4.6321">
        <ele>802.36</ele>
        <time>2016-03-26T11:01:24Z</time>
      </trkpt>
      <trkpt lat="45.35007" lon="4.63185">
        <ele>802.84</ele>
        <time>2016-03-26T11:01:41Z</time>
      </trkpt>
      <trkpt lat="45.34985" lon="4.6316">
        <ele>806.2</ele>
        <time>2016-03-26T11:02:01Z</time>
      </trkpt>
      <trkpt lat="45.3497" lon="4.63141">
        <ele>808.13</ele>
        <time>2016-03-26T11:02:16Z</time>
      </trkpt>
      <trkpt lat="45.34959" lon="4.63113">
        <ele>814.85</ele>
        <time>2016-03-26T11:02:35Z</time>
      </trkpt>
      <trkpt lat="45.34952" lon="4.63097">
        <ele>822.55</ele>
        <time>2016-03-26T11:02:49Z</time>
      </trkpt>
      <trkpt lat="45.34948" lon="4.63071">
        <ele>828.31</ele>
        <time>2016-03-26T11:03:04Z</time>
      </trkpt>
      <trkpt lat="45.34945" lon="4.6305">
        <ele>833.12</ele>
        <time>2016-03-26T11:03:20Z</time>
      </trkpt>
      <trkpt lat="45.34941" lon="4.6304">
        <ele>831.2</ele>
        <time>2016-03-26T11:03:36Z</time>
      </trkpt>
      <trkpt lat="45.34941" lon="4.63039">
        <ele>826.87</ele>
        <time>2016-03-26T11:04:00Z</time>
      </trkpt>
      <trkpt lat="45.34939" lon="4.63041">
        <ele>823.51</ele>
        <time>2016-03-26T11:04:32Z</time>
      </trkpt>
      <trkpt lat="45.34936" lon="4.63041">
        <ele>819.18</ele>
        <time>2016-03-26T11:05:02Z</time>
      </trkpt>
      <trkpt lat="45.34935" lon="4.63038">
        <ele>816.3</ele>
        <time>2016-03-26T11:05:19Z</time>
      </trkpt>
      <trkpt lat="45.34936" lon="4.63039">
        <ele>816.3</ele>
        <time>2016-03-26T11:05:43Z</time>
      </trkpt>
      <trkpt lat="45.34935" lon="4.6304">
        <ele>816.3</ele>
        <time>2016-03-26T11:06:11Z</time>
      </trkpt>
      <trkpt lat="45.34934" lon="4.63039">
        <ele>816.3</ele>
        <time>2016-03-26T11:06:37Z</time>
      </trkpt>
      <trkpt lat="45.34934" lon="4.63039">
        <ele>816.78</ele>
        <time>2016-03-26T11:07:08Z</time>
      </trkpt>
      <trkpt lat="45.34934" lon="4.63038">
        <ele>816.78</ele>
        <time>2016-03-26T11:07:37Z</time>
      </trkpt>
      <trkpt lat="45.34934" lon="4.63039">
        <ele>816.3</ele>
        <time>2016-03-26T11:08:05Z</time>
      </trkpt>
      <trkpt lat="45.34934" lon="4.6304">
        <ele>816.78</ele>
        <time>2016-03-26T11:08:30Z</time>
      </trkpt>
      <trkpt lat="45.34934" lon="4.63042">
        <ele>817.26</ele>
        <time>2016-03-26T11:08:56Z</time>
      </trkpt>
      <trkpt lat="45.34934" lon="4.63042">
        <ele>816.78</ele>
        <time>2016-03-26T11:09:28Z</time>
      </trkpt>
      <trkpt lat="45.34934" lon="4.63041">
        <ele>816.3</ele>
        <time>2016-03-26T11:09:48Z</time>
      </trkpt>
      <trkpt lat="45.34935" lon="4.63038">
        <ele>815.82</ele>
        <time>2016-03-26T11:10:08Z</time>
      </trkpt>
      <trkpt lat="45.34937" lon="4.63019">
        <ele>816.78</ele>
        <time>2016-03-26T11:10:19Z</time>
      </trkpt>
      <trkpt lat="45.34937" lon="4.63018">
        <ele>816.78</ele>
        <time>2016-03-26T11:10:20Z</time>
      </trkpt>
      <trkpt lat="45.34938" lon="4.63013">
        <ele>818.22</ele>
        <time>2016-03-26T11:10:23Z</time>
      </trkpt>
      <trkpt lat="45.34937" lon="4.6301">
        <ele>819.18</ele>
        <time>2016-03-26T11:10:25Z</time>
      </trkpt>
      <trkpt lat="45.34936" lon="4.63004">
        <ele>821.1</ele>
        <time>2016-03-26T11:10:28Z</time>
      </trkpt>
      <trkpt lat="45.34936" lon="4.62998">
        <ele>823.03</ele>
        <time>2016-03-26T11:10:31Z</time>
      </trkpt>
      <trkpt lat="45.34932" lon="4.62969">
        <ele>828.79</ele>
        <time>2016-03-26T11:10:45Z</time>
      </trkpt>
      <trkpt lat="45.3493" lon="4.62956">
        <ele>830.72</ele>
        <time>2016-03-26T11:10:52Z</time>
      </trkpt>
      <trkpt lat="45.3493" lon="4.62936">
        <ele>838.89</ele>
        <time>2016-03-26T11:11:05Z</time>
      </trkpt>
      <trkpt lat="45.3493" lon="4.62934">
        <ele>839.37</ele>
        <time>2016-03-26T11:11:06Z</time>
      </trkpt>
      <trkpt lat="45.3493" lon="4.6293">
        <ele>841.29</ele>
        <time>2016-03-26T11:11:08Z</time>
      </trkpt>
      <trkpt lat="45.34928" lon="4.62909">
        <ele>842.73</ele>
        <time>2016-03-26T11:11:20Z</time>
      </trkpt>
      <trkpt lat="45.34926" lon="4.62893">
        <ele>843.21</ele>
        <time>2016-03-26T11:11:30Z</time>
      </trkpt>
      <trkpt lat="45.34924" lon="4.6287">
        <ele>845.14</ele>
        <time>2016-03-26T11:11:42Z</time>
      </trkpt>
      <trkpt lat="45.34916" lon="4.62849">
        <ele>848.02</ele>
        <time>2016-03-26T11:11:52Z</time>
      </trkpt>
      <trkpt lat="45.34914" lon="4.62823">
        <ele>845.14</ele>
        <time>2016-03-26T11:12:02Z</time>
      </trkpt>
      <trkpt lat="45.34901" lon="4.62792">
        <ele>844.66</ele>
        <time>2016-03-26T11:12:16Z</time>
      </trkpt>
      <trkpt lat="45.34901" lon="4.62785">
        <ele>845.14</ele>
        <time>2016-03-26T11:12:20Z</time>
      </trkpt>
      <trkpt lat="45.34895" lon="4.62759">
        <ele>847.54</ele>
        <time>2016-03-26T11:12:34Z</time>
      </trkpt>
      <trkpt lat="45.34895" lon="4.6275">
        <ele>848.5</ele>
        <time>2016-03-26T11:12:38Z</time>
      </trkpt>
      <trkpt lat="45.34898" lon="4.62743">
        <ele>849.46</ele>
        <time>2016-03-26T11:12:41Z</time>
      </trkpt>
      <trkpt lat="45.34897" lon="4.62733">
        <ele>850.42</ele>
        <time>2016-03-26T11:12:47Z</time>
      </trkpt>
      <trkpt lat="45.34896" lon="4.62714">
        <ele>848.98</ele>
        <time>2016-03-26T11:12:59Z</time>
      </trkpt>
      <trkpt lat="45.34897" lon="4.6271">
        <ele>848.98</ele>
        <time>2016-03-26T11:13:15Z</time>
      </trkpt>
      <trkpt lat="45.34899" lon="4.62705">
        <ele>848.5</ele>
        <time>2016-03-26T11:13:25Z</time>
      </trkpt>
      <trkpt lat="45.34913" lon="4.62686">
        <ele>849.46</ele>
        <time>2016-03-26T11:13:41Z</time>
      </trkpt>
      <trkpt lat="45.3493" lon="4.62662">
        <ele>852.83</ele>
        <time>2016-03-26T11:13:58Z</time>
      </trkpt>
      <trkpt lat="45.34945" lon="4.62636">
        <ele>858.59</ele>
        <time>2016-03-26T11:14:14Z</time>
      </trkpt>
      <trkpt lat="45.34956" lon="4.62607">
        <ele>862.92</ele>
        <time>2016-03-26T11:14:29Z</time>
      </trkpt>
      <trkpt lat="45.34962" lon="4.6258">
        <ele>864.84</ele>
        <time>2016-03-26T11:14:42Z</time>
      </trkpt>
      <trkpt lat="45.34964" lon="4.62568">
        <ele>866.29</ele>
        <time>2016-03-26T11:14:48Z</time>
      </trkpt>
      <trkpt lat="45.34968" lon="4.62541">
        <ele>866.77</ele>
        <time>2016-03-26T11:15:04Z</time>
      </trkpt>
      <trkpt lat="45.34977" lon="4.62522">
        <ele>868.69</ele>
        <time>2016-03-26T11:15:16Z</time>
      </trkpt>
      <trkpt lat="45.34979" lon="4.62519">
        <ele>867.73</ele>
        <time>2016-03-26T11:15:20Z</time>
      </trkpt>
      <trkpt lat="45.34995" lon="4.62517">
        <ele>863.88</ele>
        <time>2016-03-26T11:15:37Z</time>
      </trkpt>
      <trkpt lat="45.34997" lon="4.62518">
        <ele>864.36</ele>
        <time>2016-03-26T11:15:39Z</time>
      </trkpt>
      <trkpt lat="45.35002" lon="4.6252">
        <ele>863.88</ele>
        <time>2016-03-26T11:15:43Z</time>
      </trkpt>
      <trkpt lat="45.35023" lon="4.62518">
        <ele>864.84</ele>
        <time>2016-03-26T11:15:58Z</time>
      </trkpt>
      <trkpt lat="45.35039" lon="4.62519">
        <ele>867.25</ele>
        <time>2016-03-26T11:16:13Z</time>
      </trkpt>
      <trkpt lat="45.35044" lon="4.62517">
        <ele>868.21</ele>
        <time>2016-03-26T11:16:17Z</time>
      </trkpt>
      <trkpt lat="45.3506" lon="4.62516">
        <ele>871.09</ele>
        <time>2016-03-26T11:16:32Z</time>
      </trkpt>
      <trkpt lat="45.35068" lon="4.62505">
        <ele>868.21</ele>
        <time>2016-03-26T11:16:45Z</time>
      </trkpt>
      <trkpt lat="45.35079" lon="4.62491">
        <ele>868.69</ele>
        <time>2016-03-26T11:16:59Z</time>
      </trkpt>
      <trkpt lat="45.35097" lon="4.62482">
        <ele>869.17</ele>
        <time>2016-03-26T11:17:14Z</time>
      </trkpt>
      <trkpt lat="45.35111" lon="4.62472">
        <ele>871.09</ele>
        <time>2016-03-26T11:17:27Z</time>
      </trkpt>
      <trkpt lat="45.35125" lon="4.62466">
        <ele>872.05</ele>
        <time>2016-03-26T11:17:37Z</time>
      </trkpt>
      <trkpt lat="45.35147" lon="4.62455">
        <ele>873.01</ele>
        <time>2016-03-26T11:17:52Z</time>
      </trkpt>
      <trkpt lat="45.35165" lon="4.62448">
        <ele>873.5</ele>
        <time>2016-03-26T11:18:04Z</time>
      </trkpt>
      <trkpt lat="45.35166" lon="4.62447">
        <ele>873.5</ele>
        <time>2016-03-26T11:18:05Z</time>
      </trkpt>
      <trkpt lat="45.35187" lon="4.62442">
        <ele>878.3</ele>
        <time>2016-03-26T11:18:20Z</time>
      </trkpt>
      <trkpt lat="45.35217" lon="4.62437">
        <ele>880.22</ele>
        <time>2016-03-26T11:18:35Z</time>
      </trkpt>
      <trkpt lat="45.35238" lon="4.62436">
        <ele>879.26</ele>
        <time>2016-03-26T11:18:48Z</time>
      </trkpt>
      <trkpt lat="45.35261" lon="4.62433">
        <ele>877.82</ele>
        <time>2016-03-26T11:19:02Z</time>
      </trkpt>
      <trkpt lat="45.35266" lon="4.62432">
        <ele>876.38</ele>
        <time>2016-03-26T11:19:06Z</time>
      </trkpt>
      <trkpt lat="45.35278" lon="4.62432">
        <ele>877.34</ele>
        <time>2016-03-26T11:19:15Z</time>
      </trkpt>
      <trkpt lat="45.35298" lon="4.62442">
        <ele>881.19</ele>
        <time>2016-03-26T11:19:29Z</time>
      </trkpt>
      <trkpt lat="45.35304" lon="4.62443">
        <ele>881.67</ele>
        <time>2016-03-26T11:19:32Z</time>
      </trkpt>
      <trkpt lat="45.35314" lon="4.62445">
        <ele>883.11</ele>
        <time>2016-03-26T11:19:39Z</time>
      </trkpt>
      <trkpt lat="45.35335" lon="4.62454">
        <ele>889.84</ele>
        <time>2016-03-26T11:19:55Z</time>
      </trkpt>
      <trkpt lat="45.35357" lon="4.62455">
        <ele>895.61</ele>
        <time>2016-03-26T11:20:10Z</time>
      </trkpt>
      <trkpt lat="45.35366" lon="4.62457">
        <ele>900.89</ele>
        <time>2016-03-26T11:20:21Z</time>
      </trkpt>
      <trkpt lat="45.35375" lon="4.6247">
        <ele>904.26</ele>
        <time>2016-03-26T11:20:37Z</time>
      </trkpt>
      <trkpt lat="45.35376" lon="4.62469">
        <ele>905.22</ele>
        <time>2016-03-26T11:20:47Z</time>
      </trkpt>
      <trkpt lat="45.35375" lon="4.62467">
        <ele>906.18</ele>
        <time>2016-03-26T11:21:02Z</time>
      </trkpt>
      <trkpt lat="45.35376" lon="4.62468">
        <ele>905.7</ele>
        <time>2016-03-26T11:21:22Z</time>
      </trkpt>
      <trkpt lat="45.35376" lon="4.62467">
        <ele>907.14</ele>
        <time>2016-03-26T11:21:49Z</time>
      </trkpt>
      <trkpt lat="45.35376" lon="4.62467">
        <ele>907.14</ele>
        <time>2016-03-26T11:22:18Z</time>
      </trkpt>
      <trkpt lat="45.35376" lon="4.62467">
        <ele>907.62</ele>
        <time>2016-03-26T11:22:44Z</time>
      </trkpt>
      <trkpt lat="45.35375" lon="4.62468">
        <ele>908.1</ele>
        <time>2016-03-26T11:23:11Z</time>
      </trkpt>
      <trkpt lat="45.35375" lon="4.6247">
        <ele>908.1</ele>
        <time>2016-03-26T11:23:38Z</time>
      </trkpt>
      <trkpt lat="45.35374" lon="4.62469">
        <ele>908.1</ele>
        <time>2016-03-26T11:23:59Z</time>
      </trkpt>
      <trkpt lat="45.35374" lon="4.62469">
        <ele>907.62</ele>
        <time>2016-03-26T11:24:23Z</time>
      </trkpt>
      <trkpt lat="45.35374" lon="4.62469">
        <ele>907.62</ele>
        <time>2016-03-26T11:24:45Z</time>
      </trkpt>
      <trkpt lat="45.35374" lon="4.6247">
        <ele>908.1</ele>
        <time>2016-03-26T11:25:08Z</time>
      </trkpt>
      <trkpt lat="45.35374" lon="4.62469">
        <ele>908.58</ele>
        <time>2016-03-26T11:25:32Z</time>
      </trkpt>
      <trkpt lat="45.35373" lon="4.62467">
        <ele>908.58</ele>
        <time>2016-03-26T11:25:50Z</time>
      </trkpt>
      <trkpt lat="45.35374" lon="4.62464">
        <ele>908.58</ele>
        <time>2016-03-26T11:25:53Z</time>
      </trkpt>
      <trkpt lat="45.35381" lon="4.6245">
        <ele>911.95</ele>
        <time>2016-03-26T11:26:04Z</time>
      </trkpt>
      <trkpt lat="45.35386" lon="4.62446">
        <ele>914.83</ele>
        <time>2016-03-26T11:26:10Z</time>
      </trkpt>
      <trkpt lat="45.35396" lon="4.62435">
        <ele>923</ele>
        <time>2016-03-26T11:26:24Z</time>
      </trkpt>
      <trkpt lat="45.3541" lon="4.62423">
        <ele>923.48</ele>
        <time>2016-03-26T11:26:38Z</time>
      </trkpt>
      <trkpt lat="45.35418" lon="4.62419">
        <ele>928.29</ele>
        <time>2016-03-26T11:26:47Z</time>
      </trkpt>
      <trkpt lat="45.35429" lon="4.62426">
        <ele>932.14</ele>
        <time>2016-03-26T11:26:58Z</time>
      </trkpt>
      <trkpt lat="45.35442" lon="4.62437">
        <ele>930.21</ele>
        <time>2016-03-26T11:27:13Z</time>
      </trkpt>
      <trkpt lat="45.35453" lon="4.62448">
        <ele>927.33</ele>
        <time>2016-03-26T11:27:25Z</time>
      </trkpt>
      <trkpt lat="45.3546" lon="4.62452">
        <ele>928.29</ele>
        <time>2016-03-26T11:27:32Z</time>
      </trkpt>
      <trkpt lat="45.35475" lon="4.6245">
        <ele>931.17</ele>
        <time>2016-03-26T11:27:48Z</time>
      </trkpt>
      <trkpt lat="45.35487" lon="4.62446">
        <ele>931.17</ele>
        <time>2016-03-26T11:28:01Z</time>
      </trkpt>
      <trkpt lat="45.35501" lon="4.62441">
        <ele>932.14</ele>
        <time>2016-03-26T11:28:16Z</time>
      </trkpt>
      <trkpt lat="45.35513" lon="4.62448">
        <ele>933.58</ele>
        <time>2016-03-26T11:28:30Z</time>
      </trkpt>
      <trkpt lat="45.3552" lon="4.62451">
        <ele>934.54</ele>
        <time>2016-03-26T11:28:37Z</time>
      </trkpt>
      <trkpt lat="45.35538" lon="4.62453">
        <ele>936.46</ele>
        <time>2016-03-26T11:28:51Z</time>
      </trkpt>
      <trkpt lat="45.35549" lon="4.62454">
        <ele>938.38</ele>
        <time>2016-03-26T11:29:04Z</time>
      </trkpt>
      <trkpt lat="45.3556" lon="4.62458">
        <ele>941.27</ele>
        <time>2016-03-26T11:29:18Z</time>
      </trkpt>
      <trkpt lat="45.35578" lon="4.62462">
        <ele>945.11</ele>
        <time>2016-03-26T11:29:33Z</time>
      </trkpt>
      <trkpt lat="45.35594" lon="4.62463">
        <ele>941.27</ele>
        <time>2016-03-26T11:29:46Z</time>
      </trkpt>
      <trkpt lat="45.35616" lon="4.62464">
        <ele>937.42</ele>
        <time>2016-03-26T11:30:03Z</time>
      </trkpt>
      <trkpt lat="45.35631" lon="4.62465">
        <ele>942.23</ele>
        <time>2016-03-26T11:30:17Z</time>
      </trkpt>
      <trkpt lat="45.35642" lon="4.62471">
        <ele>939.35</ele>
        <time>2016-03-26T11:30:31Z</time>
      </trkpt>
      <trkpt lat="45.35651" lon="4.62475">
        <ele>939.35</ele>
        <time>2016-03-26T11:30:39Z</time>
      </trkpt>
      <trkpt lat="45.3567" lon="4.62487">
        <ele>938.86</ele>
        <time>2016-03-26T11:30:56Z</time>
      </trkpt>
      <trkpt lat="45.35689" lon="4.62501">
        <ele>939.83</ele>
        <time>2016-03-26T11:31:12Z</time>
      </trkpt>
      <trkpt lat="45.35705" lon="4.62512">
        <ele>939.83</ele>
        <time>2016-03-26T11:31:25Z</time>
      </trkpt>
      <trkpt lat="45.35709" lon="4.6251">
        <ele>938.86</ele>
        <time>2016-03-26T11:31:29Z</time>
      </trkpt>
      <trkpt lat="45.35723" lon="4.62475">
        <ele>939.83</ele>
        <time>2016-03-26T11:31:49Z</time>
      </trkpt>
      <trkpt lat="45.35731" lon="4.62449">
        <ele>943.67</ele>
        <time>2016-03-26T11:32:05Z</time>
      </trkpt>
      <trkpt lat="45.35745" lon="4.62447">
        <ele>944.15</ele>
        <time>2016-03-26T11:32:20Z</time>
      </trkpt>
      <trkpt lat="45.35751" lon="4.62447">
        <ele>944.15</ele>
        <time>2016-03-26T11:32:26Z</time>
      </trkpt>
      <trkpt lat="45.35757" lon="4.62447">
        <ele>944.63</ele>
        <time>2016-03-26T11:32:32Z</time>
      </trkpt>
      <trkpt lat="45.35762" lon="4.62448">
        <ele>944.63</ele>
        <time>2016-03-26T11:32:36Z</time>
      </trkpt>
      <trkpt lat="45.35776" lon="4.62447">
        <ele>946.07</ele>
        <time>2016-03-26T11:32:48Z</time>
      </trkpt>
      <trkpt lat="45.35794" lon="4.62442">
        <ele>949.44</ele>
        <time>2016-03-26T11:33:04Z</time>
      </trkpt>
      <trkpt lat="45.35795" lon="4.62442">
        <ele>949.92</ele>
        <time>2016-03-26T11:33:05Z</time>
      </trkpt>
      <trkpt lat="45.35812" lon="4.62439">
        <ele>952.8</ele>
        <time>2016-03-26T11:33:21Z</time>
      </trkpt>
      <trkpt lat="45.35826" lon="4.62436">
        <ele>953.77</ele>
        <time>2016-03-26T11:33:36Z</time>
      </trkpt>
      <trkpt lat="45.35847" lon="4.62428">
        <ele>954.73</ele>
        <time>2016-03-26T11:33:54Z</time>
      </trkpt>
      <trkpt lat="45.35864" lon="4.62427">
        <ele>954.73</ele>
        <time>2016-03-26T11:34:10Z</time>
      </trkpt>
      <trkpt lat="45.35878" lon="4.62421">
        <ele>952.8</ele>
        <time>2016-03-26T11:34:22Z</time>
      </trkpt>
      <trkpt lat="45.35892" lon="4.62416">
        <ele>955.69</ele>
        <time>2016-03-26T11:34:35Z</time>
      </trkpt>
      <trkpt lat="45.35894" lon="4.62414">
        <ele>958.57</ele>
        <time>2016-03-26T11:34:46Z</time>
      </trkpt>
      <trkpt lat="45.35902" lon="4.62414">
        <ele>962.9</ele>
        <time>2016-03-26T11:34:59Z</time>
      </trkpt>
      <trkpt lat="45.35917" lon="4.62407">
        <ele>966.74</ele>
        <time>2016-03-26T11:35:14Z</time>
      </trkpt>
      <trkpt lat="45.35923" lon="4.62406">
        <ele>968.18</ele>
        <time>2016-03-26T11:35:28Z</time>
      </trkpt>
      <trkpt lat="45.35932" lon="4.62407">
        <ele>963.86</ele>
        <time>2016-03-26T11:35:42Z</time>
      </trkpt>
      <trkpt lat="45.35939" lon="4.62401">
        <ele>963.38</ele>
        <time>2016-03-26T11:35:59Z</time>
      </trkpt>
      <trkpt lat="45.3595" lon="4.62388">
        <ele>963.86</ele>
        <time>2016-03-26T11:36:18Z</time>
      </trkpt>
      <trkpt lat="45.35957" lon="4.62378">
        <ele>963.86</ele>
        <time>2016-03-26T11:36:35Z</time>
      </trkpt>
      <trkpt lat="45.35971" lon="4.6236">
        <ele>962.9</ele>
        <time>2016-03-26T11:36:50Z</time>
      </trkpt>
      <trkpt lat="45.35978" lon="4.62346">
        <ele>962.9</ele>
        <time>2016-03-26T11:37:03Z</time>
      </trkpt>
      <trkpt lat="45.35983" lon="4.62337">
        <ele>964.82</ele>
        <time>2016-03-26T11:37:15Z</time>
      </trkpt>
      <trkpt lat="45.35988" lon="4.62323">
        <ele>967.22</ele>
        <time>2016-03-26T11:37:33Z</time>
      </trkpt>
      <trkpt lat="45.35996" lon="4.62299">
        <ele>973.47</ele>
        <time>2016-03-26T11:37:50Z</time>
      </trkpt>
      <trkpt lat="45.36006" lon="4.62274">
        <ele>980.68</ele>
        <time>2016-03-26T11:38:09Z</time>
      </trkpt>
      <trkpt lat="45.3601" lon="4.62247">
        <ele>981.16</ele>
        <time>2016-03-26T11:38:30Z</time>
      </trkpt>
      <trkpt lat="45.36027" lon="4.62208">
        <ele>980.68</ele>
        <time>2016-03-26T11:38:45Z</time>
      </trkpt>
      <trkpt lat="45.36038" lon="4.6219">
        <ele>980.2</ele>
        <time>2016-03-26T11:38:59Z</time>
      </trkpt>
      <trkpt lat="45.36042" lon="4.62181">
        <ele>979.72</ele>
        <time>2016-03-26T11:39:15Z</time>
      </trkpt>
      <trkpt lat="45.36046" lon="4.62176">
        <ele>983.09</ele>
        <time>2016-03-26T11:39:31Z</time>
      </trkpt>
      <trkpt lat="45.36048" lon="4.62174">
        <ele>984.05</ele>
        <time>2016-03-26T11:39:35Z</time>
      </trkpt>
      <trkpt lat="45.36058" lon="4.6216">
        <ele>985.01</ele>
        <time>2016-03-26T11:39:50Z</time>
      </trkpt>
      <trkpt lat="45.36062" lon="4.62152">
        <ele>986.45</ele>
        <time>2016-03-26T11:40:04Z</time>
      </trkpt>
      <trkpt lat="45.36067" lon="4.62146">
        <ele>985.97</ele>
        <time>2016-03-26T11:40:18Z</time>
      </trkpt>
      <trkpt lat="45.36075" lon="4.62138">
        <ele>985.97</ele>
        <time>2016-03-26T11:40:33Z</time>
      </trkpt>
      <trkpt lat="45.36086" lon="4.62126">
        <ele>987.89</ele>
        <time>2016-03-26T11:40:48Z</time>
      </trkpt>
      <trkpt lat="45.36094" lon="4.62118">
        <ele>989.81</ele>
        <time>2016-03-26T11:41:04Z</time>
      </trkpt>
      <trkpt lat="45.36095" lon="4.62113">
        <ele>992.22</ele>
        <time>2016-03-26T11:41:25Z</time>
      </trkpt>
      <trkpt lat="45.36102" lon="4.62104">
        <ele>992.7</ele>
        <time>2016-03-26T11:41:48Z</time>
      </trkpt>
      <trkpt lat="45.36109" lon="4.62095">
        <ele>994.62</ele>
        <time>2016-03-26T11:42:06Z</time>
      </trkpt>
      <trkpt lat="45.36113" lon="4.62089">
        <ele>995.58</ele>
        <time>2016-03-26T11:42:22Z</time>
      </trkpt>
      <trkpt lat="45.36116" lon="4.62084">
        <ele>997.02</ele>
        <time>2016-03-26T11:42:36Z</time>
      </trkpt>
      <trkpt lat="45.36117" lon="4.62079">
        <ele>998.47</ele>
        <time>2016-03-26T11:42:48Z</time>
      </trkpt>
      <trkpt lat="45.36123" lon="4.62071">
        <ele>1006.64</ele>
        <time>2016-03-26T11:43:04Z</time>
      </trkpt>
      <trkpt lat="45.36128" lon="4.62064">
        <ele>1013.85</ele>
        <time>2016-03-26T11:43:17Z</time>
      </trkpt>
      <trkpt lat="45.36133" lon="4.62059">
        <ele>1020.58</ele>
        <time>2016-03-26T11:43:29Z</time>
      </trkpt>
      <trkpt lat="45.36144" lon="4.62057">
        <ele>1032.11</ele>
        <time>2016-03-26T11:43:40Z</time>
      </trkpt>
      <trkpt lat="45.36146" lon="4.62057">
        <ele>1033.55</ele>
        <time>2016-03-26T11:43:41Z</time>
      </trkpt>
      <trkpt lat="45.36161" lon="4.62049">
        <ele>1036.44</ele>
        <time>2016-03-26T11:43:54Z</time>
      </trkpt>
      <trkpt lat="45.36168" lon="4.62048">
        <ele>1038.36</ele>
        <time>2016-03-26T11:43:58Z</time>
      </trkpt>
      <trkpt lat="45.36201" lon="4.62028">
        <ele>1049.9</ele>
        <time>2016-03-26T11:44:11Z</time>
      </trkpt>
      <trkpt lat="45.36216" lon="4.62022">
        <ele>1053.74</ele>
        <time>2016-03-26T11:44:21Z</time>
      </trkpt>
      <trkpt lat="45.3622" lon="4.62022">
        <ele>1054.7</ele>
        <time>2016-03-26T11:44:23Z</time>
      </trkpt>
      <trkpt lat="45.36244" lon="4.6201">
        <ele>1048.94</ele>
        <time>2016-03-26T11:44:35Z</time>
      </trkpt>
      <trkpt lat="45.3626" lon="4.62006">
        <ele>1047.49</ele>
        <time>2016-03-26T11:44:46Z</time>
      </trkpt>
      <trkpt lat="45.36275" lon="4.62003">
        <ele>1046.53</ele>
        <time>2016-03-26T11:44:59Z</time>
      </trkpt>
      <trkpt lat="45.36275" lon="4.62003">
        <ele>1046.53</ele>
        <time>2016-03-26T11:45:00Z</time>
      </trkpt>
      <trkpt lat="45.36292" lon="4.62007">
        <ele>1047.49</ele>
        <time>2016-03-26T11:45:12Z</time>
      </trkpt>
      <trkpt lat="45.36293" lon="4.62007">
        <ele>1047.49</ele>
        <time>2016-03-26T11:45:13Z</time>
      </trkpt>
      <trkpt lat="45.36306" lon="4.62012">
        <ele>1047.49</ele>
        <time>2016-03-26T11:45:25Z</time>
      </trkpt>
      <trkpt lat="45.36327" lon="4.62012">
        <ele>1045.57</ele>
        <time>2016-03-26T11:45:39Z</time>
      </trkpt>
      <trkpt lat="45.36346" lon="4.62018">
        <ele>1047.01</ele>
        <time>2016-03-26T11:45:52Z</time>
      </trkpt>
      <trkpt lat="45.36365" lon="4.62028">
        <ele>1049.9</ele>
        <time>2016-03-26T11:46:07Z</time>
      </trkpt>
      <trkpt lat="45.36378" lon="4.62033">
        <ele>1053.26</ele>
        <time>2016-03-26T11:46:21Z</time>
      </trkpt>
      <trkpt lat="45.36392" lon="4.62035">
        <ele>1052.78</ele>
        <time>2016-03-26T11:46:32Z</time>
      </trkpt>
      <trkpt lat="45.36408" lon="4.62037">
        <ele>1054.22</ele>
        <time>2016-03-26T11:46:45Z</time>
      </trkpt>
      <trkpt lat="45.36422" lon="4.62039">
        <ele>1056.15</ele>
        <time>2016-03-26T11:46:59Z</time>
      </trkpt>
      <trkpt lat="45.36432" lon="4.6204">
        <ele>1056.15</ele>
        <time>2016-03-26T11:47:08Z</time>
      </trkpt>
      <trkpt lat="45.36445" lon="4.62045">
        <ele>1058.55</ele>
        <time>2016-03-26T11:47:19Z</time>
      </trkpt>
      <trkpt lat="45.36457" lon="4.62053">
        <ele>1061.43</ele>
        <time>2016-03-26T11:47:33Z</time>
      </trkpt>
      <trkpt lat="45.36468" lon="4.62057">
        <ele>1064.8</ele>
        <time>2016-03-26T11:47:46Z</time>
      </trkpt>
      <trkpt lat="45.3648" lon="4.62058">
        <ele>1072.01</ele>
        <time>2016-03-26T11:47:59Z</time>
      </trkpt>
      <trkpt lat="45.36487" lon="4.62065">
        <ele>1079.22</ele>
        <time>2016-03-26T11:48:10Z</time>
      </trkpt>
      <trkpt lat="45.3649" lon="4.62066">
        <ele>1080.18</ele>
        <time>2016-03-26T11:48:12Z</time>
      </trkpt>
      <trkpt lat="45.36501" lon="4.6207">
        <ele>1084.5</ele>
        <time>2016-03-26T11:48:25Z</time>
      </trkpt>
      <trkpt lat="45.36506" lon="4.62075">
        <ele>1085.95</ele>
        <time>2016-03-26T11:48:31Z</time>
      </trkpt>
      <trkpt lat="45.36507" lon="4.6208">
        <ele>1087.39</ele>
        <time>2016-03-26T11:48:35Z</time>
      </trkpt>
      <trkpt lat="45.36523" lon="4.62086">
        <ele>1088.35</ele>
        <time>2016-03-26T11:48:48Z</time>
      </trkpt>
      <trkpt lat="45.36531" lon="4.62088">
        <ele>1089.79</ele>
        <time>2016-03-26T11:48:54Z</time>
      </trkpt>
      <trkpt lat="45.36542" lon="4.62096">
        <ele>1090.27</ele>
        <time>2016-03-26T11:49:04Z</time>
      </trkpt>
      <trkpt lat="45.36555" lon="4.62097">
        <ele>1090.75</ele>
        <time>2016-03-26T11:49:16Z</time>
      </trkpt>
      <trkpt lat="45.36566" lon="4.62101">
        <ele>1095.56</ele>
        <time>2016-03-26T11:49:28Z</time>
      </trkpt>
      <trkpt lat="45.36574" lon="4.62098">
        <ele>1096.04</ele>
        <time>2016-03-26T11:49:39Z</time>
      </trkpt>
      <trkpt lat="45.36584" lon="4.62102">
        <ele>1100.85</ele>
        <time>2016-03-26T11:49:50Z</time>
      </trkpt>
      <trkpt lat="45.36593" lon="4.62105">
        <ele>1107.58</ele>
        <time>2016-03-26T11:50:03Z</time>
      </trkpt>
      <trkpt lat="45.36598" lon="4.62109">
        <ele>1113.34</ele>
        <time>2016-03-26T11:50:15Z</time>
      </trkpt>
      <trkpt lat="45.36608" lon="4.62115">
        <ele>1120.55</ele>
        <time>2016-03-26T11:50:27Z</time>
      </trkpt>
      <trkpt lat="45.36616" lon="4.62112">
        <ele>1126.8</ele>
        <time>2016-03-26T11:50:41Z</time>
      </trkpt>
      <trkpt lat="45.36621" lon="4.62117">
        <ele>1135.94</ele>
        <time>2016-03-26T11:50:53Z</time>
      </trkpt>
      <trkpt lat="45.36631" lon="4.62117">
        <ele>1139.78</ele>
        <time>2016-03-26T11:51:06Z</time>
      </trkpt>
      <trkpt lat="45.36639" lon="4.62114">
        <ele>1141.7</ele>
        <time>2016-03-26T11:51:17Z</time>
      </trkpt>
      <trkpt lat="45.36642" lon="4.6211">
        <ele>1145.55</ele>
        <time>2016-03-26T11:51:28Z</time>
      </trkpt>
      <trkpt lat="45.36642" lon="4.62106">
        <ele>1147.95</ele>
        <time>2016-03-26T11:51:41Z</time>
      </trkpt>
      <trkpt lat="45.36648" lon="4.62101">
        <ele>1152.76</ele>
        <time>2016-03-26T11:51:55Z</time>
      </trkpt>
      <trkpt lat="45.36655" lon="4.62102">
        <ele>1155.16</ele>
        <time>2016-03-26T11:52:09Z</time>
      </trkpt>
      <trkpt lat="45.36661" lon="4.62103">
        <ele>1155.16</ele>
        <time>2016-03-26T11:52:22Z</time>
      </trkpt>
      <trkpt lat="45.36678" lon="4.6209">
        <ele>1143.63</ele>
        <time>2016-03-26T11:52:33Z</time>
      </trkpt>
      <trkpt lat="45.367" lon="4.62074">
        <ele>1121.03</ele>
        <time>2016-03-26T11:52:49Z</time>
      </trkpt>
      <trkpt lat="45.36707" lon="4.62076">
        <ele>1119.59</ele>
        <time>2016-03-26T11:52:59Z</time>
      </trkpt>
      <trkpt lat="45.36712" lon="4.62072">
        <ele>1119.59</ele>
        <time>2016-03-26T11:53:13Z</time>
      </trkpt>
      <trkpt lat="45.36713" lon="4.62069">
        <ele>1120.07</ele>
        <time>2016-03-26T11:53:18Z</time>
      </trkpt>
      <trkpt lat="45.36709" lon="4.62058">
        <ele>1120.07</ele>
        <time>2016-03-26T11:53:33Z</time>
      </trkpt>
      <trkpt lat="45.36709" lon="4.62059">
        <ele>1119.59</ele>
        <time>2016-03-26T11:53:57Z</time>
      </trkpt>
      <trkpt lat="45.3671" lon="4.62058">
        <ele>1119.11</ele>
        <time>2016-03-26T11:54:27Z</time>
      </trkpt>
      <trkpt lat="45.3671" lon="4.62057">
        <ele>1118.63</ele>
        <time>2016-03-26T11:54:52Z</time>
      </trkpt>
      <trkpt lat="45.3671" lon="4.62057">
        <ele>1118.63</ele>
        <time>2016-03-26T11:55:13Z</time>
      </trkpt>
      <trkpt lat="45.3671" lon="4.62056">
        <ele>1118.63</ele>
        <time>2016-03-26T11:55:41Z</time>
      </trkpt>
      <trkpt lat="45.3671" lon="4.62056">
        <ele>1118.15</ele>
        <time>2016-03-26T11:56:07Z</time>
      </trkpt>
      <trkpt lat="45.36709" lon="4.62056">
        <ele>1118.15</ele>
        <time>2016-03-26T11:56:30Z</time>
      </trkpt>
      <trkpt lat="45.36709" lon="4.62056">
        <ele>1118.15</ele>
        <time>2016-03-26T11:57:02Z</time>
      </trkpt>
      <trkpt lat="45.36709" lon="4.62056">
        <ele>1118.15</ele>
        <time>2016-03-26T11:57:33Z</time>
      </trkpt>
      <trkpt lat="45.36709" lon="4.62056">
        <ele>1118.15</ele>
        <time>2016-03-26T11:58:01Z</time>
      </trkpt>
      <trkpt lat="45.36709" lon="4.62056">
        <ele>1118.15</ele>
        <time>2016-03-26T11:58:37Z</time>
      </trkpt>
      <trkpt lat="45.36709" lon="4.62056">
        <ele>1118.15</ele>
        <time>2016-03-26T11:59:01Z</time>
      </trkpt>
      <trkpt lat="45.36709" lon="4.62056">
        <ele>1118.63</ele>
        <time>2016-03-26T11:59:30Z</time>
      </trkpt>
      <trkpt lat="45.36709" lon="4.62056">
        <ele>1118.63</ele>
        <time>2016-03-26T12:00:08Z</time>
      </trkpt>
      <trkpt lat="45.36709" lon="4.62056">
        <ele>1118.63</ele>
        <time>2016-03-26T12:00:40Z</time>
      </trkpt>
      <trkpt lat="45.36709" lon="4.62056">
        <ele>1118.63</ele>
        <time>2016-03-26T12:01:09Z</time>
      </trkpt>
      <trkpt lat="45.3671" lon="4.62056">
        <ele>1118.63</ele>
        <time>2016-03-26T12:01:51Z</time>
      </trkpt>
      <trkpt lat="45.3671" lon="4.62056">
        <ele>1118.63</ele>
        <time>2016-03-26T12:02:20Z</time>
      </trkpt>
      <trkpt lat="45.3671" lon="4.62056">
        <ele>1118.15</ele>
        <time>2016-03-26T12:02:57Z</time>
      </trkpt>
      <trkpt lat="45.3671" lon="4.62056">
        <ele>1118.15</ele>
        <time>2016-03-26T12:03:45Z</time>
      </trkpt>
      <trkpt lat="45.3671" lon="4.62056">
        <ele>1118.15</ele>
        <time>2016-03-26T12:04:26Z</time>
      </trkpt>
      <trkpt lat="45.3671" lon="4.62056">
        <ele>1118.15</ele>
        <time>2016-03-26T12:04:56Z</time>
      </trkpt>
      <trkpt lat="45.3671" lon="4.62056">
        <ele>1118.15</ele>
        <time>2016-03-26T12:05:37Z</time>
      </trkpt>
      <trkpt lat="45.3671" lon="4.62056">
        <ele>1118.15</ele>
        <time>2016-03-26T12:06:25Z</time>
      </trkpt>
      <trkpt lat="45.3671" lon="4.62056">
        <ele>1118.63</ele>
        <time>2016-03-26T12:06:54Z</time>
      </trkpt>
      <trkpt lat="45.36709" lon="4.62055">
        <ele>1119.11</ele>
        <time>2016-03-26T12:07:20Z</time>
      </trkpt>
      <trkpt lat="45.36709" lon="4.62055">
        <ele>1119.11</ele>
        <time>2016-03-26T12:07:48Z</time>
      </trkpt>
      <trkpt lat="45.36709" lon="4.62055">
        <ele>1119.59</ele>
        <time>2016-03-26T12:08:17Z</time>
      </trkpt>
      <trkpt lat="45.36709" lon="4.62055">
        <ele>1119.59</ele>
        <time>2016-03-26T12:08:46Z</time>
      </trkpt>
      <trkpt lat="45.36709" lon="4.62055">
        <ele>1119.59</ele>
        <time>2016-03-26T12:09:19Z</time>
      </trkpt>
      <trkpt lat="45.36709" lon="4.62055">
        <ele>1119.59</ele>
        <time>2016-03-26T12:09:49Z</time>
      </trkpt>
      <trkpt lat="45.36709" lon="4.62055">
        <ele>1119.59</ele>
        <time>2016-03-26T12:10:15Z</time>
      </trkpt>
      <trkpt lat="45.36709" lon="4.62055">
        <ele>1120.07</ele>
        <time>2016-03-26T12:10:40Z</time>
      </trkpt>
      <trkpt lat="45.36709" lon="4.62055">
        <ele>1120.07</ele>
        <time>2016-03-26T12:11:06Z</time>
      </trkpt>
      <trkpt lat="45.36709" lon="4.62055">
        <ele>1120.07</ele>
        <time>2016-03-26T12:11:33Z</time>
      </trkpt>
      <trkpt lat="45.36709" lon="4.62055">
        <ele>1120.07</ele>
        <time>2016-03-26T12:11:57Z</time>
      </trkpt>
      <trkpt lat="45.36709" lon="4.62055">
        <ele>1120.55</ele>
        <time>2016-03-26T12:12:22Z</time>
      </trkpt>
      <trkpt lat="45.36709" lon="4.62055">
        <ele>1120.07</ele>
        <time>2016-03-26T12:12:59Z</time>
      </trkpt>
      <trkpt lat="45.36709" lon="4.62056">
        <ele>1120.55</ele>
        <time>2016-03-26T12:13:22Z</time>
      </trkpt>
      <trkpt lat="45.36709" lon="4.62056">
        <ele>1120.55</ele>
        <time>2016-03-26T12:13:55Z</time>
      </trkpt>
      <trkpt lat="45.36709" lon="4.62056">
        <ele>1120.55</ele>
        <time>2016-03-26T12:14:23Z</time>
      </trkpt>
      <trkpt lat="45.36709" lon="4.62056">
        <ele>1120.07</ele>
        <time>2016-03-26T12:14:46Z</time>
      </trkpt>
      <trkpt lat="45.36709" lon="4.62056">
        <ele>1120.07</ele>
        <time>2016-03-26T12:15:20Z</time>
      </trkpt>
      <trkpt lat="45.36709" lon="4.62056">
        <ele>1120.07</ele>
        <time>2016-03-26T12:15:45Z</time>
      </trkpt>
      <trkpt lat="45.36709" lon="4.62056">
        <ele>1120.07</ele>
        <time>2016-03-26T12:16:13Z</time>
      </trkpt>
      <trkpt lat="45.36709" lon="4.62056">
        <ele>1120.07</ele>
        <time>2016-03-26T12:16:48Z</time>
      </trkpt>
      <trkpt lat="45.36708" lon="4.62056">
        <ele>1120.07</ele>
        <time>2016-03-26T12:17:20Z</time>
      </trkpt>
      <trkpt lat="45.36709" lon="4.62056">
        <ele>1120.07</ele>
        <time>2016-03-26T12:17:43Z</time>
      </trkpt>
      <trkpt lat="45.36709" lon="4.62056">
        <ele>1120.07</ele>
        <time>2016-03-26T12:18:12Z</time>
      </trkpt>
      <trkpt lat="45.36709" lon="4.62056">
        <ele>1119.59</ele>
        <time>2016-03-26T12:18:42Z</time>
      </trkpt>
      <trkpt lat="45.36709" lon="4.62056">
        <ele>1119.11</ele>
        <time>2016-03-26T12:19:14Z</time>
      </trkpt>
      <trkpt lat="45.36709" lon="4.62056">
        <ele>1119.11</ele>
        <time>2016-03-26T12:19:39Z</time>
      </trkpt>
      <trkpt lat="45.36709" lon="4.62057">
        <ele>1118.63</ele>
        <time>2016-03-26T12:20:12Z</time>
      </trkpt>
      <trkpt lat="45.36709" lon="4.62057">
        <ele>1118.63</ele>
        <time>2016-03-26T12:20:39Z</time>
      </trkpt>
      <trkpt lat="45.36708" lon="4.62056">
        <ele>1118.63</ele>
        <time>2016-03-26T12:21:15Z</time>
      </trkpt>
      <trkpt lat="45.36708" lon="4.62056">
        <ele>1119.11</ele>
        <time>2016-03-26T12:21:50Z</time>
      </trkpt>
      <trkpt lat="45.36707" lon="4.62056">
        <ele>1119.11</ele>
        <time>2016-03-26T12:22:14Z</time>
      </trkpt>
      <trkpt lat="45.36707" lon="4.62057">
        <ele>1119.59</ele>
        <time>2016-03-26T12:22:47Z</time>
      </trkpt>
      <trkpt lat="45.36707" lon="4.62056">
        <ele>1119.59</ele>
        <time>2016-03-26T12:23:22Z</time>
      </trkpt>
      <trkpt lat="45.36707" lon="4.62056">
        <ele>1119.59</ele>
        <time>2016-03-26T12:23:58Z</time>
      </trkpt>
      <trkpt lat="45.36707" lon="4.62057">
        <ele>1119.59</ele>
        <time>2016-03-26T12:24:31Z</time>
      </trkpt>
      <trkpt lat="45.36707" lon="4.62057">
        <ele>1119.59</ele>
        <time>2016-03-26T12:25:08Z</time>
      </trkpt>
      <trkpt lat="45.36707" lon="4.62057">
        <ele>1119.59</ele>
        <time>2016-03-26T12:25:44Z</time>
      </trkpt>
      <trkpt lat="45.36707" lon="4.62057">
        <ele>1119.59</ele>
        <time>2016-03-26T12:26:20Z</time>
      </trkpt>
      <trkpt lat="45.36707" lon="4.62057">
        <ele>1119.59</ele>
        <time>2016-03-26T12:27:00Z</time>
      </trkpt>
      <trkpt lat="45.36708" lon="4.62057">
        <ele>1119.59</ele>
        <time>2016-03-26T12:27:31Z</time>
      </trkpt>
      <trkpt lat="45.36708" lon="4.62056">
        <ele>1120.07</ele>
        <time>2016-03-26T12:28:13Z</time>
      </trkpt>
      <trkpt lat="45.36708" lon="4.62056">
        <ele>1120.07</ele>
        <time>2016-03-26T12:28:46Z</time>
      </trkpt>
      <trkpt lat="45.36708" lon="4.62056">
        <ele>1119.59</ele>
        <time>2016-03-26T12:29:16Z</time>
      </trkpt>
      <trkpt lat="45.36708" lon="4.62056">
        <ele>1120.07</ele>
        <time>2016-03-26T12:29:47Z</time>
      </trkpt>
      <trkpt lat="45.36708" lon="4.62056">
        <ele>1119.59</ele>
        <time>2016-03-26T12:30:19Z</time>
      </trkpt>
      <trkpt lat="45.36708" lon="4.62056">
        <ele>1119.59</ele>
        <time>2016-03-26T12:30:58Z</time>
      </trkpt>
      <trkpt lat="45.36708" lon="4.62056">
        <ele>1119.59</ele>
        <time>2016-03-26T12:31:20Z</time>
      </trkpt>
      <trkpt lat="45.36708" lon="4.62057">
        <ele>1119.11</ele>
        <time>2016-03-26T12:31:54Z</time>
      </trkpt>
      <trkpt lat="45.36708" lon="4.62057">
        <ele>1119.11</ele>
        <time>2016-03-26T12:32:26Z</time>
      </trkpt>
      <trkpt lat="45.36708" lon="4.62057">
        <ele>1119.11</ele>
        <time>2016-03-26T12:33:00Z</time>
      </trkpt>
      <trkpt lat="45.36708" lon="4.62057">
        <ele>1119.11</ele>
        <time>2016-03-26T12:33:34Z</time>
      </trkpt>
      <trkpt lat="45.36708" lon="4.62057">
        <ele>1118.63</ele>
        <time>2016-03-26T12:34:09Z</time>
      </trkpt>
      <trkpt lat="45.36709" lon="4.62057">
        <ele>1119.59</ele>
        <time>2016-03-26T12:34:41Z</time>
      </trkpt>
      <trkpt lat="45.36709" lon="4.62057">
        <ele>1120.07</ele>
        <time>2016-03-26T12:35:17Z</time>
      </trkpt>
      <trkpt lat="45.3671" lon="4.62056">
        <ele>1120.07</ele>
        <time>2016-03-26T12:35:46Z</time>
      </trkpt>
      <trkpt lat="45.3671" lon="4.62056">
        <ele>1120.07</ele>
        <time>2016-03-26T12:36:19Z</time>
      </trkpt>
      <trkpt lat="45.3671" lon="4.62056">
        <ele>1120.07</ele>
        <time>2016-03-26T12:36:42Z</time>
      </trkpt>
      <trkpt lat="45.3671" lon="4.62056">
        <ele>1120.07</ele>
        <time>2016-03-26T12:37:09Z</time>
      </trkpt>
      <trkpt lat="45.3671" lon="4.62057">
        <ele>1119.59</ele>
        <time>2016-03-26T12:37:27Z</time>
      </trkpt>
      <trkpt lat="45.36711" lon="4.62058">
        <ele>1119.11</ele>
        <time>2016-03-26T12:37:54Z</time>
      </trkpt>
      <trkpt lat="45.36712" lon="4.62058">
        <ele>1118.15</ele>
        <time>2016-03-26T12:38:19Z</time>
      </trkpt>
      <trkpt lat="45.36711" lon="4.62058">
        <ele>1115.75</ele>
        <time>2016-03-26T12:38:54Z</time>
      </trkpt>
      <trkpt lat="45.36711" lon="4.62058">
        <ele>1115.27</ele>
        <time>2016-03-26T12:39:19Z</time>
      </trkpt>
      <trkpt lat="45.36712" lon="4.62058">
        <ele>1114.79</ele>
        <time>2016-03-26T12:39:45Z</time>
      </trkpt>
      <trkpt lat="45.36712" lon="4.62057">
        <ele>1113.34</ele>
        <time>2016-03-26T12:40:24Z</time>
      </trkpt>
      <trkpt lat="45.36711" lon="4.62057">
        <ele>1113.82</ele>
        <time>2016-03-26T12:40:48Z</time>
      </trkpt>
      <trkpt lat="45.3671" lon="4.62056">
        <ele>1114.79</ele>
        <time>2016-03-26T12:41:13Z</time>
      </trkpt>
      <trkpt lat="45.3671" lon="4.62056">
        <ele>1114.79</ele>
        <time>2016-03-26T12:41:29Z</time>
      </trkpt>
      <trkpt lat="45.36711" lon="4.62055">
        <ele>1115.75</ele>
        <time>2016-03-26T12:41:57Z</time>
      </trkpt>
      <trkpt lat="45.36711" lon="4.62055">
        <ele>1116.23</ele>
        <time>2016-03-26T12:42:28Z</time>
      </trkpt>
      <trkpt lat="45.3671" lon="4.62056">
        <ele>1116.23</ele>
        <time>2016-03-26T12:42:51Z</time>
      </trkpt>
      <trkpt lat="45.36709" lon="4.62055">
        <ele>1117.19</ele>
        <time>2016-03-26T12:43:11Z</time>
      </trkpt>
      <trkpt lat="45.3671" lon="4.62056">
        <ele>1117.19</ele>
        <time>2016-03-26T12:43:24Z</time>
      </trkpt>
      <trkpt lat="45.3671" lon="4.62054">
        <ele>1117.67</ele>
        <time>2016-03-26T12:43:36Z</time>
      </trkpt>
      <trkpt lat="45.36711" lon="4.62055">
        <ele>1118.15</ele>
        <time>2016-03-26T12:43:47Z</time>
      </trkpt>
      <trkpt lat="45.36711" lon="4.62055">
        <ele>1119.11</ele>
        <time>2016-03-26T12:44:01Z</time>
      </trkpt>
      <trkpt lat="45.36716" lon="4.62064">
        <ele>1119.11</ele>
        <time>2016-03-26T12:44:12Z</time>
      </trkpt>
      <trkpt lat="45.36719" lon="4.62068">
        <ele>1118.15</ele>
        <time>2016-03-26T12:44:27Z</time>
      </trkpt>
      <trkpt lat="45.36721" lon="4.62072">
        <ele>1117.67</ele>
        <time>2016-03-26T12:44:39Z</time>
      </trkpt>
      <trkpt lat="45.36721" lon="4.62072">
        <ele>1116.71</ele>
        <time>2016-03-26T12:44:56Z</time>
      </trkpt>
      <trkpt lat="45.36717" lon="4.62065">
        <ele>1117.19</ele>
        <time>2016-03-26T12:45:10Z</time>
      </trkpt>
      <trkpt lat="45.36714" lon="4.6206">
        <ele>1117.67</ele>
        <time>2016-03-26T12:45:22Z</time>
      </trkpt>
      <trkpt lat="45.36713" lon="4.62058">
        <ele>1117.19</ele>
        <time>2016-03-26T12:45:39Z</time>
      </trkpt>
      <trkpt lat="45.36713" lon="4.62056">
        <ele>1117.19</ele>
        <time>2016-03-26T12:45:54Z</time>
      </trkpt>
      <trkpt lat="45.36712" lon="4.62057">
        <ele>1117.19</ele>
        <time>2016-03-26T12:46:09Z</time>
      </trkpt>
      <trkpt lat="45.36712" lon="4.62057">
        <ele>1117.67</ele>
        <time>2016-03-26T12:46:22Z</time>
      </trkpt>
      <trkpt lat="45.36711" lon="4.62057">
        <ele>1117.67</ele>
        <time>2016-03-26T12:46:38Z</time>
      </trkpt>
      <trkpt lat="45.36711" lon="4.62057">
        <ele>1117.67</ele>
        <time>2016-03-26T12:46:56Z</time>
      </trkpt>
      <trkpt lat="45.36714" lon="4.62056">
        <ele>1117.19</ele>
        <time>2016-03-26T12:47:09Z</time>
      </trkpt>
      <trkpt lat="45.36714" lon="4.62055">
        <ele>1116.71</ele>
        <time>2016-03-26T12:47:26Z</time>
      </trkpt>
      <trkpt lat="45.36714" lon="4.62056">
        <ele>1116.71</ele>
        <time>2016-03-26T12:47:45Z</time>
      </trkpt>
      <trkpt lat="45.36715" lon="4.62055">
        <ele>1116.23</ele>
        <time>2016-03-26T12:48:00Z</time>
      </trkpt>
      <trkpt lat="45.36715" lon="4.62057">
        <ele>1115.75</ele>
        <time>2016-03-26T12:48:19Z</time>
      </trkpt>
      <trkpt lat="45.36716" lon="4.62056">
        <ele>1116.23</ele>
        <time>2016-03-26T12:48:33Z</time>
      </trkpt>
      <trkpt lat="45.3672" lon="4.62051">
        <ele>1116.71</ele>
        <time>2016-03-26T12:48:45Z</time>
      </trkpt>
      <trkpt lat="45.36721" lon="4.62048">
        <ele>1117.19</ele>
        <time>2016-03-26T12:48:59Z</time>
      </trkpt>
      <trkpt lat="45.36724" lon="4.62037">
        <ele>1116.23</ele>
        <time>2016-03-26T12:49:12Z</time>
      </trkpt>
      <trkpt lat="45.36724" lon="4.62019">
        <ele>1116.71</ele>
        <time>2016-03-26T12:49:28Z</time>
      </trkpt>
      <trkpt lat="45.36723" lon="4.62007">
        <ele>1118.15</ele>
        <time>2016-03-26T12:49:41Z</time>
      </trkpt>
      <trkpt lat="45.36729" lon="4.61996">
        <ele>1122</ele>
        <time>2016-03-26T12:49:55Z</time>
      </trkpt>
      <trkpt lat="45.36737" lon="4.61989">
        <ele>1120.07</ele>
        <time>2016-03-26T12:50:08Z</time>
      </trkpt>
      <trkpt lat="45.36749" lon="4.61997">
        <ele>1118.63</ele>
        <time>2016-03-26T12:50:22Z</time>
      </trkpt>
      <trkpt lat="45.36761" lon="4.62001">
        <ele>1111.9</ele>
        <time>2016-03-26T12:50:36Z</time>
      </trkpt>
      <trkpt lat="45.36762" lon="4.62003">
        <ele>1110.94</ele>
        <time>2016-03-26T12:50:39Z</time>
      </trkpt>
      <trkpt lat="45.36763" lon="4.62006">
        <ele>1109.98</ele>
        <time>2016-03-26T12:50:41Z</time>
      </trkpt>
      <trkpt lat="45.3677" lon="4.62019">
        <ele>1107.1</ele>
        <time>2016-03-26T12:50:54Z</time>
      </trkpt>
      <trkpt lat="45.36775" lon="4.62019">
        <ele>1103.73</ele>
        <time>2016-03-26T12:51:07Z</time>
      </trkpt>
      <trkpt lat="45.36775" lon="4.62017">
        <ele>1103.25</ele>
        <time>2016-03-26T12:51:09Z</time>
      </trkpt>
      <trkpt lat="45.36776" lon="4.62002">
        <ele>1101.81</ele>
        <time>2016-03-26T12:51:21Z</time>
      </trkpt>
      <trkpt lat="45.36774" lon="4.6199">
        <ele>1101.81</ele>
        <time>2016-03-26T12:51:33Z</time>
      </trkpt>
      <trkpt lat="45.36774" lon="4.61977">
        <ele>1101.33</ele>
        <time>2016-03-26T12:51:47Z</time>
      </trkpt>
      <trkpt lat="45.36774" lon="4.61965">
        <ele>1100.85</ele>
        <time>2016-03-26T12:51:59Z</time>
      </trkpt>
      <trkpt lat="45.36775" lon="4.61957">
        <ele>1101.33</ele>
        <time>2016-03-26T12:52:07Z</time>
      </trkpt>
      <trkpt lat="45.36778" lon="4.61944">
        <ele>1103.25</ele>
        <time>2016-03-26T12:52:20Z</time>
      </trkpt>
      <trkpt lat="45.36779" lon="4.61941">
        <ele>1101.81</ele>
        <time>2016-03-26T12:52:45Z</time>
      </trkpt>
      <trkpt lat="45.36779" lon="4.61939">
        <ele>1099.4</ele>
        <time>2016-03-26T12:53:14Z</time>
      </trkpt>
      <trkpt lat="45.36779" lon="4.61934">
        <ele>1097.48</ele>
        <time>2016-03-26T12:53:30Z</time>
      </trkpt>
      <trkpt lat="45.36783" lon="4.6193">
        <ele>1096.52</ele>
        <time>2016-03-26T12:53:39Z</time>
      </trkpt>
      <trkpt lat="45.3679" lon="4.61922">
        <ele>1096.52</ele>
        <time>2016-03-26T12:53:51Z</time>
      </trkpt>
      <trkpt lat="45.36797" lon="4.61913">
        <ele>1095.56</ele>
        <time>2016-03-26T12:54:04Z</time>
      </trkpt>
      <trkpt lat="45.36802" lon="4.61906">
        <ele>1097</ele>
        <time>2016-03-26T12:54:14Z</time>
      </trkpt>
      <trkpt lat="45.36812" lon="4.61906">
        <ele>1095.08</ele>
        <time>2016-03-26T12:54:28Z</time>
      </trkpt>
      <trkpt lat="45.36822" lon="4.61901">
        <ele>1093.16</ele>
        <time>2016-03-26T12:54:40Z</time>
      </trkpt>
      <trkpt lat="45.36831" lon="4.61895">
        <ele>1090.75</ele>
        <time>2016-03-26T12:54:54Z</time>
      </trkpt>
      <trkpt lat="45.36842" lon="4.61887">
        <ele>1086.91</ele>
        <time>2016-03-26T12:55:08Z</time>
      </trkpt>
      <trkpt lat="45.36844" lon="4.61885">
        <ele>1086.43</ele>
        <time>2016-03-26T12:55:10Z</time>
      </trkpt>
      <trkpt lat="45.36856" lon="4.61873">
        <ele>1082.58</ele>
        <time>2016-03-26T12:55:22Z</time>
      </trkpt>
      <trkpt lat="45.36862" lon="4.61865">
        <ele>1079.22</ele>
        <time>2016-03-26T12:55:31Z</time>
      </trkpt>
      <trkpt lat="45.36868" lon="4.61863">
        <ele>1075.85</ele>
        <time>2016-03-26T12:55:36Z</time>
      </trkpt>
      <trkpt lat="45.36878" lon="4.61857">
        <ele>1072.49</ele>
        <time>2016-03-26T12:55:48Z</time>
      </trkpt>
      <trkpt lat="45.36889" lon="4.61856">
        <ele>1071.53</ele>
        <time>2016-03-26T12:56:01Z</time>
      </trkpt>
      <trkpt lat="45.3689" lon="4.61856">
        <ele>1071.53</ele>
        <time>2016-03-26T12:56:02Z</time>
      </trkpt>
      <trkpt lat="45.369" lon="4.6185">
        <ele>1069.6</ele>
        <time>2016-03-26T12:56:14Z</time>
      </trkpt>
      <trkpt lat="45.3691" lon="4.61839">
        <ele>1070.08</ele>
        <time>2016-03-26T12:56:28Z</time>
      </trkpt>
      <trkpt lat="45.36919" lon="4.61826">
        <ele>1071.53</ele>
        <time>2016-03-26T12:56:40Z</time>
      </trkpt>
      <trkpt lat="45.36925" lon="4.61816">
        <ele>1070.57</ele>
        <time>2016-03-26T12:56:51Z</time>
      </trkpt>
      <trkpt lat="45.36932" lon="4.61812">
        <ele>1066.72</ele>
        <time>2016-03-26T12:57:05Z</time>
      </trkpt>
      <trkpt lat="45.36945" lon="4.61818">
        <ele>1063.36</ele>
        <time>2016-03-26T12:57:17Z</time>
      </trkpt>
      <trkpt lat="45.36949" lon="4.61818">
        <ele>1062.39</ele>
        <time>2016-03-26T12:57:23Z</time>
      </trkpt>
      <trkpt lat="45.36966" lon="4.61819">
        <ele>1059.51</ele>
        <time>2016-03-26T12:57:37Z</time>
      </trkpt>
      <trkpt lat="45.36976" lon="4.61817">
        <ele>1056.63</ele>
        <time>2016-03-26T12:57:49Z</time>
      </trkpt>
      <trkpt lat="45.36987" lon="4.61816">
        <ele>1056.63</ele>
        <time>2016-03-26T12:58:03Z</time>
      </trkpt>
      <trkpt lat="45.37" lon="4.61819">
        <ele>1056.15</ele>
        <time>2016-03-26T12:58:18Z</time>
      </trkpt>
      <trkpt lat="45.37011" lon="4.61818">
        <ele>1054.22</ele>
        <time>2016-03-26T12:58:33Z</time>
      </trkpt>
      <trkpt lat="45.37014" lon="4.61814">
        <ele>1053.74</ele>
        <time>2016-03-26T12:58:47Z</time>
      </trkpt>
      <trkpt lat="45.37018" lon="4.61813">
        <ele>1051.34</ele>
        <time>2016-03-26T12:59:01Z</time>
      </trkpt>
      <trkpt lat="45.37019" lon="4.61812">
        <ele>1050.86</ele>
        <time>2016-03-26T12:59:17Z</time>
      </trkpt>
      <trkpt lat="45.3702" lon="4.61811">
        <ele>1050.38</ele>
        <time>2016-03-26T12:59:37Z</time>
      </trkpt>
      <trkpt lat="45.37025" lon="4.61809">
        <ele>1049.42</ele>
        <time>2016-03-26T12:59:51Z</time>
      </trkpt>
      <trkpt lat="45.37034" lon="4.61804">
        <ele>1049.42</ele>
        <time>2016-03-26T13:00:04Z</time>
      </trkpt>
      <trkpt lat="45.37043" lon="4.61806">
        <ele>1050.86</ele>
        <time>2016-03-26T13:00:18Z</time>
      </trkpt>
      <trkpt lat="45.37056" lon="4.61818">
        <ele>1051.34</ele>
        <time>2016-03-26T13:00:32Z</time>
      </trkpt>
      <trkpt lat="45.37065" lon="4.61829">
        <ele>1047.97</ele>
        <time>2016-03-26T13:00:45Z</time>
      </trkpt>
      <trkpt lat="45.37071" lon="4.61834">
        <ele>1046.05</ele>
        <time>2016-03-26T13:00:53Z</time>
      </trkpt>
      <trkpt lat="45.37084" lon="4.61843">
        <ele>1044.61</ele>
        <time>2016-03-26T13:01:07Z</time>
      </trkpt>
      <trkpt lat="45.37094" lon="4.61851">
        <ele>1044.13</ele>
        <time>2016-03-26T13:01:21Z</time>
      </trkpt>
      <trkpt lat="45.37107" lon="4.61862">
        <ele>1043.65</ele>
        <time>2016-03-26T13:01:35Z</time>
      </trkpt>
      <trkpt lat="45.37118" lon="4.61876">
        <ele>1039.32</ele>
        <time>2016-03-26T13:01:49Z</time>
      </trkpt>
      <trkpt lat="45.37121" lon="4.61881">
        <ele>1038.36</ele>
        <time>2016-03-26T13:02:01Z</time>
      </trkpt>
      <trkpt lat="45.37123" lon="4.61895">
        <ele>1041.73</ele>
        <time>2016-03-26T13:02:14Z</time>
      </trkpt>
      <trkpt lat="45.37124" lon="4.61898">
        <ele>1042.69</ele>
        <time>2016-03-26T13:02:16Z</time>
      </trkpt>
      <trkpt lat="45.37134" lon="4.61924">
        <ele>1044.61</ele>
        <time>2016-03-26T13:02:31Z</time>
      </trkpt>
      <trkpt lat="45.37143" lon="4.61941">
        <ele>1041.73</ele>
        <time>2016-03-26T13:02:44Z</time>
      </trkpt>
      <trkpt lat="45.37152" lon="4.61954">
        <ele>1040.76</ele>
        <time>2016-03-26T13:02:56Z</time>
      </trkpt>
      <trkpt lat="45.37163" lon="4.6197">
        <ele>1040.76</ele>
        <time>2016-03-26T13:03:06Z</time>
      </trkpt>
      <trkpt lat="45.3717" lon="4.61984">
        <ele>1038.36</ele>
        <time>2016-03-26T13:03:17Z</time>
      </trkpt>
      <trkpt lat="45.37178" lon="4.62002">
        <ele>1037.88</ele>
        <time>2016-03-26T13:03:31Z</time>
      </trkpt>
      <trkpt lat="45.37192" lon="4.62025">
        <ele>1027.79</ele>
        <time>2016-03-26T13:03:45Z</time>
      </trkpt>
      <trkpt lat="45.37205" lon="4.6204">
        <ele>1019.13</ele>
        <time>2016-03-26T13:03:59Z</time>
      </trkpt>
      <trkpt lat="45.37217" lon="4.62051">
        <ele>1016.25</ele>
        <time>2016-03-26T13:04:13Z</time>
      </trkpt>
      <trkpt lat="45.3723" lon="4.62059">
        <ele>1012.89</ele>
        <time>2016-03-26T13:04:29Z</time>
      </trkpt>
      <trkpt lat="45.37236" lon="4.62066">
        <ele>1010.96</ele>
        <time>2016-03-26T13:04:43Z</time>
      </trkpt>
      <trkpt lat="45.37242" lon="4.62069">
        <ele>1011.44</ele>
        <time>2016-03-26T13:04:49Z</time>
      </trkpt>
      <trkpt lat="45.37255" lon="4.62083">
        <ele>1012.89</ele>
        <time>2016-03-26T13:05:04Z</time>
      </trkpt>
      <trkpt lat="45.3729" lon="4.62103">
        <ele>1006.64</ele>
        <time>2016-03-26T13:05:18Z</time>
      </trkpt>
      <trkpt lat="45.37305" lon="4.62118">
        <ele>997.51</ele>
        <time>2016-03-26T13:05:31Z</time>
      </trkpt>
      <trkpt lat="45.37297" lon="4.62117">
        <ele>997.99</ele>
        <time>2016-03-26T13:05:43Z</time>
      </trkpt>
      <trkpt lat="45.37287" lon="4.62115">
        <ele>1000.39</ele>
        <time>2016-03-26T13:05:54Z</time>
      </trkpt>
      <trkpt lat="45.37273" lon="4.62115">
        <ele>1000.87</ele>
        <time>2016-03-26T13:06:08Z</time>
      </trkpt>
      <trkpt lat="45.37271" lon="4.62116">
        <ele>1000.87</ele>
        <time>2016-03-26T13:06:11Z</time>
      </trkpt>
      <trkpt lat="45.37264" lon="4.62122">
        <ele>1001.35</ele>
        <time>2016-03-26T13:06:23Z</time>
      </trkpt>
      <trkpt lat="45.3726" lon="4.62125">
        <ele>1001.83</ele>
        <time>2016-03-26T13:06:36Z</time>
      </trkpt>
      <trkpt lat="45.37251" lon="4.62129">
        <ele>1004.72</ele>
        <time>2016-03-26T13:06:48Z</time>
      </trkpt>
      <trkpt lat="45.37239" lon="4.62143">
        <ele>1012.41</ele>
        <time>2016-03-26T13:07:01Z</time>
      </trkpt>
      <trkpt lat="45.37232" lon="4.62151">
        <ele>1011.93</ele>
        <time>2016-03-26T13:07:12Z</time>
      </trkpt>
      <trkpt lat="45.37226" lon="4.6216">
        <ele>1003.27</ele>
        <time>2016-03-26T13:07:25Z</time>
      </trkpt>
      <trkpt lat="45.37225" lon="4.62165">
        <ele>990.78</ele>
        <time>2016-03-26T13:07:41Z</time>
      </trkpt>
      <trkpt lat="45.37234" lon="4.62178">
        <ele>985.97</ele>
        <time>2016-03-26T13:07:56Z</time>
      </trkpt>
      <trkpt lat="45.37244" lon="4.62196">
        <ele>981.64</ele>
        <time>2016-03-26T13:08:09Z</time>
      </trkpt>
      <trkpt lat="45.37247" lon="4.62209">
        <ele>979.72</ele>
        <time>2016-03-26T13:08:18Z</time>
      </trkpt>
      <trkpt lat="45.37251" lon="4.62226">
        <ele>976.84</ele>
        <time>2016-03-26T13:08:34Z</time>
      </trkpt>
      <trkpt lat="45.37255" lon="4.6225">
        <ele>971.55</ele>
        <time>2016-03-26T13:08:49Z</time>
      </trkpt>
      <trkpt lat="45.37257" lon="4.62263">
        <ele>969.15</ele>
        <time>2016-03-26T13:08:59Z</time>
      </trkpt>
      <trkpt lat="45.37256" lon="4.62274">
        <ele>969.63</ele>
        <time>2016-03-26T13:09:10Z</time>
      </trkpt>
      <trkpt lat="45.37253" lon="4.62283">
        <ele>972.03</ele>
        <time>2016-03-26T13:09:21Z</time>
      </trkpt>
      <trkpt lat="45.37248" lon="4.62292">
        <ele>973.95</ele>
        <time>2016-03-26T13:09:34Z</time>
      </trkpt>
      <trkpt lat="45.37236" lon="4.62307">
        <ele>978.28</ele>
        <time>2016-03-26T13:09:49Z</time>
      </trkpt>
      <trkpt lat="45.37225" lon="4.62321">
        <ele>980.68</ele>
        <time>2016-03-26T13:10:03Z</time>
      </trkpt>
      <trkpt lat="45.37222" lon="4.62346">
        <ele>978.76</ele>
        <time>2016-03-26T13:10:16Z</time>
      </trkpt>
      <trkpt lat="45.37221" lon="4.62347">
        <ele>978.76</ele>
        <time>2016-03-26T13:10:17Z</time>
      </trkpt>
      <trkpt lat="45.37221" lon="4.62365">
        <ele>979.24</ele>
        <time>2016-03-26T13:10:27Z</time>
      </trkpt>
      <trkpt lat="45.37225" lon="4.62396">
        <ele>966.74</ele>
        <time>2016-03-26T13:10:43Z</time>
      </trkpt>
      <trkpt lat="45.37225" lon="4.62417">
        <ele>961.46</ele>
        <time>2016-03-26T13:10:57Z</time>
      </trkpt>
      <trkpt lat="45.37228" lon="4.62439">
        <ele>960.01</ele>
        <time>2016-03-26T13:11:11Z</time>
      </trkpt>
      <trkpt lat="45.37233" lon="4.62459">
        <ele>956.65</ele>
        <time>2016-03-26T13:11:23Z</time>
      </trkpt>
      <trkpt lat="45.37235" lon="4.62467">
        <ele>953.77</ele>
        <time>2016-03-26T13:11:28Z</time>
      </trkpt>
      <trkpt lat="45.37244" lon="4.62482">
        <ele>949.44</ele>
        <time>2016-03-26T13:11:36Z</time>
      </trkpt>
      <trkpt lat="45.37247" lon="4.62484">
        <ele>948.48</ele>
        <time>2016-03-26T13:11:38Z</time>
      </trkpt>
      <trkpt lat="45.37257" lon="4.625">
        <ele>942.71</ele>
        <time>2016-03-26T13:11:47Z</time>
      </trkpt>
      <trkpt lat="45.37272" lon="4.62523">
        <ele>939.83</ele>
        <time>2016-03-26T13:12:02Z</time>
      </trkpt>
      <trkpt lat="45.37275" lon="4.62529">
        <ele>939.35</ele>
        <time>2016-03-26T13:12:06Z</time>
      </trkpt>
      <trkpt lat="45.37282" lon="4.6255">
        <ele>935.98</ele>
        <time>2016-03-26T13:12:18Z</time>
      </trkpt>
      <trkpt lat="45.37284" lon="4.62556">
        <ele>934.54</ele>
        <time>2016-03-26T13:12:22Z</time>
      </trkpt>
      <trkpt lat="45.37289" lon="4.62584">
        <ele>928.29</ele>
        <time>2016-03-26T13:12:37Z</time>
      </trkpt>
      <trkpt lat="45.37287" lon="4.62601">
        <ele>927.33</ele>
        <time>2016-03-26T13:12:50Z</time>
      </trkpt>
      <trkpt lat="45.37288" lon="4.62627">
        <ele>922.04</ele>
        <time>2016-03-26T13:13:05Z</time>
      </trkpt>
      <trkpt lat="45.37287" lon="4.62649">
        <ele>920.12</ele>
        <time>2016-03-26T13:13:18Z</time>
      </trkpt>
      <trkpt lat="45.37286" lon="4.62653">
        <ele>919.16</ele>
        <time>2016-03-26T13:13:20Z</time>
      </trkpt>
      <trkpt lat="45.37289" lon="4.62676">
        <ele>914.83</ele>
        <time>2016-03-26T13:13:34Z</time>
      </trkpt>
      <trkpt lat="45.37289" lon="4.62678">
        <ele>914.83</ele>
        <time>2016-03-26T13:13:35Z</time>
      </trkpt>
      <trkpt lat="45.37295" lon="4.62705">
        <ele>908.1</ele>
        <time>2016-03-26T13:13:51Z</time>
      </trkpt>
      <trkpt lat="45.37294" lon="4.62726">
        <ele>909.06</ele>
        <time>2016-03-26T13:14:03Z</time>
      </trkpt>
      <trkpt lat="45.37296" lon="4.62759">
        <ele>903.78</ele>
        <time>2016-03-26T13:14:19Z</time>
      </trkpt>
      <trkpt lat="45.373" lon="4.62791">
        <ele>898.01</ele>
        <time>2016-03-26T13:14:36Z</time>
      </trkpt>
      <trkpt lat="45.373" lon="4.62792">
        <ele>897.53</ele>
        <time>2016-03-26T13:14:37Z</time>
      </trkpt>
      <trkpt lat="45.37301" lon="4.62809">
        <ele>898.01</ele>
        <time>2016-03-26T13:14:48Z</time>
      </trkpt>
      <trkpt lat="45.37287" lon="4.62828">
        <ele>897.05</ele>
        <time>2016-03-26T13:15:04Z</time>
      </trkpt>
      <trkpt lat="45.37276" lon="4.6285">
        <ele>890.8</ele>
        <time>2016-03-26T13:15:19Z</time>
      </trkpt>
      <trkpt lat="45.3726" lon="4.62871">
        <ele>885.51</ele>
        <time>2016-03-26T13:15:34Z</time>
      </trkpt>
      <trkpt lat="45.37248" lon="4.62893">
        <ele>881.19</ele>
        <time>2016-03-26T13:15:49Z</time>
      </trkpt>
      <trkpt lat="45.37243" lon="4.6291">
        <ele>879.26</ele>
        <time>2016-03-26T13:16:03Z</time>
      </trkpt>
      <trkpt lat="45.37243" lon="4.62913">
        <ele>877.82</ele>
        <time>2016-03-26T13:16:14Z</time>
      </trkpt>
      <trkpt lat="45.37243" lon="4.62915">
        <ele>876.86</ele>
        <time>2016-03-26T13:16:35Z</time>
      </trkpt>
      <trkpt lat="45.37244" lon="4.62917">
        <ele>876.86</ele>
        <time>2016-03-26T13:16:50Z</time>
      </trkpt>
      <trkpt lat="45.37244" lon="4.62918">
        <ele>876.38</ele>
        <time>2016-03-26T13:17:08Z</time>
      </trkpt>
      <trkpt lat="45.37244" lon="4.62919">
        <ele>876.38</ele>
        <time>2016-03-26T13:17:28Z</time>
      </trkpt>
      <trkpt lat="45.37245" lon="4.6292">
        <ele>874.94</ele>
        <time>2016-03-26T13:17:46Z</time>
      </trkpt>
      <trkpt lat="45.37247" lon="4.62921">
        <ele>874.46</ele>
        <time>2016-03-26T13:18:09Z</time>
      </trkpt>
      <trkpt lat="45.37249" lon="4.62922">
        <ele>874.46</ele>
        <time>2016-03-26T13:18:27Z</time>
      </trkpt>
      <trkpt lat="45.37252" lon="4.62927">
        <ele>873.98</ele>
        <time>2016-03-26T13:18:39Z</time>
      </trkpt>
      <trkpt lat="45.37258" lon="4.6295">
        <ele>870.13</ele>
        <time>2016-03-26T13:18:55Z</time>
      </trkpt>
      <trkpt lat="45.37264" lon="4.62958">
        <ele>867.73</ele>
        <time>2016-03-26T13:19:08Z</time>
      </trkpt>
      <trkpt lat="45.37274" lon="4.62967">
        <ele>865.32</ele>
        <time>2016-03-26T13:19:21Z</time>
      </trkpt>
      <trkpt lat="45.37284" lon="4.62972">
        <ele>863.88</ele>
        <time>2016-03-26T13:19:36Z</time>
      </trkpt>
      <trkpt lat="45.37302" lon="4.62979">
        <ele>862.44</ele>
        <time>2016-03-26T13:19:50Z</time>
      </trkpt>
      <trkpt lat="45.37316" lon="4.62981">
        <ele>862.92</ele>
        <time>2016-03-26T13:20:04Z</time>
      </trkpt>
      <trkpt lat="45.3733" lon="4.62979">
        <ele>861.48</ele>
        <time>2016-03-26T13:20:15Z</time>
      </trkpt>
      <trkpt lat="45.37341" lon="4.62978">
        <ele>860.52</ele>
        <time>2016-03-26T13:20:24Z</time>
      </trkpt>
      <trkpt lat="45.37352" lon="4.62978">
        <ele>857.15</ele>
        <time>2016-03-26T13:20:38Z</time>
      </trkpt>
      <trkpt lat="45.37354" lon="4.62981">
        <ele>854.27</ele>
        <time>2016-03-26T13:20:49Z</time>
      </trkpt>
      <trkpt lat="45.37355" lon="4.62991">
        <ele>850.42</ele>
        <time>2016-03-26T13:21:02Z</time>
      </trkpt>
      <trkpt lat="45.37363" lon="4.63">
        <ele>846.58</ele>
        <time>2016-03-26T13:21:15Z</time>
      </trkpt>
      <trkpt lat="45.37383" lon="4.6302">
        <ele>842.25</ele>
        <time>2016-03-26T13:21:28Z</time>
      </trkpt>
      <trkpt lat="45.3739" lon="4.63022">
        <ele>841.29</ele>
        <time>2016-03-26T13:21:36Z</time>
      </trkpt>
      <trkpt lat="45.37404" lon="4.63025">
        <ele>839.37</ele>
        <time>2016-03-26T13:21:50Z</time>
      </trkpt>
      <trkpt lat="45.37412" lon="4.63028">
        <ele>837.45</ele>
        <time>2016-03-26T13:21:58Z</time>
      </trkpt>
      <trkpt lat="45.37421" lon="4.63034">
        <ele>835.52</ele>
        <time>2016-03-26T13:22:05Z</time>
      </trkpt>
      <trkpt lat="45.37425" lon="4.63036">
        <ele>833.12</ele>
        <time>2016-03-26T13:22:08Z</time>
      </trkpt>
      <trkpt lat="45.37436" lon="4.63045">
        <ele>829.27</ele>
        <time>2016-03-26T13:22:12Z</time>
      </trkpt>
      <trkpt lat="45.37462" lon="4.63061">
        <ele>813.89</ele>
        <time>2016-03-26T13:22:26Z</time>
      </trkpt>
      <trkpt lat="45.37476" lon="4.63072">
        <ele>806.2</ele>
        <time>2016-03-26T13:22:39Z</time>
      </trkpt>
      <trkpt lat="45.37487" lon="4.63084">
        <ele>799.47</ele>
        <time>2016-03-26T13:22:52Z</time>
      </trkpt>
      <trkpt lat="45.37488" lon="4.63088">
        <ele>798.99</ele>
        <time>2016-03-26T13:22:55Z</time>
      </trkpt>
      <trkpt lat="45.37477" lon="4.63116">
        <ele>799.47</ele>
        <time>2016-03-26T13:23:12Z</time>
      </trkpt>
      <trkpt lat="45.37477" lon="4.63117">
        <ele>799.47</ele>
        <time>2016-03-26T13:23:13Z</time>
      </trkpt>
      <trkpt lat="45.37473" lon="4.63126">
        <ele>798.99</ele>
        <time>2016-03-26T13:23:19Z</time>
      </trkpt>
      <trkpt lat="45.37473" lon="4.63149">
        <ele>797.55</ele>
        <time>2016-03-26T13:23:35Z</time>
      </trkpt>
      <trkpt lat="45.37491" lon="4.63156">
        <ele>789.86</ele>
        <time>2016-03-26T13:23:44Z</time>
      </trkpt>
      <trkpt lat="45.37507" lon="4.63156">
        <ele>786.98</ele>
        <time>2016-03-26T13:23:59Z</time>
      </trkpt>
      <trkpt lat="45.37522" lon="4.63162">
        <ele>786.5</ele>
        <time>2016-03-26T13:24:14Z</time>
      </trkpt>
      <trkpt lat="45.37537" lon="4.6318">
        <ele>788.9</ele>
        <time>2016-03-26T13:24:33Z</time>
      </trkpt>
      <trkpt lat="45.37539" lon="4.63187">
        <ele>789.86</ele>
        <time>2016-03-26T13:24:38Z</time>
      </trkpt>
      <trkpt lat="45.37542" lon="4.63211">
        <ele>792.26</ele>
        <time>2016-03-26T13:24:55Z</time>
      </trkpt>
      <trkpt lat="45.37544" lon="4.63234">
        <ele>795.15</ele>
        <time>2016-03-26T13:25:09Z</time>
      </trkpt>
      <trkpt lat="45.37545" lon="4.63261">
        <ele>798.03</ele>
        <time>2016-03-26T13:25:27Z</time>
      </trkpt>
      <trkpt lat="45.37546" lon="4.63293">
        <ele>798.51</ele>
        <time>2016-03-26T13:25:45Z</time>
      </trkpt>
      <trkpt lat="45.37546" lon="4.63322">
        <ele>802.84</ele>
        <time>2016-03-26T13:26:03Z</time>
      </trkpt>
      <trkpt lat="45.3755" lon="4.63337">
        <ele>802.36</ele>
        <time>2016-03-26T13:26:17Z</time>
      </trkpt>
      <trkpt lat="45.37557" lon="4.63364">
        <ele>804.76</ele>
        <time>2016-03-26T13:26:33Z</time>
      </trkpt>
      <trkpt lat="45.3756" lon="4.63382">
        <ele>805.72</ele>
        <time>2016-03-26T13:26:45Z</time>
      </trkpt>
      <trkpt lat="45.37561" lon="4.63399">
        <ele>808.13</ele>
        <time>2016-03-26T13:26:55Z</time>
      </trkpt>
      <trkpt lat="45.37576" lon="4.63427">
        <ele>808.13</ele>
        <time>2016-03-26T13:27:13Z</time>
      </trkpt>
      <trkpt lat="45.37588" lon="4.63449">
        <ele>809.57</ele>
        <time>2016-03-26T13:27:29Z</time>
      </trkpt>
      <trkpt lat="45.37599" lon="4.63472">
        <ele>812.45</ele>
        <time>2016-03-26T13:27:46Z</time>
      </trkpt>
      <trkpt lat="45.37607" lon="4.63497">
        <ele>815.34</ele>
        <time>2016-03-26T13:28:04Z</time>
      </trkpt>
      <trkpt lat="45.37611" lon="4.63508">
        <ele>815.34</ele>
        <time>2016-03-26T13:28:15Z</time>
      </trkpt>
      <trkpt lat="45.37614" lon="4.63515">
        <ele>814.85</ele>
        <time>2016-03-26T13:28:27Z</time>
      </trkpt>
      <trkpt lat="45.37617" lon="4.63526">
        <ele>814.37</ele>
        <time>2016-03-26T13:28:42Z</time>
      </trkpt>
      <trkpt lat="45.37624" lon="4.63554">
        <ele>816.3</ele>
        <time>2016-03-26T13:28:59Z</time>
      </trkpt>
      <trkpt lat="45.3763" lon="4.63583">
        <ele>817.26</ele>
        <time>2016-03-26T13:29:16Z</time>
      </trkpt>
      <trkpt lat="45.37634" lon="4.6361">
        <ele>817.26</ele>
        <time>2016-03-26T13:29:33Z</time>
      </trkpt>
      <trkpt lat="45.37636" lon="4.63613">
        <ele>817.26</ele>
        <time>2016-03-26T13:29:46Z</time>
      </trkpt>
      <trkpt lat="45.37636" lon="4.63614">
        <ele>817.74</ele>
        <time>2016-03-26T13:30:02Z</time>
      </trkpt>
      <trkpt lat="45.37636" lon="4.63613">
        <ele>817.26</ele>
        <time>2016-03-26T13:30:19Z</time>
      </trkpt>
      <trkpt lat="45.37637" lon="4.63615">
        <ele>817.74</ele>
        <time>2016-03-26T13:30:44Z</time>
      </trkpt>
      <trkpt lat="45.37638" lon="4.6362">
        <ele>817.74</ele>
        <time>2016-03-26T13:30:56Z</time>
      </trkpt>
      <trkpt lat="45.37638" lon="4.63622">
        <ele>818.22</ele>
        <time>2016-03-26T13:30:57Z</time>
      </trkpt>
      <trkpt lat="45.37639" lon="4.63635">
        <ele>819.18</ele>
        <time>2016-03-26T13:31:05Z</time>
      </trkpt>
      <trkpt lat="45.37642" lon="4.63669">
        <ele>818.22</ele>
        <time>2016-03-26T13:31:23Z</time>
      </trkpt>
      <trkpt lat="45.37641" lon="4.63702">
        <ele>815.82</ele>
        <time>2016-03-26T13:31:40Z</time>
      </trkpt>
      <trkpt lat="45.37642" lon="4.63709">
        <ele>815.82</ele>
        <time>2016-03-26T13:31:44Z</time>
      </trkpt>
      <trkpt lat="45.37641" lon="4.63722">
        <ele>815.34</ele>
        <time>2016-03-26T13:31:51Z</time>
      </trkpt>
      <trkpt lat="45.37642" lon="4.6375">
        <ele>813.89</ele>
        <time>2016-03-26T13:32:08Z</time>
      </trkpt>
      <trkpt lat="45.37642" lon="4.63757">
        <ele>814.37</ele>
        <time>2016-03-26T13:32:13Z</time>
      </trkpt>
      <trkpt lat="45.37644" lon="4.63766">
        <ele>814.37</ele>
        <time>2016-03-26T13:32:18Z</time>
      </trkpt>
      <trkpt lat="45.37652" lon="4.63799">
        <ele>813.89</ele>
        <time>2016-03-26T13:32:37Z</time>
      </trkpt>
      <trkpt lat="45.37663" lon="4.63829">
        <ele>813.41</ele>
        <time>2016-03-26T13:32:55Z</time>
      </trkpt>
      <trkpt lat="45.37674" lon="4.63857">
        <ele>811.97</ele>
        <time>2016-03-26T13:33:12Z</time>
      </trkpt>
      <trkpt lat="45.37685" lon="4.63889">
        <ele>812.93</ele>
        <time>2016-03-26T13:33:30Z</time>
      </trkpt>
      <trkpt lat="45.37693" lon="4.63918">
        <ele>812.93</ele>
        <time>2016-03-26T13:33:48Z</time>
      </trkpt>
      <trkpt lat="45.37698" lon="4.63936">
        <ele>813.41</ele>
        <time>2016-03-26T13:33:58Z</time>
      </trkpt>
      <trkpt lat="45.377" lon="4.63964">
        <ele>814.85</ele>
        <time>2016-03-26T13:34:13Z</time>
      </trkpt>
      <trkpt lat="45.37703" lon="4.63996">
        <ele>816.3</ele>
        <time>2016-03-26T13:34:31Z</time>
      </trkpt>
      <trkpt lat="45.37706" lon="4.64025">
        <ele>816.78</ele>
        <time>2016-03-26T13:34:47Z</time>
      </trkpt>
      <trkpt lat="45.37715" lon="4.64045">
        <ele>817.26</ele>
        <time>2016-03-26T13:35:03Z</time>
      </trkpt>
      <trkpt lat="45.37719" lon="4.64049">
        <ele>816.78</ele>
        <time>2016-03-26T13:35:17Z</time>
      </trkpt>
      <trkpt lat="45.37719" lon="4.6405">
        <ele>815.34</ele>
        <time>2016-03-26T13:35:33Z</time>
      </trkpt>
      <trkpt lat="45.3772" lon="4.64051">
        <ele>815.34</ele>
        <time>2016-03-26T13:35:43Z</time>
      </trkpt>
      <trkpt lat="45.37721" lon="4.64054">
        <ele>814.85</ele>
        <time>2016-03-26T13:35:57Z</time>
      </trkpt>
      <trkpt lat="45.37719" lon="4.64055">
        <ele>814.37</ele>
        <time>2016-03-26T13:36:08Z</time>
      </trkpt>
      <trkpt lat="45.37719" lon="4.64056">
        <ele>814.37</ele>
        <time>2016-03-26T13:36:11Z</time>
      </trkpt>
      <trkpt lat="45.37715" lon="4.64069">
        <ele>814.37</ele>
        <time>2016-03-26T13:36:19Z</time>
      </trkpt>
      <trkpt lat="45.37712" lon="4.64091">
        <ele>812.93</ele>
        <time>2016-03-26T13:36:32Z</time>
      </trkpt>
      <trkpt lat="45.37706" lon="4.64121">
        <ele>811.97</ele>
        <time>2016-03-26T13:36:49Z</time>
      </trkpt>
      <trkpt lat="45.37701" lon="4.64157">
        <ele>811.97</ele>
        <time>2016-03-26T13:37:09Z</time>
      </trkpt>
      <trkpt lat="45.377" lon="4.64185">
        <ele>814.37</ele>
        <time>2016-03-26T13:37:25Z</time>
      </trkpt>
      <trkpt lat="45.37702" lon="4.64214">
        <ele>815.34</ele>
        <time>2016-03-26T13:37:41Z</time>
      </trkpt>
      <trkpt lat="45.37705" lon="4.64248">
        <ele>816.3</ele>
        <time>2016-03-26T13:37:59Z</time>
      </trkpt>
      <trkpt lat="45.37707" lon="4.64275">
        <ele>817.74</ele>
        <time>2016-03-26T13:38:15Z</time>
      </trkpt>
      <trkpt lat="45.37709" lon="4.64296">
        <ele>822.06</ele>
        <time>2016-03-26T13:38:32Z</time>
      </trkpt>
      <trkpt lat="45.37711" lon="4.64312">
        <ele>826.87</ele>
        <time>2016-03-26T13:38:45Z</time>
      </trkpt>
      <trkpt lat="45.37712" lon="4.64329">
        <ele>832.64</ele>
        <time>2016-03-26T13:38:59Z</time>
      </trkpt>
      <trkpt lat="45.37715" lon="4.6435">
        <ele>836.48</ele>
        <time>2016-03-26T13:39:14Z</time>
      </trkpt>
      <trkpt lat="45.37717" lon="4.64371">
        <ele>839.85</ele>
        <time>2016-03-26T13:39:27Z</time>
      </trkpt>
      <trkpt lat="45.37717" lon="4.6439">
        <ele>845.14</ele>
        <time>2016-03-26T13:39:41Z</time>
      </trkpt>
      <trkpt lat="45.37715" lon="4.6441">
        <ele>849.94</ele>
        <time>2016-03-26T13:39:55Z</time>
      </trkpt>
      <trkpt lat="45.37711" lon="4.64433">
        <ele>849.94</ele>
        <time>2016-03-26T13:40:07Z</time>
      </trkpt>
      <trkpt lat="45.37709" lon="4.64435">
        <ele>849.46</ele>
        <time>2016-03-26T13:40:08Z</time>
      </trkpt>
      <trkpt lat="45.37699" lon="4.64469">
        <ele>847.06</ele>
        <time>2016-03-26T13:40:24Z</time>
      </trkpt>
      <trkpt lat="45.37693" lon="4.64499">
        <ele>844.18</ele>
        <time>2016-03-26T13:40:41Z</time>
      </trkpt>
      <trkpt lat="45.37688" lon="4.64527">
        <ele>845.14</ele>
        <time>2016-03-26T13:40:58Z</time>
      </trkpt>
      <trkpt lat="45.37687" lon="4.6453">
        <ele>845.14</ele>
        <time>2016-03-26T13:41:00Z</time>
      </trkpt>
      <trkpt lat="45.37682" lon="4.64558">
        <ele>847.06</ele>
        <time>2016-03-26T13:41:17Z</time>
      </trkpt>
      <trkpt lat="45.37678" lon="4.64588">
        <ele>849.94</ele>
        <time>2016-03-26T13:41:34Z</time>
      </trkpt>
      <trkpt lat="45.37674" lon="4.64616">
        <ele>849.94</ele>
        <time>2016-03-26T13:41:50Z</time>
      </trkpt>
      <trkpt lat="45.3767" lon="4.64642">
        <ele>851.38</ele>
        <time>2016-03-26T13:42:05Z</time>
      </trkpt>
      <trkpt lat="45.3767" lon="4.64671">
        <ele>852.35</ele>
        <time>2016-03-26T13:42:21Z</time>
      </trkpt>
      <trkpt lat="45.37665" lon="4.647">
        <ele>853.79</ele>
        <time>2016-03-26T13:42:38Z</time>
      </trkpt>
      <trkpt lat="45.37658" lon="4.64723">
        <ele>854.27</ele>
        <time>2016-03-26T13:42:53Z</time>
      </trkpt>
      <trkpt lat="45.37654" lon="4.64734">
        <ele>856.67</ele>
        <time>2016-03-26T13:43:01Z</time>
      </trkpt>
      <trkpt lat="45.37646" lon="4.64758">
        <ele>858.11</ele>
        <time>2016-03-26T13:43:17Z</time>
      </trkpt>
      <trkpt lat="45.37648" lon="4.64783">
        <ele>862.92</ele>
        <time>2016-03-26T13:43:31Z</time>
      </trkpt>
      <trkpt lat="45.37649" lon="4.64796">
        <ele>867.25</ele>
        <time>2016-03-26T13:43:42Z</time>
      </trkpt>
      <trkpt lat="45.37653" lon="4.6482">
        <ele>869.65</ele>
        <time>2016-03-26T13:43:54Z</time>
      </trkpt>
      <trkpt lat="45.37656" lon="4.64851">
        <ele>870.61</ele>
        <time>2016-03-26T13:44:07Z</time>
      </trkpt>
      <trkpt lat="45.37663" lon="4.64885">
        <ele>871.57</ele>
        <time>2016-03-26T13:44:24Z</time>
      </trkpt>
      <trkpt lat="45.37664" lon="4.64891">
        <ele>871.57</ele>
        <time>2016-03-26T13:44:27Z</time>
      </trkpt>
      <trkpt lat="45.37667" lon="4.64907">
        <ele>870.13</ele>
        <time>2016-03-26T13:44:36Z</time>
      </trkpt>
      <trkpt lat="45.37668" lon="4.64916">
        <ele>870.61</ele>
        <time>2016-03-26T13:44:41Z</time>
      </trkpt>
      <trkpt lat="45.37669" lon="4.64946">
        <ele>866.77</ele>
        <time>2016-03-26T13:44:56Z</time>
      </trkpt>
      <trkpt lat="45.37669" lon="4.64971">
        <ele>868.21</ele>
        <time>2016-03-26T13:45:10Z</time>
      </trkpt>
      <trkpt lat="45.37673" lon="4.64992">
        <ele>872.05</ele>
        <time>2016-03-26T13:45:25Z</time>
      </trkpt>
      <trkpt lat="45.37674" lon="4.65013">
        <ele>873.98</ele>
        <time>2016-03-26T13:45:38Z</time>
      </trkpt>
      <trkpt lat="45.37678" lon="4.65029">
        <ele>874.94</ele>
        <time>2016-03-26T13:45:52Z</time>
      </trkpt>
      <trkpt lat="45.37682" lon="4.65052">
        <ele>874.94</ele>
        <time>2016-03-26T13:46:04Z</time>
      </trkpt>
      <trkpt lat="45.37686" lon="4.6508">
        <ele>874.46</ele>
        <time>2016-03-26T13:46:16Z</time>
      </trkpt>
      <trkpt lat="45.37687" lon="4.65111">
        <ele>873.98</ele>
        <time>2016-03-26T13:46:31Z</time>
      </trkpt>
      <trkpt lat="45.37689" lon="4.65129">
        <ele>873.01</ele>
        <time>2016-03-26T13:46:41Z</time>
      </trkpt>
      <trkpt lat="45.37689" lon="4.65157">
        <ele>874.46</ele>
        <time>2016-03-26T13:46:56Z</time>
      </trkpt>
      <trkpt lat="45.37691" lon="4.65184">
        <ele>874.46</ele>
        <time>2016-03-26T13:47:11Z</time>
      </trkpt>
      <trkpt lat="45.37694" lon="4.65201">
        <ele>873.5</ele>
        <time>2016-03-26T13:47:23Z</time>
      </trkpt>
      <trkpt lat="45.37699" lon="4.65216">
        <ele>874.94</ele>
        <time>2016-03-26T13:47:33Z</time>
      </trkpt>
      <trkpt lat="45.37701" lon="4.6525">
        <ele>876.38</ele>
        <time>2016-03-26T13:47:49Z</time>
      </trkpt>
      <trkpt lat="45.37703" lon="4.65272">
        <ele>877.82</ele>
        <time>2016-03-26T13:48:04Z</time>
      </trkpt>
      <trkpt lat="45.37707" lon="4.65298">
        <ele>875.42</ele>
        <time>2016-03-26T13:48:16Z</time>
      </trkpt>
      <trkpt lat="45.37707" lon="4.65315">
        <ele>873.5</ele>
        <time>2016-03-26T13:48:25Z</time>
      </trkpt>
      <trkpt lat="45.37707" lon="4.65342">
        <ele>871.57</ele>
        <time>2016-03-26T13:48:36Z</time>
      </trkpt>
      <trkpt lat="45.37701" lon="4.65371">
        <ele>868.21</ele>
        <time>2016-03-26T13:48:48Z</time>
      </trkpt>
      <trkpt lat="45.37704" lon="4.65397">
        <ele>864.84</ele>
        <time>2016-03-26T13:49:02Z</time>
      </trkpt>
      <trkpt lat="45.37703" lon="4.65409">
        <ele>865.32</ele>
        <time>2016-03-26T13:49:11Z</time>
      </trkpt>
      <trkpt lat="45.37705" lon="4.65428">
        <ele>865.32</ele>
        <time>2016-03-26T13:49:23Z</time>
      </trkpt>
      <trkpt lat="45.37708" lon="4.65437">
        <ele>862.44</ele>
        <time>2016-03-26T13:49:29Z</time>
      </trkpt>
      <trkpt lat="45.37707" lon="4.65462">
        <ele>860.52</ele>
        <time>2016-03-26T13:49:42Z</time>
      </trkpt>
      <trkpt lat="45.37708" lon="4.65481">
        <ele>859.08</ele>
        <time>2016-03-26T13:49:54Z</time>
      </trkpt>
      <trkpt lat="45.3771" lon="4.655">
        <ele>857.15</ele>
        <time>2016-03-26T13:50:07Z</time>
      </trkpt>
      <trkpt lat="45.37716" lon="4.65526">
        <ele>851.38</ele>
        <time>2016-03-26T13:50:21Z</time>
      </trkpt>
      <trkpt lat="45.37719" lon="4.6554">
        <ele>847.54</ele>
        <time>2016-03-26T13:50:29Z</time>
      </trkpt>
      <trkpt lat="45.37728" lon="4.65567">
        <ele>840.81</ele>
        <time>2016-03-26T13:50:43Z</time>
      </trkpt>
      <trkpt lat="45.37729" lon="4.6557">
        <ele>830.72</ele>
        <time>2016-03-26T13:50:48Z</time>
      </trkpt>
      <trkpt lat="45.37729" lon="4.65584">
        <ele>826.39</ele>
        <time>2016-03-26T13:50:57Z</time>
      </trkpt>
      <trkpt lat="45.37721" lon="4.65611">
        <ele>824.47</ele>
        <time>2016-03-26T13:51:13Z</time>
      </trkpt>
      <trkpt lat="45.3772" lon="4.65632">
        <ele>825.43</ele>
        <time>2016-03-26T13:51:25Z</time>
      </trkpt>
      <trkpt lat="45.37718" lon="4.6565">
        <ele>830.72</ele>
        <time>2016-03-26T13:51:39Z</time>
      </trkpt>
      <trkpt lat="45.37718" lon="4.65656">
        <ele>833.6</ele>
        <time>2016-03-26T13:51:45Z</time>
      </trkpt>
      <trkpt lat="45.37722" lon="4.65676">
        <ele>835.52</ele>
        <time>2016-03-26T13:51:59Z</time>
      </trkpt>
      <trkpt lat="45.37726" lon="4.65706">
        <ele>833.12</ele>
        <time>2016-03-26T13:52:14Z</time>
      </trkpt>
      <trkpt lat="45.37735" lon="4.6574">
        <ele>828.31</ele>
        <time>2016-03-26T13:52:30Z</time>
      </trkpt>
      <trkpt lat="45.37735" lon="4.65772">
        <ele>823.51</ele>
        <time>2016-03-26T13:52:42Z</time>
      </trkpt>
      <trkpt lat="45.37744" lon="4.65789">
        <ele>818.7</ele>
        <time>2016-03-26T13:52:53Z</time>
      </trkpt>
      <trkpt lat="45.37752" lon="4.6581">
        <ele>817.74</ele>
        <time>2016-03-26T13:53:06Z</time>
      </trkpt>
      <trkpt lat="45.3776" lon="4.65831">
        <ele>815.34</ele>
        <time>2016-03-26T13:53:21Z</time>
      </trkpt>
      <trkpt lat="45.37764" lon="4.65842">
        <ele>813.89</ele>
        <time>2016-03-26T13:53:35Z</time>
      </trkpt>
      <trkpt lat="45.37771" lon="4.65873">
        <ele>810.05</ele>
        <time>2016-03-26T13:53:49Z</time>
      </trkpt>
      <trkpt lat="45.37773" lon="4.65895">
        <ele>807.16</ele>
        <time>2016-03-26T13:54:01Z</time>
      </trkpt>
      <trkpt lat="45.37779" lon="4.65921">
        <ele>806.2</ele>
        <time>2016-03-26T13:54:16Z</time>
      </trkpt>
      <trkpt lat="45.37784" lon="4.6594">
        <ele>806.2</ele>
        <time>2016-03-26T13:54:30Z</time>
      </trkpt>
      <trkpt lat="45.37784" lon="4.65955">
        <ele>804.76</ele>
        <time>2016-03-26T13:54:38Z</time>
      </trkpt>
      <trkpt lat="45.37777" lon="4.65964">
        <ele>805.72</ele>
        <time>2016-03-26T13:54:46Z</time>
      </trkpt>
      <trkpt lat="45.37774" lon="4.65974">
        <ele>806.68</ele>
        <time>2016-03-26T13:54:52Z</time>
      </trkpt>
      <trkpt lat="45.37764" lon="4.65984">
        <ele>811.97</ele>
        <time>2016-03-26T13:55:04Z</time>
      </trkpt>
      <trkpt lat="45.37757" lon="4.66003">
        <ele>811.49</ele>
        <time>2016-03-26T13:55:14Z</time>
      </trkpt>
      <trkpt lat="45.37752" lon="4.66017">
        <ele>811.01</ele>
        <time>2016-03-26T13:55:22Z</time>
      </trkpt>
      <trkpt lat="45.37753" lon="4.66034">
        <ele>812.93</ele>
        <time>2016-03-26T13:55:35Z</time>
      </trkpt>
      <trkpt lat="45.37756" lon="4.66049">
        <ele>813.41</ele>
        <time>2016-03-26T13:55:48Z</time>
      </trkpt>
      <trkpt lat="45.37757" lon="4.66072">
        <ele>805.72</ele>
        <time>2016-03-26T13:56:01Z</time>
      </trkpt>
      <trkpt lat="45.37759" lon="4.66091">
        <ele>799.95</ele>
        <time>2016-03-26T13:56:13Z</time>
      </trkpt>
      <trkpt lat="45.37762" lon="4.6612">
        <ele>788.9</ele>
        <time>2016-03-26T13:56:21Z</time>
      </trkpt>
      <trkpt lat="45.37776" lon="4.66143">
        <ele>779.77</ele>
        <time>2016-03-26T13:56:35Z</time>
      </trkpt>
      <trkpt lat="45.37786" lon="4.6616">
        <ele>776.88</ele>
        <time>2016-03-26T13:56:49Z</time>
      </trkpt>
      <trkpt lat="45.37788" lon="4.66165">
        <ele>776.88</ele>
        <time>2016-03-26T13:56:53Z</time>
      </trkpt>
      <trkpt lat="45.3779" lon="4.66181">
        <ele>778.32</ele>
        <time>2016-03-26T13:57:06Z</time>
      </trkpt>
      <trkpt lat="45.3779" lon="4.66202">
        <ele>778.32</ele>
        <time>2016-03-26T13:57:19Z</time>
      </trkpt>
      <trkpt lat="45.37792" lon="4.66226">
        <ele>776.4</ele>
        <time>2016-03-26T13:57:32Z</time>
      </trkpt>
      <trkpt lat="45.37792" lon="4.66236">
        <ele>774.96</ele>
        <time>2016-03-26T13:57:40Z</time>
      </trkpt>
      <trkpt lat="45.37793" lon="4.66251">
        <ele>775.92</ele>
        <time>2016-03-26T13:57:52Z</time>
      </trkpt>
      <trkpt lat="45.37797" lon="4.66267">
        <ele>776.88</ele>
        <time>2016-03-26T13:58:05Z</time>
      </trkpt>
      <trkpt lat="45.37802" lon="4.66294">
        <ele>772.08</ele>
        <time>2016-03-26T13:58:17Z</time>
      </trkpt>
      <trkpt lat="45.37809" lon="4.66313">
        <ele>768.23</ele>
        <time>2016-03-26T13:58:26Z</time>
      </trkpt>
      <trkpt lat="45.37822" lon="4.66329">
        <ele>764.39</ele>
        <time>2016-03-26T13:58:41Z</time>
      </trkpt>
      <trkpt lat="45.37832" lon="4.66333">
        <ele>759.58</ele>
        <time>2016-03-26T13:58:53Z</time>
      </trkpt>
      <trkpt lat="45.37846" lon="4.66336">
        <ele>757.18</ele>
        <time>2016-03-26T13:59:05Z</time>
      </trkpt>
      <trkpt lat="45.37861" lon="4.66338">
        <ele>753.33</ele>
        <time>2016-03-26T13:59:18Z</time>
      </trkpt>
      <trkpt lat="45.37863" lon="4.6634">
        <ele>753.33</ele>
        <time>2016-03-26T13:59:22Z</time>
      </trkpt>
      <trkpt lat="45.37864" lon="4.66343">
        <ele>753.33</ele>
        <time>2016-03-26T13:59:34Z</time>
      </trkpt>
      <trkpt lat="45.37865" lon="4.66344">
        <ele>752.85</ele>
        <time>2016-03-26T13:59:50Z</time>
      </trkpt>
      <trkpt lat="45.37866" lon="4.66344">
        <ele>751.41</ele>
        <time>2016-03-26T14:00:04Z</time>
      </trkpt>
      <trkpt lat="45.37867" lon="4.66341">
        <ele>749.49</ele>
        <time>2016-03-26T14:00:15Z</time>
      </trkpt>
      <trkpt lat="45.37867" lon="4.6634">
        <ele>748.04</ele>
        <time>2016-03-26T14:00:30Z</time>
      </trkpt>
      <trkpt lat="45.37868" lon="4.66337">
        <ele>746.12</ele>
        <time>2016-03-26T14:00:56Z</time>
      </trkpt>
      <trkpt lat="45.37868" lon="4.66337">
        <ele>745.64</ele>
        <time>2016-03-26T14:01:16Z</time>
      </trkpt>
      <trkpt lat="45.37868" lon="4.66337">
        <ele>745.16</ele>
        <time>2016-03-26T14:01:32Z</time>
      </trkpt>
      <trkpt lat="45.37868" lon="4.66336">
        <ele>744.68</ele>
        <time>2016-03-26T14:02:01Z</time>
      </trkpt>
      <trkpt lat="45.37869" lon="4.66336">
        <ele>744.2</ele>
        <time>2016-03-26T14:02:31Z</time>
      </trkpt>
      <trkpt lat="45.37867" lon="4.66339">
        <ele>743.72</ele>
        <time>2016-03-26T14:02:37Z</time>
      </trkpt>
      <trkpt lat="45.37858" lon="4.66359">
        <ele>746.12</ele>
        <time>2016-03-26T14:02:52Z</time>
      </trkpt>
      <trkpt lat="45.37854" lon="4.66368">
        <ele>746.12</ele>
        <time>2016-03-26T14:03:00Z</time>
      </trkpt>
      <trkpt lat="45.37852" lon="4.66379">
        <ele>744.68</ele>
        <time>2016-03-26T14:03:07Z</time>
      </trkpt>
      <trkpt lat="45.37849" lon="4.66387">
        <ele>743.24</ele>
        <time>2016-03-26T14:03:13Z</time>
      </trkpt>
      <trkpt lat="45.37846" lon="4.66395">
        <ele>742.28</ele>
        <time>2016-03-26T14:03:17Z</time>
      </trkpt>
      <trkpt lat="45.37836" lon="4.66421">
        <ele>738.91</ele>
        <time>2016-03-26T14:03:34Z</time>
      </trkpt>
      <trkpt lat="45.37823" lon="4.66442">
        <ele>736.03</ele>
        <time>2016-03-26T14:03:49Z</time>
      </trkpt>
      <trkpt lat="45.37811" lon="4.66454">
        <ele>737.47</ele>
        <time>2016-03-26T14:04:04Z</time>
      </trkpt>
      <trkpt lat="45.37811" lon="4.6647">
        <ele>736.03</ele>
        <time>2016-03-26T14:04:19Z</time>
      </trkpt>
      <trkpt lat="45.37811" lon="4.66488">
        <ele>734.58</ele>
        <time>2016-03-26T14:04:32Z</time>
      </trkpt>
      <trkpt lat="45.37817" lon="4.66503">
        <ele>735.07</ele>
        <time>2016-03-26T14:04:45Z</time>
      </trkpt>
      <trkpt lat="45.37822" lon="4.66513">
        <ele>737.47</ele>
        <time>2016-03-26T14:04:55Z</time>
      </trkpt>
      <trkpt lat="45.37829" lon="4.66527">
        <ele>736.03</ele>
        <time>2016-03-26T14:05:05Z</time>
      </trkpt>
      <trkpt lat="45.37842" lon="4.66535">
        <ele>731.22</ele>
        <time>2016-03-26T14:05:18Z</time>
      </trkpt>
      <trkpt lat="45.37852" lon="4.66535">
        <ele>729.3</ele>
        <time>2016-03-26T14:05:26Z</time>
      </trkpt>
      <trkpt lat="45.37867" lon="4.66537">
        <ele>724.49</ele>
        <time>2016-03-26T14:05:40Z</time>
      </trkpt>
      <trkpt lat="45.37875" lon="4.66548">
        <ele>723.53</ele>
        <time>2016-03-26T14:05:54Z</time>
      </trkpt>
      <trkpt lat="45.37878" lon="4.66574">
        <ele>722.57</ele>
        <time>2016-03-26T14:06:08Z</time>
      </trkpt>
      <trkpt lat="45.37881" lon="4.66595">
        <ele>719.68</ele>
        <time>2016-03-26T14:06:21Z</time>
      </trkpt>
      <trkpt lat="45.37884" lon="4.6663">
        <ele>711.99</ele>
        <time>2016-03-26T14:06:37Z</time>
      </trkpt>
      <trkpt lat="45.37886" lon="4.66655">
        <ele>705.26</ele>
        <time>2016-03-26T14:06:49Z</time>
      </trkpt>
      <trkpt lat="45.3789" lon="4.66679">
        <ele>698.05</ele>
        <time>2016-03-26T14:07:02Z</time>
      </trkpt>
      <trkpt lat="45.37889" lon="4.66685">
        <ele>696.61</ele>
        <time>2016-03-26T14:07:05Z</time>
      </trkpt>
      <trkpt lat="45.3789" lon="4.66697">
        <ele>692.77</ele>
        <time>2016-03-26T14:07:11Z</time>
      </trkpt>
      <trkpt lat="45.37891" lon="4.66713">
        <ele>689.88</ele>
        <time>2016-03-26T14:07:18Z</time>
      </trkpt>
      <trkpt lat="45.37892" lon="4.66724">
        <ele>686.52</ele>
        <time>2016-03-26T14:07:24Z</time>
      </trkpt>
      <trkpt lat="45.37893" lon="4.66739">
        <ele>683.15</ele>
        <time>2016-03-26T14:07:32Z</time>
      </trkpt>
      <trkpt lat="45.37892" lon="4.66753">
        <ele>680.27</ele>
        <time>2016-03-26T14:07:39Z</time>
      </trkpt>
      <trkpt lat="45.37907" lon="4.6677">
        <ele>673.06</ele>
        <time>2016-03-26T14:07:54Z</time>
      </trkpt>
      <trkpt lat="45.37923" lon="4.66778">
        <ele>668.73</ele>
        <time>2016-03-26T14:08:08Z</time>
      </trkpt>
      <trkpt lat="45.37937" lon="4.66761">
        <ele>664.41</ele>
        <time>2016-03-26T14:08:22Z</time>
      </trkpt>
      <trkpt lat="45.37948" lon="4.66746">
        <ele>663.93</ele>
        <time>2016-03-26T14:08:35Z</time>
      </trkpt>
      <trkpt lat="45.37961" lon="4.66734">
        <ele>663.93</ele>
        <time>2016-03-26T14:08:49Z</time>
      </trkpt>
      <trkpt lat="45.37979" lon="4.6672">
        <ele>660.08</ele>
        <time>2016-03-26T14:09:04Z</time>
      </trkpt>
      <trkpt lat="45.37987" lon="4.66719">
        <ele>658.64</ele>
        <time>2016-03-26T14:09:13Z</time>
      </trkpt>
      <trkpt lat="45.37992" lon="4.66724">
        <ele>658.16</ele>
        <time>2016-03-26T14:09:18Z</time>
      </trkpt>
      <trkpt lat="45.38001" lon="4.66735">
        <ele>656.24</ele>
        <time>2016-03-26T14:09:31Z</time>
      </trkpt>
      <trkpt lat="45.38012" lon="4.6675">
        <ele>652.87</ele>
        <time>2016-03-26T14:09:45Z</time>
      </trkpt>
      <trkpt lat="45.38024" lon="4.66762">
        <ele>652.39</ele>
        <time>2016-03-26T14:09:59Z</time>
      </trkpt>
      <trkpt lat="45.38038" lon="4.66774">
        <ele>651.91</ele>
        <time>2016-03-26T14:10:12Z</time>
      </trkpt>
      <trkpt lat="45.38052" lon="4.66773">
        <ele>652.39</ele>
        <time>2016-03-26T14:10:26Z</time>
      </trkpt>
      <trkpt lat="45.38065" lon="4.66764">
        <ele>653.35</ele>
        <time>2016-03-26T14:10:39Z</time>
      </trkpt>
      <trkpt lat="45.38072" lon="4.66767">
        <ele>652.39</ele>
        <time>2016-03-26T14:10:43Z</time>
      </trkpt>
      <trkpt lat="45.38079" lon="4.66774">
        <ele>652.87</ele>
        <time>2016-03-26T14:10:49Z</time>
      </trkpt>
      <trkpt lat="45.38089" lon="4.66788">
        <ele>656.24</ele>
        <time>2016-03-26T14:11:02Z</time>
      </trkpt>
      <trkpt lat="45.38101" lon="4.66798">
        <ele>646.62</ele>
        <time>2016-03-26T14:11:14Z</time>
      </trkpt>
      <trkpt lat="45.38111" lon="4.66811">
        <ele>640.86</ele>
        <time>2016-03-26T14:11:26Z</time>
      </trkpt>
      <trkpt lat="45.38121" lon="4.66834">
        <ele>633.65</ele>
        <time>2016-03-26T14:11:40Z</time>
      </trkpt>
      <trkpt lat="45.38125" lon="4.6685">
        <ele>632.2</ele>
        <time>2016-03-26T14:11:51Z</time>
      </trkpt>
      <trkpt lat="45.3813" lon="4.66864">
        <ele>629.8</ele>
        <time>2016-03-26T14:12:05Z</time>
      </trkpt>
      <trkpt lat="45.38129" lon="4.66868">
        <ele>628.84</ele>
        <time>2016-03-26T14:12:20Z</time>
      </trkpt>
      <trkpt lat="45.38128" lon="4.6687">
        <ele>628.36</ele>
        <time>2016-03-26T14:12:37Z</time>
      </trkpt>
      <trkpt lat="45.38129" lon="4.66873">
        <ele>627.4</ele>
        <time>2016-03-26T14:12:53Z</time>
      </trkpt>
      <trkpt lat="45.38126" lon="4.66875">
        <ele>627.4</ele>
        <time>2016-03-26T14:13:00Z</time>
      </trkpt>
      <trkpt lat="45.38125" lon="4.66882">
        <ele>627.4</ele>
        <time>2016-03-26T14:13:14Z</time>
      </trkpt>
      <trkpt lat="45.38127" lon="4.66884">
        <ele>624.03</ele>
        <time>2016-03-26T14:13:38Z</time>
      </trkpt>
      <trkpt lat="45.38126" lon="4.66885">
        <ele>619.71</ele>
        <time>2016-03-26T14:14:03Z</time>
      </trkpt>
      <trkpt lat="45.38128" lon="4.66883">
        <ele>620.67</ele>
        <time>2016-03-26T14:14:19Z</time>
      </trkpt>
      <trkpt lat="45.38129" lon="4.66882">
        <ele>621.15</ele>
        <time>2016-03-26T14:14:34Z</time>
      </trkpt>
      <trkpt lat="45.38128" lon="4.66882">
        <ele>621.15</ele>
        <time>2016-03-26T14:15:02Z</time>
      </trkpt>
      <trkpt lat="45.38128" lon="4.66881">
        <ele>621.63</ele>
        <time>2016-03-26T14:15:21Z</time>
      </trkpt>
      <trkpt lat="45.38131" lon="4.66881">
        <ele>621.15</ele>
        <time>2016-03-26T14:15:41Z</time>
      </trkpt>
      <trkpt lat="45.3814" lon="4.66886">
        <ele>619.23</ele>
        <time>2016-03-26T14:15:54Z</time>
      </trkpt>
      <trkpt lat="45.38145" lon="4.66897">
        <ele>619.71</ele>
        <time>2016-03-26T14:16:04Z</time>
      </trkpt>
      <trkpt lat="45.3815" lon="4.66903">
        <ele>619.23</ele>
        <time>2016-03-26T14:16:09Z</time>
      </trkpt>
      <trkpt lat="45.38158" lon="4.66916">
        <ele>615.38</ele>
        <time>2016-03-26T14:16:19Z</time>
      </trkpt>
      <trkpt lat="45.38169" lon="4.66936">
        <ele>610.57</ele>
        <time>2016-03-26T14:16:35Z</time>
      </trkpt>
      <trkpt lat="45.38174" lon="4.66952">
        <ele>609.61</ele>
        <time>2016-03-26T14:16:48Z</time>
      </trkpt>
      <trkpt lat="45.38176" lon="4.66967">
        <ele>609.13</ele>
        <time>2016-03-26T14:17:00Z</time>
      </trkpt>
      <trkpt lat="45.38176" lon="4.6698">
        <ele>608.65</ele>
        <time>2016-03-26T14:17:10Z</time>
      </trkpt>
      <trkpt lat="45.38173" lon="4.67006">
        <ele>608.17</ele>
        <time>2016-03-26T14:17:23Z</time>
      </trkpt>
      <trkpt lat="45.38173" lon="4.67007">
        <ele>607.69</ele>
        <time>2016-03-26T14:17:24Z</time>
      </trkpt>
      <trkpt lat="45.38164" lon="4.67016">
        <ele>610.09</ele>
        <time>2016-03-26T14:17:36Z</time>
      </trkpt>
      <trkpt lat="45.38159" lon="4.67038">
        <ele>607.69</ele>
        <time>2016-03-26T14:17:49Z</time>
      </trkpt>
      <trkpt lat="45.38143" lon="4.6705">
        <ele>607.69</ele>
        <time>2016-03-26T14:18:02Z</time>
      </trkpt>
      <trkpt lat="45.3813" lon="4.67068">
        <ele>610.57</ele>
        <time>2016-03-26T14:18:13Z</time>
      </trkpt>
      <trkpt lat="45.38121" lon="4.67071">
        <ele>613.94</ele>
        <time>2016-03-26T14:18:20Z</time>
      </trkpt>
      <trkpt lat="45.38108" lon="4.67084">
        <ele>611.06</ele>
        <time>2016-03-26T14:18:31Z</time>
      </trkpt>
      <trkpt lat="45.38097" lon="4.67083">
        <ele>608.17</ele>
        <time>2016-03-26T14:18:40Z</time>
      </trkpt>
      <trkpt lat="45.38094" lon="4.67085">
        <ele>605.77</ele>
        <time>2016-03-26T14:18:44Z</time>
      </trkpt>
      <trkpt lat="45.38082" lon="4.67095">
        <ele>602.88</ele>
        <time>2016-03-26T14:18:57Z</time>
      </trkpt>
      <trkpt lat="45.38081" lon="4.67095">
        <ele>602.88</ele>
        <time>2016-03-26T14:18:58Z</time>
      </trkpt>
      <trkpt lat="45.38078" lon="4.67096">
        <ele>602.88</ele>
        <time>2016-03-26T14:19:00Z</time>
      </trkpt>
      <trkpt lat="45.38075" lon="4.67099">
        <ele>603.36</ele>
        <time>2016-03-26T14:19:02Z</time>
      </trkpt>
      <trkpt lat="45.38069" lon="4.67122">
        <ele>606.25</ele>
        <time>2016-03-26T14:19:14Z</time>
      </trkpt>
      <trkpt lat="45.3807" lon="4.67136">
        <ele>607.69</ele>
        <time>2016-03-26T14:19:22Z</time>
      </trkpt>
      <trkpt lat="45.38069" lon="4.67157">
        <ele>607.21</ele>
        <time>2016-03-26T14:19:33Z</time>
      </trkpt>
      <trkpt lat="45.38067" lon="4.67162">
        <ele>608.17</ele>
        <time>2016-03-26T14:19:37Z</time>
      </trkpt>
      <trkpt lat="45.38063" lon="4.67182">
        <ele>589.43</ele>
        <time>2016-03-26T14:19:51Z</time>
      </trkpt>
      <trkpt lat="45.38053" lon="4.67186">
        <ele>584.14</ele>
        <time>2016-03-26T14:20:06Z</time>
      </trkpt>
      <trkpt lat="45.38048" lon="4.67189">
        <ele>583.18</ele>
        <time>2016-03-26T14:20:19Z</time>
      </trkpt>
      <trkpt lat="45.38043" lon="4.6719">
        <ele>581.25</ele>
        <time>2016-03-26T14:20:43Z</time>
      </trkpt>
      <trkpt lat="45.38039" lon="4.67189">
        <ele>577.41</ele>
        <time>2016-03-26T14:20:50Z</time>
      </trkpt>
      <trkpt lat="45.38023" lon="4.67188">
        <ele>568.76</ele>
        <time>2016-03-26T14:21:06Z</time>
      </trkpt>
      <trkpt lat="45.38015" lon="4.67187">
        <ele>563.95</ele>
        <time>2016-03-26T14:21:21Z</time>
      </trkpt>
      <trkpt lat="45.38016" lon="4.67194">
        <ele>564.43</ele>
        <time>2016-03-26T14:21:34Z</time>
      </trkpt>
      <trkpt lat="45.38017" lon="4.67205">
        <ele>565.87</ele>
        <time>2016-03-26T14:21:47Z</time>
      </trkpt>
      <trkpt lat="45.3802" lon="4.67224">
        <ele>566.35</ele>
        <time>2016-03-26T14:21:58Z</time>
      </trkpt>
      <trkpt lat="45.38024" lon="4.6724">
        <ele>568.76</ele>
        <time>2016-03-26T14:22:10Z</time>
      </trkpt>
      <trkpt lat="45.38029" lon="4.67253">
        <ele>570.2</ele>
        <time>2016-03-26T14:22:21Z</time>
      </trkpt>
      <trkpt lat="45.38032" lon="4.67272">
        <ele>570.68</ele>
        <time>2016-03-26T14:22:33Z</time>
      </trkpt>
      <trkpt lat="45.38035" lon="4.67292">
        <ele>566.83</ele>
        <time>2016-03-26T14:22:45Z</time>
      </trkpt>
      <trkpt lat="45.3804" lon="4.67312">
        <ele>562.99</ele>
        <time>2016-03-26T14:23:00Z</time>
      </trkpt>
      <trkpt lat="45.38045" lon="4.6733">
        <ele>564.43</ele>
        <time>2016-03-26T14:23:12Z</time>
      </trkpt>
      <trkpt lat="45.38047" lon="4.6734">
        <ele>564.43</ele>
        <time>2016-03-26T14:23:17Z</time>
      </trkpt>
      <trkpt lat="45.38054" lon="4.67365">
        <ele>559.14</ele>
        <time>2016-03-26T14:23:28Z</time>
      </trkpt>
      <trkpt lat="45.38056" lon="4.67367">
        <ele>558.18</ele>
        <time>2016-03-26T14:23:30Z</time>
      </trkpt>
      <trkpt lat="45.38071" lon="4.67377">
        <ele>544.24</ele>
        <time>2016-03-26T14:23:45Z</time>
      </trkpt>
      <trkpt lat="45.38078" lon="4.67387">
        <ele>542.8</ele>
        <time>2016-03-26T14:23:58Z</time>
      </trkpt>
      <trkpt lat="45.38083" lon="4.67392">
        <ele>542.8</ele>
        <time>2016-03-26T14:24:04Z</time>
      </trkpt>
      <trkpt lat="45.38099" lon="4.67406">
        <ele>546.17</ele>
        <time>2016-03-26T14:24:20Z</time>
      </trkpt>
      <trkpt lat="45.38114" lon="4.67441">
        <ele>548.57</ele>
        <time>2016-03-26T14:24:34Z</time>
      </trkpt>
      <trkpt lat="45.38122" lon="4.67459">
        <ele>551.45</ele>
        <time>2016-03-26T14:24:47Z</time>
      </trkpt>
      <trkpt lat="45.38129" lon="4.67473">
        <ele>550.97</ele>
        <time>2016-03-26T14:24:57Z</time>
      </trkpt>
      <trkpt lat="45.38133" lon="4.6748">
        <ele>548.57</ele>
        <time>2016-03-26T14:25:03Z</time>
      </trkpt>
      <trkpt lat="45.38143" lon="4.67503">
        <ele>543.28</ele>
        <time>2016-03-26T14:25:18Z</time>
      </trkpt>
      <trkpt lat="45.38146" lon="4.67524">
        <ele>542.8</ele>
        <time>2016-03-26T14:25:32Z</time>
      </trkpt>
      <trkpt lat="45.38146" lon="4.67525">
        <ele>543.28</ele>
        <time>2016-03-26T14:25:33Z</time>
      </trkpt>
      <trkpt lat="45.38148" lon="4.67531">
        <ele>544.24</ele>
        <time>2016-03-26T14:25:37Z</time>
      </trkpt>
      <trkpt lat="45.38153" lon="4.67552">
        <ele>545.2</ele>
        <time>2016-03-26T14:25:50Z</time>
      </trkpt>
      <trkpt lat="45.38159" lon="4.67568">
        <ele>540.88</ele>
        <time>2016-03-26T14:26:03Z</time>
      </trkpt>
      <trkpt lat="45.38163" lon="4.67583">
        <ele>536.07</ele>
        <time>2016-03-26T14:26:13Z</time>
      </trkpt>
      <trkpt lat="45.38154" lon="4.67609">
        <ele>536.55</ele>
        <time>2016-03-26T14:26:30Z</time>
      </trkpt>
      <trkpt lat="45.38144" lon="4.67629">
        <ele>544.72</ele>
        <time>2016-03-26T14:26:45Z</time>
      </trkpt>
      <trkpt lat="45.38142" lon="4.67654">
        <ele>535.59</ele>
        <time>2016-03-26T14:26:59Z</time>
      </trkpt>
      <trkpt lat="45.38165" lon="4.6765">
        <ele>500.98</ele>
        <time>2016-03-26T14:27:13Z</time>
      </trkpt>
      <trkpt lat="45.38184" lon="4.67664">
        <ele>493.29</ele>
        <time>2016-03-26T14:27:29Z</time>
      </trkpt>
      <trkpt lat="45.38189" lon="4.67674">
        <ele>492.81</ele>
        <time>2016-03-26T14:27:36Z</time>
      </trkpt>
      <trkpt lat="45.38191" lon="4.67678">
        <ele>493.29</ele>
        <time>2016-03-26T14:27:39Z</time>
      </trkpt>
      <trkpt lat="45.38195" lon="4.67696">
        <ele>498.1</ele>
        <time>2016-03-26T14:27:51Z</time>
      </trkpt>
      <trkpt lat="45.382" lon="4.677">
        <ele>498.58</ele>
        <time>2016-03-26T14:27:56Z</time>
      </trkpt>
      <trkpt lat="45.38213" lon="4.67694">
        <ele>497.14</ele>
        <time>2016-03-26T14:28:09Z</time>
      </trkpt>
      <trkpt lat="45.3823" lon="4.67698">
        <ele>490.41</ele>
        <time>2016-03-26T14:28:24Z</time>
      </trkpt>
      <trkpt lat="45.38231" lon="4.677">
        <ele>489.93</ele>
        <time>2016-03-26T14:28:26Z</time>
      </trkpt>
      <trkpt lat="45.38234" lon="4.67705">
        <ele>488.49</ele>
        <time>2016-03-26T14:28:30Z</time>
      </trkpt>
      <trkpt lat="45.38251" lon="4.67727">
        <ele>483.68</ele>
        <time>2016-03-26T14:28:48Z</time>
      </trkpt>
      <trkpt lat="45.38255" lon="4.6773">
        <ele>483.2</ele>
        <time>2016-03-26T14:28:52Z</time>
      </trkpt>
      <trkpt lat="45.38273" lon="4.67736">
        <ele>481.28</ele>
        <time>2016-03-26T14:29:06Z</time>
      </trkpt>
      <trkpt lat="45.38298" lon="4.67742">
        <ele>480.32</ele>
        <time>2016-03-26T14:29:25Z</time>
      </trkpt>
      <trkpt lat="45.38321" lon="4.67747">
        <ele>479.84</ele>
        <time>2016-03-26T14:29:42Z</time>
      </trkpt>
      <trkpt lat="45.38341" lon="4.67754">
        <ele>479.35</ele>
        <time>2016-03-26T14:29:59Z</time>
      </trkpt>
      <trkpt lat="45.38357" lon="4.67762">
        <ele>478.87</ele>
        <time>2016-03-26T14:30:13Z</time>
      </trkpt>
      <trkpt lat="45.38376" lon="4.6777">
        <ele>480.8</ele>
        <time>2016-03-26T14:30:28Z</time>
      </trkpt>
      <trkpt lat="45.38385" lon="4.67777">
        <ele>483.68</ele>
        <time>2016-03-26T14:30:36Z</time>
      </trkpt>
      <trkpt lat="45.3839" lon="4.67794">
        <ele>486.08</ele>
        <time>2016-03-26T14:30:51Z</time>
      </trkpt>
      <trkpt lat="45.384" lon="4.67809">
        <ele>485.6</ele>
        <time>2016-03-26T14:31:04Z</time>
      </trkpt>
      <trkpt lat="45.384" lon="4.6781">
        <ele>485.6</ele>
        <time>2016-03-26T14:31:05Z</time>
      </trkpt>
      <trkpt lat="45.38404" lon="4.67816">
        <ele>485.6</ele>
        <time>2016-03-26T14:31:09Z</time>
      </trkpt>
      <trkpt lat="45.38415" lon="4.67826">
        <ele>486.56</ele>
        <time>2016-03-26T14:31:18Z</time>
      </trkpt>
      <trkpt lat="45.3843" lon="4.67844">
        <ele>487.05</ele>
        <time>2016-03-26T14:31:34Z</time>
      </trkpt>
      <trkpt lat="45.38443" lon="4.67859">
        <ele>489.45</ele>
        <time>2016-03-26T14:31:48Z</time>
      </trkpt>
      <trkpt lat="45.38455" lon="4.67877">
        <ele>489.93</ele>
        <time>2016-03-26T14:32:02Z</time>
      </trkpt>
      <trkpt lat="45.38464" lon="4.67881">
        <ele>489.93</ele>
        <time>2016-03-26T14:32:07Z</time>
      </trkpt>
      <trkpt lat="45.38469" lon="4.67883">
        <ele>489.45</ele>
        <time>2016-03-26T14:32:11Z</time>
      </trkpt>
      <trkpt lat="45.3848" lon="4.6789">
        <ele>489.45</ele>
        <time>2016-03-26T14:32:19Z</time>
      </trkpt>
      <trkpt lat="45.38497" lon="4.67893">
        <ele>487.53</ele>
        <time>2016-03-26T14:32:30Z</time>
      </trkpt>
      <trkpt lat="45.38513" lon="4.679">
        <ele>487.53</ele>
        <time>2016-03-26T14:32:44Z</time>
      </trkpt>
      <trkpt lat="45.38527" lon="4.67913">
        <ele>489.93</ele>
        <time>2016-03-26T14:32:58Z</time>
      </trkpt>
      <trkpt lat="45.38535" lon="4.6792">
        <ele>490.41</ele>
        <time>2016-03-26T14:33:05Z</time>
      </trkpt>
      <trkpt lat="45.38549" lon="4.67933">
        <ele>494.74</ele>
        <time>2016-03-26T14:33:20Z</time>
      </trkpt>
      <trkpt lat="45.3855" lon="4.67934">
        <ele>494.74</ele>
        <time>2016-03-26T14:33:21Z</time>
      </trkpt>
      <trkpt lat="45.38561" lon="4.67931">
        <ele>487.05</ele>
        <time>2016-03-26T14:33:25Z</time>
      </trkpt>
      <trkpt lat="45.38574" lon="4.67942">
        <ele>488.01</ele>
        <time>2016-03-26T14:33:36Z</time>
      </trkpt>
      <trkpt lat="45.38578" lon="4.67944">
        <ele>488.49</ele>
        <time>2016-03-26T14:33:39Z</time>
      </trkpt>
      <trkpt lat="45.386" lon="4.67957">
        <ele>488.97</ele>
        <time>2016-03-26T14:33:55Z</time>
      </trkpt>
      <trkpt lat="45.38607" lon="4.6796">
        <ele>488.97</ele>
        <time>2016-03-26T14:34:00Z</time>
      </trkpt>
      <trkpt lat="45.38615" lon="4.67964">
        <ele>487.05</ele>
        <time>2016-03-26T14:34:06Z</time>
      </trkpt>
      <trkpt lat="45.38639" lon="4.67978">
        <ele>482.72</ele>
        <time>2016-03-26T14:34:25Z</time>
      </trkpt>
      <trkpt lat="45.38648" lon="4.67984">
        <ele>481.76</ele>
        <time>2016-03-26T14:34:33Z</time>
      </trkpt>
      <trkpt lat="45.38655" lon="4.67985">
        <ele>480.8</ele>
        <time>2016-03-26T14:34:38Z</time>
      </trkpt>
      <trkpt lat="45.3866" lon="4.67988">
        <ele>480.8</ele>
        <time>2016-03-26T14:34:42Z</time>
      </trkpt>
      <trkpt lat="45.3868" lon="4.67991">
        <ele>480.8</ele>
        <time>2016-03-26T14:34:57Z</time>
      </trkpt>
      <trkpt lat="45.38692" lon="4.67994">
        <ele>482.72</ele>
        <time>2016-03-26T14:35:08Z</time>
      </trkpt>
      <trkpt lat="45.38697" lon="4.68002">
        <ele>482.72</ele>
        <time>2016-03-26T14:35:15Z</time>
      </trkpt>
      <trkpt lat="45.38716" lon="4.68014">
        <ele>480.32</ele>
        <time>2016-03-26T14:35:30Z</time>
      </trkpt>
      <trkpt lat="45.38727" lon="4.68019">
        <ele>477.91</ele>
        <time>2016-03-26T14:35:38Z</time>
      </trkpt>
      <trkpt lat="45.38749" lon="4.68004">
        <ele>478.87</ele>
        <time>2016-03-26T14:35:56Z</time>
      </trkpt>
      <trkpt lat="45.3875" lon="4.68004">
        <ele>478.87</ele>
        <time>2016-03-26T14:35:57Z</time>
      </trkpt>
      <trkpt lat="45.38756" lon="4.68009">
        <ele>478.39</ele>
        <time>2016-03-26T14:36:02Z</time>
      </trkpt>
      <trkpt lat="45.38775" lon="4.68024">
        <ele>475.51</ele>
        <time>2016-03-26T14:36:17Z</time>
      </trkpt>
      <trkpt lat="45.38787" lon="4.68041">
        <ele>474.07</ele>
        <time>2016-03-26T14:36:29Z</time>
      </trkpt>
      <trkpt lat="45.38794" lon="4.68052">
        <ele>473.11</ele>
        <time>2016-03-26T14:36:36Z</time>
      </trkpt>
      <trkpt lat="45.38806" lon="4.68073">
        <ele>471.18</ele>
        <time>2016-03-26T14:36:51Z</time>
      </trkpt>
      <trkpt lat="45.38806" lon="4.6809">
        <ele>469.74</ele>
        <time>2016-03-26T14:37:00Z</time>
      </trkpt>
      <trkpt lat="45.38814" lon="4.68118">
        <ele>465.9</ele>
        <time>2016-03-26T14:37:15Z</time>
      </trkpt>
      <trkpt lat="45.38833" lon="4.68145">
        <ele>463.01</ele>
        <time>2016-03-26T14:37:33Z</time>
      </trkpt>
      <trkpt lat="45.38856" lon="4.68164">
        <ele>462.05</ele>
        <time>2016-03-26T14:37:52Z</time>
      </trkpt>
      <trkpt lat="45.38866" lon="4.68178">
        <ele>459.65</ele>
        <time>2016-03-26T14:38:03Z</time>
      </trkpt>
      <trkpt lat="45.38865" lon="4.68188">
        <ele>458.69</ele>
        <time>2016-03-26T14:38:13Z</time>
      </trkpt>
      <trkpt lat="45.3884" lon="4.68225">
        <ele>455.32</ele>
        <time>2016-03-26T14:38:37Z</time>
      </trkpt>
      <trkpt lat="45.38815" lon="4.68252">
        <ele>450.03</ele>
        <time>2016-03-26T14:38:59Z</time>
      </trkpt>
      <trkpt lat="45.38799" lon="4.6827">
        <ele>448.11</ele>
        <time>2016-03-26T14:39:14Z</time>
      </trkpt>
      <trkpt lat="45.38774" lon="4.68281">
        <ele>446.19</ele>
        <time>2016-03-26T14:39:33Z</time>
      </trkpt>
      <trkpt lat="45.38749" lon="4.68291">
        <ele>443.79</ele>
        <time>2016-03-26T14:39:51Z</time>
      </trkpt>
      <trkpt lat="45.38724" lon="4.68307">
        <ele>439.94</ele>
        <time>2016-03-26T14:40:11Z</time>
      </trkpt>
      <trkpt lat="45.38706" lon="4.68324">
        <ele>438.02</ele>
        <time>2016-03-26T14:40:29Z</time>
      </trkpt>
      <trkpt lat="45.38705" lon="4.68325">
        <ele>438.02</ele>
        <time>2016-03-26T14:40:30Z</time>
      </trkpt>
      <trkpt lat="45.38686" lon="4.68342">
        <ele>435.61</ele>
        <time>2016-03-26T14:40:48Z</time>
      </trkpt>
      <trkpt lat="45.38666" lon="4.68373">
        <ele>432.25</ele>
        <time>2016-03-26T14:41:08Z</time>
      </trkpt>
      <trkpt lat="45.38653" lon="4.68397">
        <ele>432.73</ele>
        <time>2016-03-26T14:41:25Z</time>
      </trkpt>
      <trkpt lat="45.38642" lon="4.68422">
        <ele>433.21</ele>
        <time>2016-03-26T14:41:42Z</time>
      </trkpt>
      <trkpt lat="45.38637" lon="4.68436">
        <ele>432.25</ele>
        <time>2016-03-26T14:41:51Z</time>
      </trkpt>
      <trkpt lat="45.38623" lon="4.68466">
        <ele>430.81</ele>
        <time>2016-03-26T14:42:09Z</time>
      </trkpt>
      <trkpt lat="45.38615" lon="4.68475">
        <ele>432.25</ele>
        <time>2016-03-26T14:42:18Z</time>
      </trkpt>
      <trkpt lat="45.38604" lon="4.68496">
        <ele>432.25</ele>
        <time>2016-03-26T14:42:33Z</time>
      </trkpt>
      <trkpt lat="45.38591" lon="4.68527">
        <ele>429.37</ele>
        <time>2016-03-26T14:42:52Z</time>
      </trkpt>
      <trkpt lat="45.38583" lon="4.68554">
        <ele>426.96</ele>
        <time>2016-03-26T14:43:07Z</time>
      </trkpt>
      <trkpt lat="45.38576" lon="4.68578">
        <ele>423.6</ele>
        <time>2016-03-26T14:43:23Z</time>
      </trkpt>
      <trkpt lat="45.38576" lon="4.68607">
        <ele>422.16</ele>
        <time>2016-03-26T14:43:39Z</time>
      </trkpt>
      <trkpt lat="45.38584" lon="4.68633">
        <ele>418.31</ele>
        <time>2016-03-26T14:43:54Z</time>
      </trkpt>
      <trkpt lat="45.3859" lon="4.68657">
        <ele>415.91</ele>
        <time>2016-03-26T14:44:08Z</time>
      </trkpt>
      <trkpt lat="45.38596" lon="4.68677">
        <ele>415.43</ele>
        <time>2016-03-26T14:44:20Z</time>
      </trkpt>
      <trkpt lat="45.38599" lon="4.68687">
        <ele>415.91</ele>
        <time>2016-03-26T14:44:26Z</time>
      </trkpt>
      <trkpt lat="45.386" lon="4.68693">
        <ele>415.91</ele>
        <time>2016-03-26T14:44:29Z</time>
      </trkpt>
      <trkpt lat="45.38596" lon="4.68697">
        <ele>415.91</ele>
        <time>2016-03-26T14:44:33Z</time>
      </trkpt>
      <trkpt lat="45.38566" lon="4.68694">
        <ele>415.91</ele>
        <time>2016-03-26T14:44:55Z</time>
      </trkpt>
      <trkpt lat="45.38543" lon="4.68691">
        <ele>417.83</ele>
        <time>2016-03-26T14:45:13Z</time>
      </trkpt>
      <trkpt lat="45.38527" lon="4.68692">
        <ele>418.31</ele>
        <time>2016-03-26T14:45:25Z</time>
      </trkpt>
      <trkpt lat="45.38495" lon="4.68692">
        <ele>418.79</ele>
        <time>2016-03-26T14:45:47Z</time>
      </trkpt>
      <trkpt lat="45.38482" lon="4.68694">
        <ele>418.31</ele>
        <time>2016-03-26T14:45:58Z</time>
      </trkpt>
      <trkpt lat="45.3848" lon="4.68701">
        <ele>417.35</ele>
        <time>2016-03-26T14:46:02Z</time>
      </trkpt>
      <trkpt lat="45.38465" lon="4.68737">
        <ele>413.02</ele>
        <time>2016-03-26T14:46:22Z</time>
      </trkpt>
      <trkpt lat="45.38455" lon="4.68765">
        <ele>409.66</ele>
        <time>2016-03-26T14:46:39Z</time>
      </trkpt>
      <trkpt lat="45.38452" lon="4.68774">
        <ele>407.74</ele>
        <time>2016-03-26T14:46:46Z</time>
      </trkpt>
      <trkpt lat="45.3845" lon="4.68777">
        <ele>407.74</ele>
        <time>2016-03-26T14:46:48Z</time>
      </trkpt>
      <trkpt lat="45.38441" lon="4.68781">
        <ele>407.74</ele>
        <time>2016-03-26T14:46:59Z</time>
      </trkpt>
      <trkpt lat="45.38438" lon="4.68793">
        <ele>406.29</ele>
        <time>2016-03-26T14:47:15Z</time>
      </trkpt>
      <trkpt lat="45.38431" lon="4.68802">
        <ele>406.29</ele>
        <time>2016-03-26T14:47:33Z</time>
      </trkpt>
      <trkpt lat="45.38418" lon="4.68809">
        <ele>408.22</ele>
        <time>2016-03-26T14:47:45Z</time>
      </trkpt>
      <trkpt lat="45.38419" lon="4.68809">
        <ele>407.74</ele>
        <time>2016-03-26T14:48:03Z</time>
      </trkpt>
      <trkpt lat="45.38416" lon="4.68805">
        <ele>408.22</ele>
        <time>2016-03-26T14:48:19Z</time>
      </trkpt>
      <trkpt lat="45.38412" lon="4.68807">
        <ele>407.74</ele>
        <time>2016-03-26T14:48:37Z</time>
      </trkpt>
      <trkpt lat="45.38416" lon="4.68813">
        <ele>407.74</ele>
        <time>2016-03-26T14:48:53Z</time>
      </trkpt>
      <trkpt lat="45.38417" lon="4.68817">
        <ele>408.22</ele>
        <time>2016-03-26T14:48:56Z</time>
      </trkpt>
      <trkpt lat="45.38404" lon="4.68844">
        <ele>406.29</ele>
        <time>2016-03-26T14:49:12Z</time>
      </trkpt>
      <trkpt lat="45.38395" lon="4.68879">
        <ele>396.2</ele>
        <time>2016-03-26T14:49:32Z</time>
      </trkpt>
      <trkpt lat="45.38381" lon="4.68903">
        <ele>391.39</ele>
        <time>2016-03-26T14:49:49Z</time>
      </trkpt>
      <trkpt lat="45.38364" lon="4.68921">
        <ele>389.95</ele>
        <time>2016-03-26T14:50:05Z</time>
      </trkpt>
      <trkpt lat="45.3835" lon="4.68928">
        <ele>388.99</ele>
        <time>2016-03-26T14:50:17Z</time>
      </trkpt>
      <trkpt lat="45.38346" lon="4.6893">
        <ele>388.51</ele>
        <time>2016-03-26T14:50:20Z</time>
      </trkpt>
      <trkpt lat="45.38341" lon="4.68937">
        <ele>387.55</ele>
        <time>2016-03-26T14:50:26Z</time>
      </trkpt>
      <trkpt lat="45.38347" lon="4.6895">
        <ele>386.11</ele>
        <time>2016-03-26T14:50:35Z</time>
      </trkpt>
      <trkpt lat="45.38359" lon="4.68972">
        <ele>386.59</ele>
        <time>2016-03-26T14:50:50Z</time>
      </trkpt>
      <trkpt lat="45.38366" lon="4.68977">
        <ele>385.63</ele>
        <time>2016-03-26T14:51:02Z</time>
      </trkpt>
      <trkpt lat="45.38382" lon="4.68999">
        <ele>385.15</ele>
        <time>2016-03-26T14:51:13Z</time>
      </trkpt>
      <trkpt lat="45.38385" lon="4.69003">
        <ele>385.63</ele>
        <time>2016-03-26T14:51:15Z</time>
      </trkpt>
      <trkpt lat="45.38398" lon="4.69022">
        <ele>386.11</ele>
        <time>2016-03-26T14:51:28Z</time>
      </trkpt>
      <trkpt lat="45.38402" lon="4.69038">
        <ele>383.7</ele>
        <time>2016-03-26T14:51:38Z</time>
      </trkpt>
      <trkpt lat="45.38407" lon="4.69057">
        <ele>381.3</ele>
        <time>2016-03-26T14:51:48Z</time>
      </trkpt>
      <trkpt lat="45.38414" lon="4.69082">
        <ele>379.38</ele>
        <time>2016-03-26T14:52:02Z</time>
      </trkpt>
      <trkpt lat="45.38426" lon="4.69113">
        <ele>387.07</ele>
        <time>2016-03-26T14:52:22Z</time>
      </trkpt>
      <trkpt lat="45.38438" lon="4.69153">
        <ele>386.59</ele>
        <time>2016-03-26T14:52:42Z</time>
      </trkpt>
      <trkpt lat="45.38453" lon="4.6919">
        <ele>387.07</ele>
        <time>2016-03-26T14:53:01Z</time>
      </trkpt>
      <trkpt lat="45.38467" lon="4.69227">
        <ele>386.59</ele>
        <time>2016-03-26T14:53:21Z</time>
      </trkpt>
      <trkpt lat="45.38488" lon="4.6926">
        <ele>385.63</ele>
        <time>2016-03-26T14:53:41Z</time>
      </trkpt>
      <trkpt lat="45.38514" lon="4.69291">
        <ele>387.07</ele>
        <time>2016-03-26T14:54:03Z</time>
      </trkpt>
      <trkpt lat="45.38536" lon="4.69313">
        <ele>387.55</ele>
        <time>2016-03-26T14:54:22Z</time>
      </trkpt>
      <trkpt lat="45.38555" lon="4.69337">
        <ele>388.51</ele>
        <time>2016-03-26T14:54:40Z</time>
      </trkpt>
      <trkpt lat="45.38571" lon="4.69363">
        <ele>388.99</ele>
        <time>2016-03-26T14:54:58Z</time>
      </trkpt>
      <trkpt lat="45.3859" lon="4.69392">
        <ele>388.51</ele>
        <time>2016-03-26T14:55:18Z</time>
      </trkpt>
      <trkpt lat="45.3861" lon="4.69419">
        <ele>389.47</ele>
        <time>2016-03-26T14:55:38Z</time>
      </trkpt>
      <trkpt lat="45.38626" lon="4.69443">
        <ele>389.95</ele>
        <time>2016-03-26T14:55:56Z</time>
      </trkpt>
      <trkpt lat="45.38635" lon="4.69449">
        <ele>390.43</ele>
        <time>2016-03-26T14:56:05Z</time>
      </trkpt>
      <trkpt lat="45.38638" lon="4.6945">
        <ele>390.91</ele>
        <time>2016-03-26T14:56:17Z</time>
      </trkpt>
      <trkpt lat="45.38638" lon="4.69453">
        <ele>391.39</ele>
        <time>2016-03-26T14:56:34Z</time>
      </trkpt>
      <trkpt lat="45.38639" lon="4.69454">
        <ele>391.87</ele>
        <time>2016-03-26T14:56:48Z</time>
      </trkpt>
      <trkpt lat="45.3864" lon="4.69454">
        <ele>391.39</ele>
        <time>2016-03-26T14:57:00Z</time>
      </trkpt>
      <trkpt lat="45.3864" lon="4.69453">
        <ele>390.91</ele>
        <time>2016-03-26T14:57:15Z</time>
      </trkpt>
      <trkpt lat="45.3864" lon="4.69453">
        <ele>391.39</ele>
        <time>2016-03-26T14:57:29Z</time>
      </trkpt>
      <trkpt lat="45.3864" lon="4.69452">
        <ele>390.91</ele>
        <time>2016-03-26T14:57:42Z</time>
      </trkpt>
      <trkpt lat="45.3864" lon="4.69453">
        <ele>390.43</ele>
        <time>2016-03-26T14:57:57Z</time>
      </trkpt>
      <trkpt lat="45.3864" lon="4.69453">
        <ele>390.43</ele>
        <time>2016-03-26T14:58:17Z</time>
      </trkpt>
      <trkpt lat="45.3864" lon="4.69452">
        <ele>390.43</ele>
        <time>2016-03-26T14:58:31Z</time>
      </trkpt>
      <trkpt lat="45.38641" lon="4.69452">
        <ele>389.95</ele>
        <time>2016-03-26T14:58:54Z</time>
      </trkpt>
      <trkpt lat="45.38641" lon="4.69452">
        <ele>389.47</ele>
        <time>2016-03-26T14:59:22Z</time>
      </trkpt>
      <trkpt lat="45.38641" lon="4.69451">
        <ele>389.47</ele>
        <time>2016-03-26T14:59:47Z</time>
      </trkpt>
      <trkpt lat="45.38641" lon="4.69451">
        <ele>389.47</ele>
        <time>2016-03-26T15:00:18Z</time>
      </trkpt>
      <trkpt lat="45.38641" lon="4.6945">
        <ele>389.47</ele>
        <time>2016-03-26T15:00:49Z</time>
      </trkpt>
      <trkpt lat="45.38641" lon="4.6945">
        <ele>389.47</ele>
        <time>2016-03-26T15:01:18Z</time>
      </trkpt>
      <trkpt lat="45.38641" lon="4.6945">
        <ele>389.95</ele>
        <time>2016-03-26T15:01:42Z</time>
      </trkpt>
      <trkpt lat="45.38641" lon="4.69449">
        <ele>389.95</ele>
        <time>2016-03-26T15:02:12Z</time>
      </trkpt>
      <trkpt lat="45.38641" lon="4.69449">
        <ele>389.95</ele>
        <time>2016-03-26T15:02:50Z</time>
      </trkpt>
      <trkpt lat="45.38641" lon="4.6945">
        <ele>390.43</ele>
        <time>2016-03-26T15:03:19Z</time>
      </trkpt>
      <trkpt lat="45.38641" lon="4.6945">
        <ele>389.95</ele>
        <time>2016-03-26T15:03:47Z</time>
      </trkpt>
      <trkpt lat="45.3864" lon="4.6945">
        <ele>389.95</ele>
        <time>2016-03-26T15:04:23Z</time>
      </trkpt>
      <trkpt lat="45.3864" lon="4.6945">
        <ele>389.47</ele>
        <time>2016-03-26T15:04:52Z</time>
      </trkpt>
      <trkpt lat="45.38641" lon="4.6945">
        <ele>389.47</ele>
        <time>2016-03-26T15:05:25Z</time>
      </trkpt>
      <trkpt lat="45.38641" lon="4.6945">
        <ele>388.99</ele>
        <time>2016-03-26T15:06:04Z</time>
      </trkpt>
      <trkpt lat="45.38641" lon="4.6945">
        <ele>388.99</ele>
        <time>2016-03-26T15:06:30Z</time>
      </trkpt>
      <trkpt lat="45.38641" lon="4.6945">
        <ele>388.51</ele>
        <time>2016-03-26T15:06:52Z</time>
      </trkpt>
      <trkpt lat="45.38641" lon="4.69451">
        <ele>388.03</ele>
        <time>2016-03-26T15:07:15Z</time>
      </trkpt>
      <trkpt lat="45.3864" lon="4.69451">
        <ele>388.03</ele>
        <time>2016-03-26T15:07:30Z</time>
      </trkpt>
      <trkpt lat="45.38638" lon="4.6945">
        <ele>388.03</ele>
        <time>2016-03-26T15:07:55Z</time>
      </trkpt>
      <trkpt lat="45.38638" lon="4.69452">
        <ele>388.99</ele>
        <time>2016-03-26T15:08:15Z</time>
      </trkpt>
      <trkpt lat="45.38638" lon="4.69452">
        <ele>389.47</ele>
        <time>2016-03-26T15:08:36Z</time>
      </trkpt>
      <trkpt lat="45.38639" lon="4.69452">
        <ele>388.99</ele>
        <time>2016-03-26T15:08:51Z</time>
      </trkpt>
      <trkpt lat="45.3864" lon="4.69454">
        <ele>388.99</ele>
        <time>2016-03-26T15:09:03Z</time>
      </trkpt>
      <trkpt lat="45.3864" lon="4.69455">
        <ele>389.47</ele>
        <time>2016-03-26T15:09:19Z</time>
      </trkpt>
      <trkpt lat="45.3864" lon="4.69455">
        <ele>389.47</ele>
        <time>2016-03-26T15:09:35Z</time>
      </trkpt>
      <trkpt lat="45.3864" lon="4.69454">
        <ele>388.51</ele>
        <time>2016-03-26T15:09:52Z</time>
      </trkpt>
      <trkpt lat="45.3864" lon="4.69454">
        <ele>388.51</ele>
        <time>2016-03-26T15:10:11Z</time>
      </trkpt>
      <trkpt lat="45.38638" lon="4.69454">
        <ele>389.47</ele>
        <time>2016-03-26T15:10:23Z</time>
      </trkpt>
      <trkpt lat="45.38635" lon="4.69458">
        <ele>390.91</ele>
        <time>2016-03-26T15:10:37Z</time>
      </trkpt>
      <trkpt lat="45.38633" lon="4.69468">
        <ele>391.39</ele>
        <time>2016-03-26T15:10:47Z</time>
      </trkpt>
      <trkpt lat="45.38628" lon="4.69494">
        <ele>389.95</ele>
        <time>2016-03-26T15:11:04Z</time>
      </trkpt>
      <trkpt lat="45.38631" lon="4.69509">
        <ele>390.43</ele>
        <time>2016-03-26T15:11:20Z</time>
      </trkpt>
      <trkpt lat="45.38634" lon="4.6951">
        <ele>390.91</ele>
        <time>2016-03-26T15:11:35Z</time>
      </trkpt>
      <trkpt lat="45.38635" lon="4.69514">
        <ele>390.43</ele>
        <time>2016-03-26T15:11:49Z</time>
      </trkpt>
      <trkpt lat="45.38644" lon="4.69523">
        <ele>391.39</ele>
        <time>2016-03-26T15:12:02Z</time>
      </trkpt>
      <trkpt lat="45.38652" lon="4.69539">
        <ele>391.87</ele>
        <time>2016-03-26T15:12:14Z</time>
      </trkpt>
      <trkpt lat="45.38658" lon="4.69566">
        <ele>391.87</ele>
        <time>2016-03-26T15:12:30Z</time>
      </trkpt>
      <trkpt lat="45.38658" lon="4.69575">
        <ele>390.91</ele>
        <time>2016-03-26T15:12:35Z</time>
      </trkpt>
      <trkpt lat="45.38654" lon="4.69617">
        <ele>388.99</ele>
        <time>2016-03-26T15:12:56Z</time>
      </trkpt>
      <trkpt lat="45.38651" lon="4.69654">
        <ele>387.07</ele>
        <time>2016-03-26T15:13:16Z</time>
      </trkpt>
      <trkpt lat="45.3865" lon="4.69684">
        <ele>386.11</ele>
        <time>2016-03-26T15:13:32Z</time>
      </trkpt>
      <trkpt lat="45.38647" lon="4.69722">
        <ele>382.26</ele>
        <time>2016-03-26T15:13:51Z</time>
      </trkpt>
      <trkpt lat="45.3864" lon="4.69752">
        <ele>380.34</ele>
        <time>2016-03-26T15:14:08Z</time>
      </trkpt>
      <trkpt lat="45.3863" lon="4.69779">
        <ele>378.42</ele>
        <time>2016-03-26T15:14:24Z</time>
      </trkpt>
      <trkpt lat="45.38619" lon="4.69817">
        <ele>374.09</ele>
        <time>2016-03-26T15:14:47Z</time>
      </trkpt>
      <trkpt lat="45.38611" lon="4.69846">
        <ele>372.17</ele>
        <time>2016-03-26T15:15:03Z</time>
      </trkpt>
      <trkpt lat="45.38605" lon="4.69879">
        <ele>371.21</ele>
        <time>2016-03-26T15:15:20Z</time>
      </trkpt>
      <trkpt lat="45.38596" lon="4.69916">
        <ele>370.24</ele>
        <time>2016-03-26T15:15:40Z</time>
      </trkpt>
      <trkpt lat="45.38588" lon="4.69953">
        <ele>366.4</ele>
        <time>2016-03-26T15:16:00Z</time>
      </trkpt>
      <trkpt lat="45.38581" lon="4.69985">
        <ele>366.88</ele>
        <time>2016-03-26T15:16:17Z</time>
      </trkpt>
      <trkpt lat="45.38573" lon="4.70029">
        <ele>365.44</ele>
        <time>2016-03-26T15:16:40Z</time>
      </trkpt>
      <trkpt lat="45.38563" lon="4.70072">
        <ele>364.48</ele>
        <time>2016-03-26T15:17:03Z</time>
      </trkpt>
      <trkpt lat="45.38554" lon="4.701">
        <ele>364.48</ele>
        <time>2016-03-26T15:17:19Z</time>
      </trkpt>
      <trkpt lat="45.38558" lon="4.70104">
        <ele>364</ele>
        <time>2016-03-26T15:17:23Z</time>
      </trkpt>
      <trkpt lat="45.38581" lon="4.70129">
        <ele>362.55</ele>
        <time>2016-03-26T15:17:43Z</time>
      </trkpt>
      <trkpt lat="45.38605" lon="4.70151">
        <ele>362.07</ele>
        <time>2016-03-26T15:18:04Z</time>
      </trkpt>
      <trkpt lat="45.3863" lon="4.70166">
        <ele>361.59</ele>
        <time>2016-03-26T15:18:23Z</time>
      </trkpt>
      <trkpt lat="45.38661" lon="4.70185">
        <ele>359.67</ele>
        <time>2016-03-26T15:18:46Z</time>
      </trkpt>
      <trkpt lat="45.3867" lon="4.70191">
        <ele>359.19</ele>
        <time>2016-03-26T15:18:53Z</time>
      </trkpt>
      <trkpt lat="45.38673" lon="4.70199">
        <ele>359.67</ele>
        <time>2016-03-26T15:18:59Z</time>
      </trkpt>
      <trkpt lat="45.38684" lon="4.70228">
        <ele>358.71</ele>
        <time>2016-03-26T15:19:15Z</time>
      </trkpt>
      <trkpt lat="45.38694" lon="4.70255">
        <ele>358.23</ele>
        <time>2016-03-26T15:19:31Z</time>
      </trkpt>
      <trkpt lat="45.38699" lon="4.70266">
        <ele>357.75</ele>
        <time>2016-03-26T15:19:41Z</time>
      </trkpt>
      <trkpt lat="45.38703" lon="4.70271">
        <ele>356.31</ele>
        <time>2016-03-26T15:19:45Z</time>
      </trkpt>
      <trkpt lat="45.38716" lon="4.70288">
        <ele>354.38</ele>
        <time>2016-03-26T15:19:59Z</time>
      </trkpt>
      <trkpt lat="45.3872" lon="4.70292">
        <ele>353.9</ele>
        <time>2016-03-26T15:20:05Z</time>
      </trkpt>
      <trkpt lat="45.38733" lon="4.70308">
        <ele>351.5</ele>
        <time>2016-03-26T15:20:18Z</time>
      </trkpt>
      <trkpt lat="45.38741" lon="4.70318">
        <ele>351.5</ele>
        <time>2016-03-26T15:20:32Z</time>
      </trkpt>
      <trkpt lat="45.38753" lon="4.70337">
        <ele>352.94</ele>
        <time>2016-03-26T15:20:44Z</time>
      </trkpt>
      <trkpt lat="45.38763" lon="4.70351">
        <ele>352.46</ele>
        <time>2016-03-26T15:20:55Z</time>
      </trkpt>
      <trkpt lat="45.38773" lon="4.70371">
        <ele>350.54</ele>
        <time>2016-03-26T15:21:07Z</time>
      </trkpt>
      <trkpt lat="45.38779" lon="4.70382">
        <ele>348.62</ele>
        <time>2016-03-26T15:21:19Z</time>
      </trkpt>
      <trkpt lat="45.38792" lon="4.70406">
        <ele>344.77</ele>
        <time>2016-03-26T15:21:31Z</time>
      </trkpt>
      <trkpt lat="45.38794" lon="4.7042">
        <ele>343.33</ele>
        <time>2016-03-26T15:21:37Z</time>
      </trkpt>
      <trkpt lat="45.38797" lon="4.70442">
        <ele>342.85</ele>
        <time>2016-03-26T15:21:51Z</time>
      </trkpt>
      <trkpt lat="45.38795" lon="4.70465">
        <ele>342.37</ele>
        <time>2016-03-26T15:22:05Z</time>
      </trkpt>
      <trkpt lat="45.38795" lon="4.70481">
        <ele>340.92</ele>
        <time>2016-03-26T15:22:17Z</time>
      </trkpt>
      <trkpt lat="45.38796" lon="4.70497">
        <ele>341.41</ele>
        <time>2016-03-26T15:22:29Z</time>
      </trkpt>
      <trkpt lat="45.38796" lon="4.70504">
        <ele>341.41</ele>
        <time>2016-03-26T15:22:42Z</time>
      </trkpt>
      <trkpt lat="45.38796" lon="4.70511">
        <ele>341.41</ele>
        <time>2016-03-26T15:22:53Z</time>
      </trkpt>
      <trkpt lat="45.38792" lon="4.70526">
        <ele>342.37</ele>
        <time>2016-03-26T15:23:06Z</time>
      </trkpt>
      <trkpt lat="45.38788" lon="4.70538">
        <ele>339.96</ele>
        <time>2016-03-26T15:23:20Z</time>
      </trkpt>
      <trkpt lat="45.38782" lon="4.70561">
        <ele>340.92</ele>
        <time>2016-03-26T15:23:31Z</time>
      </trkpt>
      <trkpt lat="45.38781" lon="4.70594">
        <ele>338.52</ele>
        <time>2016-03-26T15:23:44Z</time>
      </trkpt>
      <trkpt lat="45.38771" lon="4.70615">
        <ele>337.56</ele>
        <time>2016-03-26T15:23:57Z</time>
      </trkpt>
      <trkpt lat="45.38762" lon="4.70628">
        <ele>336.6</ele>
        <time>2016-03-26T15:24:08Z</time>
      </trkpt>
      <trkpt lat="45.38758" lon="4.70646">
        <ele>337.08</ele>
        <time>2016-03-26T15:24:21Z</time>
      </trkpt>
      <trkpt lat="45.38757" lon="4.70651">
        <ele>336.12</ele>
        <time>2016-03-26T15:24:24Z</time>
      </trkpt>
      <trkpt lat="45.38755" lon="4.70655">
        <ele>335.16</ele>
        <time>2016-03-26T15:24:26Z</time>
      </trkpt>
      <trkpt lat="45.38739" lon="4.70682">
        <ele>332.75</ele>
        <time>2016-03-26T15:24:40Z</time>
      </trkpt>
      <trkpt lat="45.38733" lon="4.70691">
        <ele>331.31</ele>
        <time>2016-03-26T15:24:45Z</time>
      </trkpt>
      <trkpt lat="45.38723" lon="4.70702">
        <ele>328.91</ele>
        <time>2016-03-26T15:24:53Z</time>
      </trkpt>
      <trkpt lat="45.38718" lon="4.70714">
        <ele>327.95</ele>
        <time>2016-03-26T15:25:05Z</time>
      </trkpt>
      <trkpt lat="45.38719" lon="4.70717">
        <ele>329.87</ele>
        <time>2016-03-26T15:25:12Z</time>
      </trkpt>
      <trkpt lat="45.3872" lon="4.70719">
        <ele>331.79</ele>
        <time>2016-03-26T15:25:17Z</time>
      </trkpt>
      <trkpt lat="45.3872" lon="4.70729">
        <ele>331.31</ele>
        <time>2016-03-26T15:25:28Z</time>
      </trkpt>
      <trkpt lat="45.3872" lon="4.70733">
        <ele>331.31</ele>
        <time>2016-03-26T15:25:32Z</time>
      </trkpt>
      <trkpt lat="45.38717" lon="4.70753">
        <ele>335.16</ele>
        <time>2016-03-26T15:25:44Z</time>
      </trkpt>
      <trkpt lat="45.38713" lon="4.70758">
        <ele>334.2</ele>
        <time>2016-03-26T15:25:56Z</time>
      </trkpt>
      <trkpt lat="45.38709" lon="4.70769">
        <ele>334.2</ele>
        <time>2016-03-26T15:26:12Z</time>
      </trkpt>
      <trkpt lat="45.38709" lon="4.70777">
        <ele>331.31</ele>
        <time>2016-03-26T15:26:26Z</time>
      </trkpt>
      <trkpt lat="45.3871" lon="4.70783">
        <ele>327.47</ele>
        <time>2016-03-26T15:26:49Z</time>
      </trkpt>
      <trkpt lat="45.3871" lon="4.70785">
        <ele>326.5</ele>
        <time>2016-03-26T15:27:06Z</time>
      </trkpt>
      <trkpt lat="45.38711" lon="4.70787">
        <ele>326.02</ele>
        <time>2016-03-26T15:27:33Z</time>
      </trkpt>
      <trkpt lat="45.38712" lon="4.7079">
        <ele>326.5</ele>
        <time>2016-03-26T15:27:52Z</time>
      </trkpt>
      <trkpt lat="45.38715" lon="4.70804">
        <ele>329.39</ele>
        <time>2016-03-26T15:28:06Z</time>
      </trkpt>
      <trkpt lat="45.3871" lon="4.70815">
        <ele>329.87</ele>
        <time>2016-03-26T15:28:17Z</time>
      </trkpt>
      <trkpt lat="45.38708" lon="4.70822">
        <ele>332.27</ele>
        <time>2016-03-26T15:28:25Z</time>
      </trkpt>
      <trkpt lat="45.38708" lon="4.70842">
        <ele>333.71</ele>
        <time>2016-03-26T15:28:37Z</time>
      </trkpt>
      <trkpt lat="45.3871" lon="4.70858">
        <ele>336.6</ele>
        <time>2016-03-26T15:28:46Z</time>
      </trkpt>
      <trkpt lat="45.38706" lon="4.70878">
        <ele>332.75</ele>
        <time>2016-03-26T15:28:58Z</time>
      </trkpt>
      <trkpt lat="45.38699" lon="4.70912">
        <ele>324.1</ele>
        <time>2016-03-26T15:29:11Z</time>
      </trkpt>
      <trkpt lat="45.38697" lon="4.70949">
        <ele>321.22</ele>
        <time>2016-03-26T15:29:27Z</time>
      </trkpt>
      <trkpt lat="45.38692" lon="4.70971">
        <ele>321.7</ele>
        <time>2016-03-26T15:29:42Z</time>
      </trkpt>
      <trkpt lat="45.38689" lon="4.70997">
        <ele>321.7</ele>
        <time>2016-03-26T15:29:56Z</time>
      </trkpt>
      <trkpt lat="45.38688" lon="4.70999">
        <ele>321.7</ele>
        <time>2016-03-26T15:29:58Z</time>
      </trkpt>
      <trkpt lat="45.38686" lon="4.71009">
        <ele>322.18</ele>
        <time>2016-03-26T15:30:05Z</time>
      </trkpt>
      <trkpt lat="45.38679" lon="4.71039">
        <ele>322.18</ele>
        <time>2016-03-26T15:30:22Z</time>
      </trkpt>
      <trkpt lat="45.38674" lon="4.71057">
        <ele>322.18</ele>
        <time>2016-03-26T15:30:33Z</time>
      </trkpt>
      <trkpt lat="45.38666" lon="4.71083">
        <ele>320.74</ele>
        <time>2016-03-26T15:30:49Z</time>
      </trkpt>
      <trkpt lat="45.38667" lon="4.71111">
        <ele>320.74</ele>
        <time>2016-03-26T15:31:06Z</time>
      </trkpt>
      <trkpt lat="45.3868" lon="4.71141">
        <ele>321.22</ele>
        <time>2016-03-26T15:31:25Z</time>
      </trkpt>
      <trkpt lat="45.38697" lon="4.71168">
        <ele>319.3</ele>
        <time>2016-03-26T15:31:44Z</time>
      </trkpt>
      <trkpt lat="45.38713" lon="4.7119">
        <ele>322.66</ele>
        <time>2016-03-26T15:32:02Z</time>
      </trkpt>
      <trkpt lat="45.38721" lon="4.71204">
        <ele>322.18</ele>
        <time>2016-03-26T15:32:12Z</time>
      </trkpt>
      <trkpt lat="45.38722" lon="4.71207">
        <ele>322.18</ele>
        <time>2016-03-26T15:32:14Z</time>
      </trkpt>
      <trkpt lat="45.38732" lon="4.71235">
        <ele>324.1</ele>
        <time>2016-03-26T15:32:31Z</time>
      </trkpt>
      <trkpt lat="45.38739" lon="4.71261">
        <ele>324.1</ele>
        <time>2016-03-26T15:32:47Z</time>
      </trkpt>
      <trkpt lat="45.38741" lon="4.71279">
        <ele>327.95</ele>
        <time>2016-03-26T15:32:59Z</time>
      </trkpt>
      <trkpt lat="45.38749" lon="4.71297">
        <ele>330.83</ele>
        <time>2016-03-26T15:33:11Z</time>
      </trkpt>
      <trkpt lat="45.38756" lon="4.71312">
        <ele>329.39</ele>
        <time>2016-03-26T15:33:23Z</time>
      </trkpt>
      <trkpt lat="45.38755" lon="4.71331">
        <ele>330.35</ele>
        <time>2016-03-26T15:33:32Z</time>
      </trkpt>
      <trkpt lat="45.38746" lon="4.71349">
        <ele>329.87</ele>
        <time>2016-03-26T15:33:44Z</time>
      </trkpt>
      <trkpt lat="45.38746" lon="4.71362">
        <ele>328.91</ele>
        <time>2016-03-26T15:33:53Z</time>
      </trkpt>
      <trkpt lat="45.38748" lon="4.71366">
        <ele>328.43</ele>
        <time>2016-03-26T15:33:57Z</time>
      </trkpt>
      <trkpt lat="45.38763" lon="4.71379">
        <ele>328.43</ele>
        <time>2016-03-26T15:34:12Z</time>
      </trkpt>
      <trkpt lat="45.38779" lon="4.71394">
        <ele>330.35</ele>
        <time>2016-03-26T15:34:31Z</time>
      </trkpt>
      <trkpt lat="45.38793" lon="4.7141">
        <ele>331.79</ele>
        <time>2016-03-26T15:34:47Z</time>
      </trkpt>
      <trkpt lat="45.38807" lon="4.71427">
        <ele>332.75</ele>
        <time>2016-03-26T15:35:03Z</time>
      </trkpt>
      <trkpt lat="45.38811" lon="4.71429">
        <ele>333.23</ele>
        <time>2016-03-26T15:35:06Z</time>
      </trkpt>
      <trkpt lat="45.38819" lon="4.7146">
        <ele>334.68</ele>
        <time>2016-03-26T15:35:25Z</time>
      </trkpt>
      <trkpt lat="45.3883" lon="4.71481">
        <ele>334.2</ele>
        <time>2016-03-26T15:35:42Z</time>
      </trkpt>
      <trkpt lat="45.38827" lon="4.71498">
        <ele>334.2</ele>
        <time>2016-03-26T15:35:51Z</time>
      </trkpt>
      <trkpt lat="45.38817" lon="4.71528">
        <ele>338.04</ele>
        <time>2016-03-26T15:36:10Z</time>
      </trkpt>
      <trkpt lat="45.38805" lon="4.71562">
        <ele>335.64</ele>
        <time>2016-03-26T15:36:30Z</time>
      </trkpt>
      <trkpt lat="45.38795" lon="4.7159">
        <ele>335.16</ele>
        <time>2016-03-26T15:36:47Z</time>
      </trkpt>
      <trkpt lat="45.38782" lon="4.71626">
        <ele>333.71</ele>
        <time>2016-03-26T15:37:08Z</time>
      </trkpt>
      <trkpt lat="45.38772" lon="4.71653">
        <ele>331.79</ele>
        <time>2016-03-26T15:37:25Z</time>
      </trkpt>
      <trkpt lat="45.38766" lon="4.71687">
        <ele>329.87</ele>
        <time>2016-03-26T15:37:45Z</time>
      </trkpt>
      <trkpt lat="45.38772" lon="4.7172">
        <ele>332.75</ele>
        <time>2016-03-26T15:38:03Z</time>
      </trkpt>
      <trkpt lat="45.38771" lon="4.71755">
        <ele>330.35</ele>
        <time>2016-03-26T15:38:20Z</time>
      </trkpt>
      <trkpt lat="45.38754" lon="4.71791">
        <ele>328.91</ele>
        <time>2016-03-26T15:38:41Z</time>
      </trkpt>
      <trkpt lat="45.38754" lon="4.7182">
        <ele>329.87</ele>
        <time>2016-03-26T15:38:58Z</time>
      </trkpt>
      <trkpt lat="45.38763" lon="4.71836">
        <ele>329.39</ele>
        <time>2016-03-26T15:39:15Z</time>
      </trkpt>
      <trkpt lat="45.38761" lon="4.71841">
        <ele>328.91</ele>
        <time>2016-03-26T15:39:20Z</time>
      </trkpt>
      <trkpt lat="45.38753" lon="4.71852">
        <ele>328.43</ele>
        <time>2016-03-26T15:39:29Z</time>
      </trkpt>
      <trkpt lat="45.38734" lon="4.71871">
        <ele>326.5</ele>
        <time>2016-03-26T15:39:47Z</time>
      </trkpt>
      <trkpt lat="45.38729" lon="4.71898">
        <ele>325.06</ele>
        <time>2016-03-26T15:40:03Z</time>
      </trkpt>
      <trkpt lat="45.38726" lon="4.71929">
        <ele>323.62</ele>
        <time>2016-03-26T15:40:20Z</time>
      </trkpt>
      <trkpt lat="45.38724" lon="4.71956">
        <ele>323.62</ele>
        <time>2016-03-26T15:40:36Z</time>
      </trkpt>
      <trkpt lat="45.38724" lon="4.7196">
        <ele>322.66</ele>
        <time>2016-03-26T15:40:39Z</time>
      </trkpt>
      <trkpt lat="45.38718" lon="4.71994">
        <ele>319.3</ele>
        <time>2016-03-26T15:40:57Z</time>
      </trkpt>
      <trkpt lat="45.38709" lon="4.72016">
        <ele>318.33</ele>
        <time>2016-03-26T15:41:09Z</time>
      </trkpt>
      <trkpt lat="45.38707" lon="4.7202">
        <ele>317.37</ele>
        <time>2016-03-26T15:41:16Z</time>
      </trkpt>
      <trkpt lat="45.38696" lon="4.72038">
        <ele>313.53</ele>
        <time>2016-03-26T15:41:28Z</time>
      </trkpt>
      <trkpt lat="45.38683" lon="4.72068">
        <ele>313.53</ele>
        <time>2016-03-26T15:41:46Z</time>
      </trkpt>
      <trkpt lat="45.38673" lon="4.72099">
        <ele>310.16</ele>
        <time>2016-03-26T15:42:05Z</time>
      </trkpt>
      <trkpt lat="45.3867" lon="4.72107">
        <ele>310.64</ele>
        <time>2016-03-26T15:42:11Z</time>
      </trkpt>
      <trkpt lat="45.3868" lon="4.72133">
        <ele>310.64</ele>
        <time>2016-03-26T15:42:28Z</time>
      </trkpt>
      <trkpt lat="45.38682" lon="4.72136">
        <ele>310.64</ele>
        <time>2016-03-26T15:42:31Z</time>
      </trkpt>
      <trkpt lat="45.3869" lon="4.72137">
        <ele>312.09</ele>
        <time>2016-03-26T15:42:40Z</time>
      </trkpt>
      <trkpt lat="45.38702" lon="4.7216">
        <ele>310.16</ele>
        <time>2016-03-26T15:42:55Z</time>
      </trkpt>
      <trkpt lat="45.38709" lon="4.72172">
        <ele>310.16</ele>
        <time>2016-03-26T15:43:05Z</time>
      </trkpt>
      <trkpt lat="45.38715" lon="4.72188">
        <ele>310.64</ele>
        <time>2016-03-26T15:43:14Z</time>
      </trkpt>
      <trkpt lat="45.38721" lon="4.72203">
        <ele>310.64</ele>
        <time>2016-03-26T15:43:30Z</time>
      </trkpt>
      <trkpt lat="45.38715" lon="4.72216">
        <ele>308.24</ele>
        <time>2016-03-26T15:43:38Z</time>
      </trkpt>
      <trkpt lat="45.38705" lon="4.7223">
        <ele>304.88</ele>
        <time>2016-03-26T15:43:48Z</time>
      </trkpt>
      <trkpt lat="45.38695" lon="4.72244">
        <ele>301.51</ele>
        <time>2016-03-26T15:43:58Z</time>
      </trkpt>
      <trkpt lat="45.3868" lon="4.72264">
        <ele>297.18</ele>
        <time>2016-03-26T15:44:16Z</time>
      </trkpt>
      <trkpt lat="45.38677" lon="4.72269">
        <ele>295.74</ele>
        <time>2016-03-26T15:44:21Z</time>
      </trkpt>
      <trkpt lat="45.38673" lon="4.72274">
        <ele>293.82</ele>
        <time>2016-03-26T15:44:26Z</time>
      </trkpt>
      <trkpt lat="45.38666" lon="4.72285">
        <ele>291.9</ele>
        <time>2016-03-26T15:44:40Z</time>
      </trkpt>
      <trkpt lat="45.38662" lon="4.72283">
        <ele>291.9</ele>
        <time>2016-03-26T15:44:54Z</time>
      </trkpt>
      <trkpt lat="45.38662" lon="4.72282">
        <ele>291.9</ele>
        <time>2016-03-26T15:45:11Z</time>
      </trkpt>
      <trkpt lat="45.38662" lon="4.72282">
        <ele>292.38</ele>
        <time>2016-03-26T15:45:30Z</time>
      </trkpt>
      <trkpt lat="45.38663" lon="4.72283">
        <ele>291.9</ele>
        <time>2016-03-26T15:45:49Z</time>
      </trkpt>
      <trkpt lat="45.38662" lon="4.72284">
        <ele>291.9</ele>
        <time>2016-03-26T15:46:05Z</time>
      </trkpt>
      <trkpt lat="45.38662" lon="4.72284">
        <ele>292.86</ele>
        <time>2016-03-26T15:46:22Z</time>
      </trkpt>
      <trkpt lat="45.38661" lon="4.72284">
        <ele>293.34</ele>
        <time>2016-03-26T15:46:41Z</time>
      </trkpt>
      <trkpt lat="45.38659" lon="4.7228">
        <ele>292.86</ele>
        <time>2016-03-26T15:46:52Z</time>
      </trkpt>
      <trkpt lat="45.38653" lon="4.7227">
        <ele>291.9</ele>
        <time>2016-03-26T15:47:02Z</time>
      </trkpt>
      <trkpt lat="45.38642" lon="4.72247">
        <ele>289.49</ele>
        <time>2016-03-26T15:47:18Z</time>
      </trkpt>
      <trkpt lat="45.38637" lon="4.72228">
        <ele>286.13</ele>
        <time>2016-03-26T15:47:34Z</time>
      </trkpt>
      <trkpt lat="45.3863" lon="4.72216">
        <ele>284.21</ele>
        <time>2016-03-26T15:47:49Z</time>
      </trkpt>
      <trkpt lat="45.3863" lon="4.72218">
        <ele>283.73</ele>
        <time>2016-03-26T15:47:54Z</time>
      </trkpt>
      <trkpt lat="45.3863" lon="4.7222">
        <ele>283.25</ele>
        <time>2016-03-26T15:47:56Z</time>
      </trkpt>
      <trkpt lat="45.38631" lon="4.7223">
        <ele>281.8</ele>
        <time>2016-03-26T15:48:03Z</time>
      </trkpt>
      <trkpt lat="45.38627" lon="4.7224">
        <ele>278.92</ele>
        <time>2016-03-26T15:48:16Z</time>
      </trkpt>
      <trkpt lat="45.38627" lon="4.7226">
        <ele>277.48</ele>
        <time>2016-03-26T15:48:28Z</time>
      </trkpt>
      <trkpt lat="45.38629" lon="4.72278">
        <ele>277.48</ele>
        <time>2016-03-26T15:48:40Z</time>
      </trkpt>
      <trkpt lat="45.38626" lon="4.72293">
        <ele>277</ele>
        <time>2016-03-26T15:48:53Z</time>
      </trkpt>
      <trkpt lat="45.38626" lon="4.72314">
        <ele>275.07</ele>
        <time>2016-03-26T15:49:08Z</time>
      </trkpt>
      <trkpt lat="45.38627" lon="4.72334">
        <ele>274.11</ele>
        <time>2016-03-26T15:49:21Z</time>
      </trkpt>
      <trkpt lat="45.38627" lon="4.7234">
        <ele>274.59</ele>
        <time>2016-03-26T15:49:26Z</time>
      </trkpt>
      <trkpt lat="45.38626" lon="4.72346">
        <ele>276.04</ele>
        <time>2016-03-26T15:49:35Z</time>
      </trkpt>
      <trkpt lat="45.38625" lon="4.72353">
        <ele>271.71</ele>
        <time>2016-03-26T15:49:45Z</time>
      </trkpt>
      <trkpt lat="45.38624" lon="4.72379">
        <ele>269.79</ele>
        <time>2016-03-26T15:50:03Z</time>
      </trkpt>
      <trkpt lat="45.38615" lon="4.72384">
        <ele>269.31</ele>
        <time>2016-03-26T15:50:13Z</time>
      </trkpt>
      <trkpt lat="45.38611" lon="4.72384">
        <ele>268.83</ele>
        <time>2016-03-26T15:50:16Z</time>
      </trkpt>
      <trkpt lat="45.38598" lon="4.72387">
        <ele>270.27</ele>
        <time>2016-03-26T15:50:30Z</time>
      </trkpt>
      <trkpt lat="45.38592" lon="4.7239">
        <ele>270.75</ele>
        <time>2016-03-26T15:50:36Z</time>
      </trkpt>
      <trkpt lat="45.38586" lon="4.72398">
        <ele>272.19</ele>
        <time>2016-03-26T15:50:49Z</time>
      </trkpt>
      <trkpt lat="45.38585" lon="4.72406">
        <ele>263.06</ele>
        <time>2016-03-26T15:51:13Z</time>
      </trkpt>
      <trkpt lat="45.38583" lon="4.72407">
        <ele>263.06</ele>
        <time>2016-03-26T15:51:20Z</time>
      </trkpt>
      <trkpt lat="45.38582" lon="4.72409">
        <ele>264.02</ele>
        <time>2016-03-26T15:51:23Z</time>
      </trkpt>
      <trkpt lat="45.38578" lon="4.72426">
        <ele>269.31</ele>
        <time>2016-03-26T15:51:39Z</time>
      </trkpt>
      <trkpt lat="45.38574" lon="4.72435">
        <ele>270.75</ele>
        <time>2016-03-26T15:51:47Z</time>
      </trkpt>
      <trkpt lat="45.38571" lon="4.72439">
        <ele>270.75</ele>
        <time>2016-03-26T15:51:50Z</time>
      </trkpt>
      <trkpt lat="45.38564" lon="4.72468">
        <ele>271.23</ele>
        <time>2016-03-26T15:52:08Z</time>
      </trkpt>
      <trkpt lat="45.3856" lon="4.72474">
        <ele>271.23</ele>
        <time>2016-03-26T15:52:12Z</time>
      </trkpt>
      <trkpt lat="45.38552" lon="4.72487">
        <ele>272.19</ele>
        <time>2016-03-26T15:52:22Z</time>
      </trkpt>
      <trkpt lat="45.38544" lon="4.72505">
        <ele>271.71</ele>
        <time>2016-03-26T15:52:35Z</time>
      </trkpt>
      <trkpt lat="45.38541" lon="4.72509">
        <ele>272.67</ele>
        <time>2016-03-26T15:52:39Z</time>
      </trkpt>
      <trkpt lat="45.38536" lon="4.72542">
        <ele>265.94</ele>
        <time>2016-03-26T15:52:56Z</time>
      </trkpt>
      <trkpt lat="45.38533" lon="4.72549">
        <ele>267.38</ele>
        <time>2016-03-26T15:53:03Z</time>
      </trkpt>
      <trkpt lat="45.38531" lon="4.72552">
        <ele>268.35</ele>
        <time>2016-03-26T15:53:06Z</time>
      </trkpt>
      <trkpt lat="45.38521" lon="4.72565">
        <ele>269.79</ele>
        <time>2016-03-26T15:53:21Z</time>
      </trkpt>
      <trkpt lat="45.38505" lon="4.72571">
        <ele>266.42</ele>
        <time>2016-03-26T15:53:25Z</time>
      </trkpt>
      <trkpt lat="45.38473" lon="4.72591">
        <ele>258.25</ele>
        <time>2016-03-26T15:53:41Z</time>
      </trkpt>
      <trkpt lat="45.3847" lon="4.72597">
        <ele>256.81</ele>
        <time>2016-03-26T15:53:52Z</time>
      </trkpt>
      <trkpt lat="45.38469" lon="4.726">
        <ele>256.33</ele>
        <time>2016-03-26T15:54:07Z</time>
      </trkpt>
      <trkpt lat="45.38452" lon="4.72616">
        <ele>256.81</ele>
        <time>2016-03-26T15:54:21Z</time>
      </trkpt>
      <trkpt lat="45.38436" lon="4.72629">
        <ele>257.29</ele>
        <time>2016-03-26T15:54:37Z</time>
      </trkpt>
      <trkpt lat="45.38423" lon="4.72635">
        <ele>257.77</ele>
        <time>2016-03-26T15:54:47Z</time>
      </trkpt>
      <trkpt lat="45.38409" lon="4.72645">
        <ele>261.62</ele>
        <time>2016-03-26T15:55:01Z</time>
      </trkpt>
      <trkpt lat="45.38395" lon="4.72663">
        <ele>259.21</ele>
        <time>2016-03-26T15:55:17Z</time>
      </trkpt>
      <trkpt lat="45.38373" lon="4.72668">
        <ele>258.25</ele>
        <time>2016-03-26T15:55:30Z</time>
      </trkpt>
      <trkpt lat="45.3835" lon="4.72685">
        <ele>252.48</ele>
        <time>2016-03-26T15:55:45Z</time>
      </trkpt>
      <trkpt lat="45.38343" lon="4.72696">
        <ele>251.52</ele>
        <time>2016-03-26T15:55:52Z</time>
      </trkpt>
      <trkpt lat="45.38342" lon="4.72698">
        <ele>251.52</ele>
        <time>2016-03-26T15:55:54Z</time>
      </trkpt>
      <trkpt lat="45.38346" lon="4.72721">
        <ele>253.93</ele>
        <time>2016-03-26T15:56:09Z</time>
      </trkpt>
      <trkpt lat="45.38346" lon="4.72724">
        <ele>255.37</ele>
        <time>2016-03-26T15:56:26Z</time>
      </trkpt>
      <trkpt lat="45.38347" lon="4.72724">
        <ele>255.37</ele>
        <time>2016-03-26T15:56:45Z</time>
      </trkpt>
      <trkpt lat="45.38344" lon="4.72726">
        <ele>255.85</ele>
        <time>2016-03-26T15:57:01Z</time>
      </trkpt>
      <trkpt lat="45.38344" lon="4.72725">
        <ele>253.93</ele>
        <time>2016-03-26T15:57:18Z</time>
      </trkpt>
      <trkpt lat="45.38344" lon="4.72724">
        <ele>252.96</ele>
        <time>2016-03-26T15:57:35Z</time>
      </trkpt>
      <trkpt lat="45.38342" lon="4.72725">
        <ele>251.52</ele>
        <time>2016-03-26T15:57:54Z</time>
      </trkpt>
      <trkpt lat="45.38343" lon="4.72726">
        <ele>252.48</ele>
        <time>2016-03-26T15:58:09Z</time>
      </trkpt>
      <trkpt lat="45.38342" lon="4.72727">
        <ele>252.48</ele>
        <time>2016-03-26T15:58:10Z</time>
      </trkpt>
      <trkpt lat="45.38333" lon="4.72732">
        <ele>251.04</ele>
        <time>2016-03-26T15:58:19Z</time>
      </trkpt>
      <trkpt lat="45.38325" lon="4.72734">
        <ele>253.44</ele>
        <time>2016-03-26T15:58:25Z</time>
      </trkpt>
      <trkpt lat="45.38319" lon="4.72738">
        <ele>255.37</ele>
        <time>2016-03-26T15:58:29Z</time>
      </trkpt>
      <trkpt lat="45.38316" lon="4.72746">
        <ele>257.29</ele>
        <time>2016-03-26T15:58:35Z</time>
      </trkpt>
      <trkpt lat="45.38318" lon="4.72754">
        <ele>256.81</ele>
        <time>2016-03-26T15:58:39Z</time>
      </trkpt>
      <trkpt lat="45.38324" lon="4.72769">
        <ele>258.25</ele>
        <time>2016-03-26T15:58:53Z</time>
      </trkpt>
      <trkpt lat="45.38325" lon="4.72771">
        <ele>258.25</ele>
        <time>2016-03-26T15:58:56Z</time>
      </trkpt>
      <trkpt lat="45.38325" lon="4.72774">
        <ele>258.73</ele>
        <time>2016-03-26T15:58:58Z</time>
      </trkpt>
      <trkpt lat="45.38335" lon="4.72785">
        <ele>264.5</ele>
        <time>2016-03-26T15:59:06Z</time>
      </trkpt>
      <trkpt lat="45.38344" lon="4.72804">
        <ele>267.86</ele>
        <time>2016-03-26T15:59:18Z</time>
      </trkpt>
      <trkpt lat="45.38346" lon="4.72822">
        <ele>266.9</ele>
        <time>2016-03-26T15:59:31Z</time>
      </trkpt>
      <trkpt lat="45.3835" lon="4.7282">
        <ele>268.83</ele>
        <time>2016-03-26T15:59:44Z</time>
      </trkpt>
      <trkpt lat="45.38359" lon="4.72828">
        <ele>277</ele>
        <time>2016-03-26T15:59:55Z</time>
      </trkpt>
      <trkpt lat="45.38361" lon="4.72829">
        <ele>279.4</ele>
        <time>2016-03-26T15:59:58Z</time>
      </trkpt>
      <trkpt lat="45.38361" lon="4.7283">
        <ele>281.8</ele>
        <time>2016-03-26T16:00:04Z</time>
      </trkpt>
      <trkpt lat="45.38365" lon="4.72828">
        <ele>284.21</ele>
        <time>2016-03-26T16:00:15Z</time>
      </trkpt>
      <trkpt lat="45.38376" lon="4.72833">
        <ele>281.32</ele>
        <time>2016-03-26T16:00:26Z</time>
      </trkpt>
      <trkpt lat="45.38378" lon="4.72834">
        <ele>279.4</ele>
        <time>2016-03-26T16:00:34Z</time>
      </trkpt>
      <trkpt lat="45.38383" lon="4.72849">
        <ele>274.59</ele>
        <time>2016-03-26T16:00:47Z</time>
      </trkpt>
      <trkpt lat="45.38372" lon="4.72858">
        <ele>265.46</ele>
        <time>2016-03-26T16:01:03Z</time>
      </trkpt>
      <trkpt lat="45.38366" lon="4.72862">
        <ele>260.65</ele>
        <time>2016-03-26T16:01:19Z</time>
      </trkpt>
      <trkpt lat="45.38374" lon="4.72874">
        <ele>259.69</ele>
        <time>2016-03-26T16:01:31Z</time>
      </trkpt>
      <trkpt lat="45.38372" lon="4.72877">
        <ele>256.33</ele>
        <time>2016-03-26T16:01:45Z</time>
      </trkpt>
      <trkpt lat="45.38382" lon="4.7289">
        <ele>254.89</ele>
        <time>2016-03-26T16:02:00Z</time>
      </trkpt>
      <trkpt lat="45.38388" lon="4.72908">
        <ele>256.81</ele>
        <time>2016-03-26T16:02:15Z</time>
      </trkpt>
      <trkpt lat="45.38388" lon="4.7291">
        <ele>256.81</ele>
        <time>2016-03-26T16:02:16Z</time>
      </trkpt>
      <trkpt lat="45.3839" lon="4.7292">
        <ele>257.29</ele>
        <time>2016-03-26T16:02:22Z</time>
      </trkpt>
      <trkpt lat="45.38397" lon="4.72931">
        <ele>245.75</ele>
        <time>2016-03-26T16:02:35Z</time>
      </trkpt>
      <trkpt lat="45.38394" lon="4.72943">
        <ele>249.6</ele>
        <time>2016-03-26T16:02:46Z</time>
      </trkpt>
      <trkpt lat="45.38393" lon="4.72944">
        <ele>250.08</ele>
        <time>2016-03-26T16:02:47Z</time>
      </trkpt>
      <trkpt lat="45.38388" lon="4.72968">
        <ele>249.6</ele>
        <time>2016-03-26T16:03:00Z</time>
      </trkpt>
      <trkpt lat="45.38386" lon="4.72991">
        <ele>250.56</ele>
        <time>2016-03-26T16:03:15Z</time>
      </trkpt>
      <trkpt lat="45.38385" lon="4.73012">
        <ele>249.6</ele>
        <time>2016-03-26T16:03:29Z</time>
      </trkpt>
      <trkpt lat="45.38383" lon="4.7302">
        <ele>249.12</ele>
        <time>2016-03-26T16:03:35Z</time>
      </trkpt>
      <trkpt lat="45.38371" lon="4.73044">
        <ele>249.12</ele>
        <time>2016-03-26T16:03:52Z</time>
      </trkpt>
      <trkpt lat="45.38367" lon="4.73055">
        <ele>249.12</ele>
        <time>2016-03-26T16:04:00Z</time>
      </trkpt>
      <trkpt lat="45.38366" lon="4.73066">
        <ele>248.16</ele>
        <time>2016-03-26T16:04:06Z</time>
      </trkpt>
      <trkpt lat="45.38366" lon="4.73082">
        <ele>246.72</ele>
        <time>2016-03-26T16:04:14Z</time>
      </trkpt>
      <trkpt lat="45.38366" lon="4.73099">
        <ele>245.75</ele>
        <time>2016-03-26T16:04:30Z</time>
      </trkpt>
      <trkpt lat="45.38366" lon="4.73112">
        <ele>246.23</ele>
        <time>2016-03-26T16:04:44Z</time>
      </trkpt>
      <trkpt lat="45.38367" lon="4.73122">
        <ele>244.79</ele>
        <time>2016-03-26T16:04:58Z</time>
      </trkpt>
      <trkpt lat="45.38368" lon="4.73126">
        <ele>244.31</ele>
        <time>2016-03-26T16:05:12Z</time>
      </trkpt>
      <trkpt lat="45.38369" lon="4.73133">
        <ele>243.83</ele>
        <time>2016-03-26T16:05:34Z</time>
      </trkpt>
      <trkpt lat="45.38372" lon="4.73143">
        <ele>243.83</ele>
        <time>2016-03-26T16:05:41Z</time>
      </trkpt>
      <trkpt lat="45.38373" lon="4.73146">
        <ele>243.83</ele>
        <time>2016-03-26T16:05:43Z</time>
      </trkpt>
      <trkpt lat="45.38378" lon="4.73157">
        <ele>244.79</ele>
        <time>2016-03-26T16:05:51Z</time>
      </trkpt>
      <trkpt lat="45.38384" lon="4.73176">
        <ele>246.72</ele>
        <time>2016-03-26T16:06:09Z</time>
      </trkpt>
      <trkpt lat="45.38388" lon="4.73183">
        <ele>247.2</ele>
        <time>2016-03-26T16:06:14Z</time>
      </trkpt>
      <trkpt lat="45.38393" lon="4.73201">
        <ele>248.16</ele>
        <time>2016-03-26T16:06:26Z</time>
      </trkpt>
      <trkpt lat="45.384" lon="4.73211">
        <ele>248.16</ele>
        <time>2016-03-26T16:06:34Z</time>
      </trkpt>
      <trkpt lat="45.38405" lon="4.73231">
        <ele>251.52</ele>
        <time>2016-03-26T16:06:49Z</time>
      </trkpt>
      <trkpt lat="45.38407" lon="4.73238">
        <ele>252</ele>
        <time>2016-03-26T16:06:53Z</time>
      </trkpt>
      <trkpt lat="45.38413" lon="4.73258">
        <ele>252.96</ele>
        <time>2016-03-26T16:07:07Z</time>
      </trkpt>
      <trkpt lat="45.38416" lon="4.73268">
        <ele>250.08</ele>
        <time>2016-03-26T16:07:17Z</time>
      </trkpt>
      <trkpt lat="45.38427" lon="4.73282">
        <ele>241.43</ele>
        <time>2016-03-26T16:07:31Z</time>
      </trkpt>
      <trkpt lat="45.3844" lon="4.73292">
        <ele>228.93</ele>
        <time>2016-03-26T16:07:45Z</time>
      </trkpt>
      <trkpt lat="45.38454" lon="4.73301">
        <ele>225.57</ele>
        <time>2016-03-26T16:08:00Z</time>
      </trkpt>
      <trkpt lat="45.38464" lon="4.73312">
        <ele>228.45</ele>
        <time>2016-03-26T16:08:14Z</time>
      </trkpt>
      <trkpt lat="45.3847" lon="4.73331">
        <ele>232.3</ele>
        <time>2016-03-26T16:08:29Z</time>
      </trkpt>
      <trkpt lat="45.38474" lon="4.73354">
        <ele>237.1</ele>
        <time>2016-03-26T16:08:45Z</time>
      </trkpt>
      <trkpt lat="45.38479" lon="4.73376">
        <ele>239.99</ele>
        <time>2016-03-26T16:09:00Z</time>
      </trkpt>
      <trkpt lat="45.38489" lon="4.7339">
        <ele>238.06</ele>
        <time>2016-03-26T16:09:15Z</time>
      </trkpt>
      <trkpt lat="45.38492" lon="4.73394">
        <ele>237.58</ele>
        <time>2016-03-26T16:09:19Z</time>
      </trkpt>
      <trkpt lat="45.38496" lon="4.73412">
        <ele>241.43</ele>
        <time>2016-03-26T16:09:35Z</time>
      </trkpt>
      <trkpt lat="45.38499" lon="4.73426">
        <ele>239.51</ele>
        <time>2016-03-26T16:09:48Z</time>
      </trkpt>
      <trkpt lat="45.38502" lon="4.73426">
        <ele>238.06</ele>
        <time>2016-03-26T16:09:52Z</time>
      </trkpt>
      <trkpt lat="45.38515" lon="4.73419">
        <ele>239.02</ele>
        <time>2016-03-26T16:10:07Z</time>
      </trkpt>
      <trkpt lat="45.38526" lon="4.73406">
        <ele>241.91</ele>
        <time>2016-03-26T16:10:20Z</time>
      </trkpt>
      <trkpt lat="45.38535" lon="4.73405">
        <ele>248.64</ele>
        <time>2016-03-26T16:10:34Z</time>
      </trkpt>
      <trkpt lat="45.38537" lon="4.73412">
        <ele>253.44</ele>
        <time>2016-03-26T16:10:41Z</time>
      </trkpt>
      <trkpt lat="45.38538" lon="4.73416">
        <ele>255.37</ele>
        <time>2016-03-26T16:10:44Z</time>
      </trkpt>
      <trkpt lat="45.38542" lon="4.73433">
        <ele>264.5</ele>
        <time>2016-03-26T16:10:59Z</time>
      </trkpt>
      <trkpt lat="45.3854" lon="4.7345">
        <ele>277.48</ele>
        <time>2016-03-26T16:11:13Z</time>
      </trkpt>
      <trkpt lat="45.38544" lon="4.73465">
        <ele>279.4</ele>
        <time>2016-03-26T16:11:25Z</time>
      </trkpt>
      <trkpt lat="45.38555" lon="4.73494">
        <ele>265.46</ele>
        <time>2016-03-26T16:11:40Z</time>
      </trkpt>
      <trkpt lat="45.38561" lon="4.73498">
        <ele>260.17</ele>
        <time>2016-03-26T16:11:47Z</time>
      </trkpt>
      <trkpt lat="45.38578" lon="4.73506">
        <ele>252</ele>
        <time>2016-03-26T16:12:00Z</time>
      </trkpt>
      <trkpt lat="45.38591" lon="4.7352">
        <ele>258.73</ele>
        <time>2016-03-26T16:12:13Z</time>
      </trkpt>
      <trkpt lat="45.38593" lon="4.73525">
        <ele>259.69</ele>
        <time>2016-03-26T16:12:17Z</time>
      </trkpt>
      <trkpt lat="45.38598" lon="4.73549">
        <ele>259.21</ele>
        <time>2016-03-26T16:12:33Z</time>
      </trkpt>
      <trkpt lat="45.38605" lon="4.73546">
        <ele>257.29</ele>
        <time>2016-03-26T16:12:44Z</time>
      </trkpt>
      <trkpt lat="45.38612" lon="4.73549">
        <ele>260.17</ele>
        <time>2016-03-26T16:12:57Z</time>
      </trkpt>
      <trkpt lat="45.38618" lon="4.73547">
        <ele>259.69</ele>
        <time>2016-03-26T16:13:06Z</time>
      </trkpt>
      <trkpt lat="45.38631" lon="4.73552">
        <ele>258.25</ele>
        <time>2016-03-26T16:13:20Z</time>
      </trkpt>
      <trkpt lat="45.38642" lon="4.73555">
        <ele>254.89</ele>
        <time>2016-03-26T16:13:35Z</time>
      </trkpt>
      <trkpt lat="45.38645" lon="4.73554">
        <ele>254.89</ele>
        <time>2016-03-26T16:13:42Z</time>
      </trkpt>
      <trkpt lat="45.38655" lon="4.73549">
        <ele>255.85</ele>
        <time>2016-03-26T16:13:53Z</time>
      </trkpt>
      <trkpt lat="45.38672" lon="4.73551">
        <ele>253.93</ele>
        <time>2016-03-26T16:14:09Z</time>
      </trkpt>
      <trkpt lat="45.3869" lon="4.73551">
        <ele>251.52</ele>
        <time>2016-03-26T16:14:24Z</time>
      </trkpt>
      <trkpt lat="45.38707" lon="4.7356">
        <ele>251.04</ele>
        <time>2016-03-26T16:14:39Z</time>
      </trkpt>
      <trkpt lat="45.38719" lon="4.73567">
        <ele>252</ele>
        <time>2016-03-26T16:14:54Z</time>
      </trkpt>
      <trkpt lat="45.38728" lon="4.73573">
        <ele>252.96</ele>
        <time>2016-03-26T16:15:03Z</time>
      </trkpt>
      <trkpt lat="45.38731" lon="4.7358">
        <ele>253.93</ele>
        <time>2016-03-26T16:15:08Z</time>
      </trkpt>
      <trkpt lat="45.38734" lon="4.73583">
        <ele>254.89</ele>
        <time>2016-03-26T16:15:11Z</time>
      </trkpt>
      <trkpt lat="45.3874" lon="4.73594">
        <ele>259.69</ele>
        <time>2016-03-26T16:15:22Z</time>
      </trkpt>
      <trkpt lat="45.38741" lon="4.73597">
        <ele>261.14</ele>
        <time>2016-03-26T16:15:24Z</time>
      </trkpt>
      <trkpt lat="45.38742" lon="4.73613">
        <ele>264.98</ele>
        <time>2016-03-26T16:15:32Z</time>
      </trkpt>
      <trkpt lat="45.38741" lon="4.7363">
        <ele>270.75</ele>
        <time>2016-03-26T16:15:42Z</time>
      </trkpt>
      <trkpt lat="45.38735" lon="4.7366">
        <ele>273.15</ele>
        <time>2016-03-26T16:15:58Z</time>
      </trkpt>
      <trkpt lat="45.38736" lon="4.73691">
        <ele>266.9</ele>
        <time>2016-03-26T16:16:14Z</time>
      </trkpt>
      <trkpt lat="45.38727" lon="4.73719">
        <ele>264.02</ele>
        <time>2016-03-26T16:16:29Z</time>
      </trkpt>
      <trkpt lat="45.38726" lon="4.73725">
        <ele>263.54</ele>
        <time>2016-03-26T16:16:33Z</time>
      </trkpt>
      <trkpt lat="45.38724" lon="4.73747">
        <ele>254.41</ele>
        <time>2016-03-26T16:16:50Z</time>
      </trkpt>
      <trkpt lat="45.38726" lon="4.73754">
        <ele>251.52</ele>
        <time>2016-03-26T16:17:08Z</time>
      </trkpt>
      <trkpt lat="45.38737" lon="4.73769">
        <ele>248.64</ele>
        <time>2016-03-26T16:17:22Z</time>
      </trkpt>
      <trkpt lat="45.38745" lon="4.73797">
        <ele>249.12</ele>
        <time>2016-03-26T16:17:37Z</time>
      </trkpt>
      <trkpt lat="45.3876" lon="4.73817">
        <ele>248.64</ele>
        <time>2016-03-26T16:17:53Z</time>
      </trkpt>
      <trkpt lat="45.38775" lon="4.73831">
        <ele>248.64</ele>
        <time>2016-03-26T16:18:08Z</time>
      </trkpt>
      <trkpt lat="45.38776" lon="4.73832">
        <ele>248.64</ele>
        <time>2016-03-26T16:18:09Z</time>
      </trkpt>
      <trkpt lat="45.38782" lon="4.73848">
        <ele>248.64</ele>
        <time>2016-03-26T16:18:21Z</time>
      </trkpt>
      <trkpt lat="45.38787" lon="4.73857">
        <ele>248.64</ele>
        <time>2016-03-26T16:18:29Z</time>
      </trkpt>
      <trkpt lat="45.38791" lon="4.73877">
        <ele>249.6</ele>
        <time>2016-03-26T16:18:37Z</time>
      </trkpt>
      <trkpt lat="45.38796" lon="4.73907">
        <ele>252.48</ele>
        <time>2016-03-26T16:18:54Z</time>
      </trkpt>
      <trkpt lat="45.38804" lon="4.73935">
        <ele>253.44</ele>
        <time>2016-03-26T16:19:10Z</time>
      </trkpt>
      <trkpt lat="45.38813" lon="4.73958">
        <ele>249.12</ele>
        <time>2016-03-26T16:19:24Z</time>
      </trkpt>
      <trkpt lat="45.38819" lon="4.73981">
        <ele>244.31</ele>
        <time>2016-03-26T16:19:38Z</time>
      </trkpt>
      <trkpt lat="45.38818" lon="4.73991">
        <ele>242.87</ele>
        <time>2016-03-26T16:19:44Z</time>
      </trkpt>
      <trkpt lat="45.38816" lon="4.74011">
        <ele>239.99</ele>
        <time>2016-03-26T16:19:55Z</time>
      </trkpt>
      <trkpt lat="45.38816" lon="4.74023">
        <ele>239.99</ele>
        <time>2016-03-26T16:20:01Z</time>
      </trkpt>
      <trkpt lat="45.38822" lon="4.74043">
        <ele>239.99</ele>
        <time>2016-03-26T16:20:18Z</time>
      </trkpt>
      <trkpt lat="45.38822" lon="4.74044">
        <ele>240.95</ele>
        <time>2016-03-26T16:20:39Z</time>
      </trkpt>
      <trkpt lat="45.38822" lon="4.74044">
        <ele>241.43</ele>
        <time>2016-03-26T16:20:54Z</time>
      </trkpt>
      <trkpt lat="45.38825" lon="4.74046">
        <ele>241.91</ele>
        <time>2016-03-26T16:21:03Z</time>
      </trkpt>
      <trkpt lat="45.38831" lon="4.74051">
        <ele>240.95</ele>
        <time>2016-03-26T16:21:09Z</time>
      </trkpt>
      <trkpt lat="45.38849" lon="4.74063">
        <ele>236.14</ele>
        <time>2016-03-26T16:21:25Z</time>
      </trkpt>
      <trkpt lat="45.38867" lon="4.74074">
        <ele>234.7</ele>
        <time>2016-03-26T16:21:39Z</time>
      </trkpt>
      <trkpt lat="45.38872" lon="4.74076">
        <ele>234.22</ele>
        <time>2016-03-26T16:21:43Z</time>
      </trkpt>
      <trkpt lat="45.38891" lon="4.7408">
        <ele>234.22</ele>
        <time>2016-03-26T16:21:59Z</time>
      </trkpt>
      <trkpt lat="45.38895" lon="4.7408">
        <ele>235.66</ele>
        <time>2016-03-26T16:22:04Z</time>
      </trkpt>
      <trkpt lat="45.38903" lon="4.74079">
        <ele>237.58</ele>
        <time>2016-03-26T16:22:10Z</time>
      </trkpt>
      <trkpt lat="45.3892" lon="4.74076">
        <ele>242.39</ele>
        <time>2016-03-26T16:22:26Z</time>
      </trkpt>
      <trkpt lat="45.38929" lon="4.74072">
        <ele>245.27</ele>
        <time>2016-03-26T16:22:33Z</time>
      </trkpt>
      <trkpt lat="45.38936" lon="4.74067">
        <ele>241.91</ele>
        <time>2016-03-26T16:22:38Z</time>
      </trkpt>
      <trkpt lat="45.3894" lon="4.74081">
        <ele>238.54</ele>
        <time>2016-03-26T16:22:50Z</time>
      </trkpt>
      <trkpt lat="45.38942" lon="4.74092">
        <ele>238.54</ele>
        <time>2016-03-26T16:23:00Z</time>
      </trkpt>
      <trkpt lat="45.38944" lon="4.74095">
        <ele>237.58</ele>
        <time>2016-03-26T16:23:02Z</time>
      </trkpt>
      <trkpt lat="45.38953" lon="4.74118">
        <ele>234.22</ele>
        <time>2016-03-26T16:23:11Z</time>
      </trkpt>
      <trkpt lat="45.38962" lon="4.74159">
        <ele>217.88</ele>
        <time>2016-03-26T16:23:27Z</time>
      </trkpt>
      <trkpt lat="45.38956" lon="4.74178">
        <ele>219.8</ele>
        <time>2016-03-26T16:23:39Z</time>
      </trkpt>
      <trkpt lat="45.38957" lon="4.74183">
        <ele>220.76</ele>
        <time>2016-03-26T16:23:44Z</time>
      </trkpt>
      <trkpt lat="45.38957" lon="4.74186">
        <ele>221.24</ele>
        <time>2016-03-26T16:23:46Z</time>
      </trkpt>
      <trkpt lat="45.38956" lon="4.74199">
        <ele>223.16</ele>
        <time>2016-03-26T16:23:55Z</time>
      </trkpt>
      <trkpt lat="45.38958" lon="4.74205">
        <ele>222.68</ele>
        <time>2016-03-26T16:24:00Z</time>
      </trkpt>
      <trkpt lat="45.38959" lon="4.74233">
        <ele>216.43</ele>
        <time>2016-03-26T16:24:14Z</time>
      </trkpt>
      <trkpt lat="45.38955" lon="4.7425">
        <ele>210.19</ele>
        <time>2016-03-26T16:24:26Z</time>
      </trkpt>
      <trkpt lat="45.38948" lon="4.74263">
        <ele>205.86</ele>
        <time>2016-03-26T16:24:37Z</time>
      </trkpt>
      <trkpt lat="45.38947" lon="4.74269">
        <ele>204.42</ele>
        <time>2016-03-26T16:24:40Z</time>
      </trkpt>
      <trkpt lat="45.38947" lon="4.74275">
        <ele>202.49</ele>
        <time>2016-03-26T16:24:43Z</time>
      </trkpt>
      <trkpt lat="45.38931" lon="4.74297">
        <ele>195.28</ele>
        <time>2016-03-26T16:24:56Z</time>
      </trkpt>
      <trkpt lat="45.38904" lon="4.74328">
        <ele>182.79</ele>
        <time>2016-03-26T16:25:12Z</time>
      </trkpt>
      <trkpt lat="45.38897" lon="4.74342">
        <ele>176.54</ele>
        <time>2016-03-26T16:25:23Z</time>
      </trkpt>
      <trkpt lat="45.38894" lon="4.74351">
        <ele>172.21</ele>
        <time>2016-03-26T16:25:35Z</time>
      </trkpt>
      <trkpt lat="45.38887" lon="4.74381">
        <ele>172.69</ele>
        <time>2016-03-26T16:25:53Z</time>
      </trkpt>
      <trkpt lat="45.38885" lon="4.74393">
        <ele>171.73</ele>
        <time>2016-03-26T16:26:01Z</time>
      </trkpt>
      <trkpt lat="45.38877" lon="4.7441">
        <ele>166.93</ele>
        <time>2016-03-26T16:26:15Z</time>
      </trkpt>
      <trkpt lat="45.38865" lon="4.74437">
        <ele>165</ele>
        <time>2016-03-26T16:26:32Z</time>
      </trkpt>
      <trkpt lat="45.38858" lon="4.74458">
        <ele>163.08</ele>
        <time>2016-03-26T16:26:46Z</time>
      </trkpt>
      <trkpt lat="45.38847" lon="4.74482">
        <ele>159.72</ele>
        <time>2016-03-26T16:27:01Z</time>
      </trkpt>
      <trkpt lat="45.3884" lon="4.74485">
        <ele>158.75</ele>
        <time>2016-03-26T16:27:10Z</time>
      </trkpt>
      <trkpt lat="45.38824" lon="4.74494">
        <ele>156.35</ele>
        <time>2016-03-26T16:27:24Z</time>
      </trkpt>
      <trkpt lat="45.38818" lon="4.74501">
        <ele>155.39</ele>
        <time>2016-03-26T16:27:31Z</time>
      </trkpt>
      <trkpt lat="45.38816" lon="4.74507">
        <ele>154.91</ele>
        <time>2016-03-26T16:27:38Z</time>
      </trkpt>
      <trkpt lat="45.38808" lon="4.74502">
        <ele>153.95</ele>
        <time>2016-03-26T16:27:43Z</time>
      </trkpt>
      <trkpt lat="45.38797" lon="4.74498">
        <ele>152.51</ele>
        <time>2016-03-26T16:27:52Z</time>
      </trkpt>
      <trkpt lat="45.38792" lon="4.74493">
        <ele>152.03</ele>
        <time>2016-03-26T16:27:57Z</time>
      </trkpt>
      <trkpt lat="45.38787" lon="4.74494">
        <ele>151.06</ele>
        <time>2016-03-26T16:28:02Z</time>
      </trkpt>
      <trkpt lat="45.38779" lon="4.74494">
        <ele>150.58</ele>
        <time>2016-03-26T16:28:08Z</time>
      </trkpt>
      <trkpt lat="45.38768" lon="4.74508">
        <ele>150.58</ele>
        <time>2016-03-26T16:28:20Z</time>
      </trkpt>
      <trkpt lat="45.38759" lon="4.74521">
        <ele>149.62</ele>
        <time>2016-03-26T16:28:33Z</time>
      </trkpt>
      <trkpt lat="45.38759" lon="4.74521">
        <ele>150.1</ele>
        <time>2016-03-26T16:29:06Z</time>
      </trkpt>
      <trkpt lat="45.38759" lon="4.74521">
        <ele>150.58</ele>
        <time>2016-03-26T16:29:39Z</time>
      </trkpt>
    </trkseg>
  </trk>
</gpx>